[[{"header":{"parameterUnit":"m.s-1","parameterCategory":1,"la1":30.6,"la2":29.2853,"lo1":-89.7004,"lo2":-87.6739,"dy":0.0162,"dx":0.0183,"nx":112,"ny":82,"refTime":"2024-02-15T06:00:00:Z","depth":0,"parameterNumber":2,"parameterNumberName":"U-component_of_WINDS"},"data":[0.0,0.0,0.0,0.0,0.0,0.0,0.0,0.0,0.0,0.0,0.0,0.0,0.0,0.0,0.0,0.0,0.0,0.0,0.0,0.0,0.0,0.0,0.0,0.0,0.0,0.0,0.0,0.0,0.0,0.0,0.0,0.0,0.0,0.0,0.0,0.0,0.0,0.0,0.0,0.0,0.0,0.0,0.0,0.0,0.0,0.0,0.0,0.0,0.0,0.0,0.0,0.0,0.0,0.0,0.0,0.0,0.0,0.0,0.0,0.0,0.0,0.0,0.0,0.0,0.0,0.0,0.0,0.0,0.0,0.0,0.0,0.0,0.0,0.0,0.0,0.0,0.0,0.0,0.0,0.0,0.0,0.0,0.0,0.0,0.0,0.0,0.0,0.0,0.0,0.0,-2.9621,-3.1749,-3.3953,-3.521,-3.5082,-3.2077,-2.9394,-2.752,0.0,0.0,0.0,0.0,0.0,0.0,0.0,0.0,0.0,0.0,0.0,0.0,0.0,0.0,0.0,0.0,0.0,0.0,0.0,0.0,0.0,0.0,0.0,0.0,0.0,0.0,0.0,0.0,0.0,0.0,0.0,0.0,0.0,0.0,0.0,0.0,0.0,0.0,0.0,0.0,0.0,0.0,0.0,0.0,0.0,0.0,0.0,0.0,0.0,0.0,0.0,0.0,0.0,0.0,0.0,0.0,0.0,0.0,0.0,0.0,0.0,0.0,0.0,0.0,0.0,0.0,0.0,0.0,0.0,0.0,0.0,0.0,0.0,0.0,0.0,0.0,0.0,0.0,0.0,0.0,0.0,0.0,0.0,0.0,0.0,0.0,0.0,0.0,0.0,0.0,0.0,0.0,0.0,0.0,0.0,0.0,0.0,0.0,0.0,0.0,0.0,0.0,0.0,0.0,-2.9391,-3.3302,-3.4016,-3.394,-3.3273,-3.0746,-2.8178,-2.5746,0.0,0.0,0.0,0.0,0.0,0.0,0.0,0.0,0.0,0.0,0.0,0.0,0.0,0.0,0.0,0.0,0.0,0.0,0.0,0.0,0.0,0.0,0.0,0.0,0.0,0.0,0.0,0.0,0.0,0.0,0.0,0.0,0.0,0.0,0.0,0.0,0.0,0.0,0.0,0.0,0.0,0.0,0.0,0.0,0.0,0.0,0.0,0.0,0.0,0.0,0.0,0.0,0.0,0.0,0.0,0.0,0.0,0.0,0.0,0.0,0.0,0.0,0.0,0.0,0.0,0.0,0.0,0.0,0.0,0.0,0.0,0.0,0.0,0.0,0.0,0.0,0.0,0.0,0.0,0.0,0.0,0.0,0.0,0.0,0.0,0.0,0.0,0.0,0.0,0.0,0.0,0.0,0.0,0.0,0.0,0.0,0.0,0.0,0.0,0.0,0.0,0.0,0.0,-2.8943,-3.0495,-3.2974,-3.3237,-3.2718,-3.1444,-2.9429,-2.7172,-2.4659,-2.2868,0.0,0.0,0.0,0.0,0.0,0.0,0.0,0.0,0.0,0.0,0.0,0.0,0.0,0.0,0.0,0.0,0.0,0.0,0.0,0.0,0.0,0.0,0.0,0.0,0.0,0.0,0.0,0.0,0.0,0.0,0.0,0.0,0.0,0.0,0.0,0.0,0.0,0.0,0.0,0.0,0.0,0.0,0.0,0.0,0.0,0.0,0.0,0.0,0.0,0.0,0.0,0.0,0.0,0.0,0.0,0.0,0.0,0.0,0.0,0.0,0.0,0.0,0.0,0.0,0.0,0.0,0.0,0.0,0.0,0.0,0.0,0.0,0.0,0.0,0.0,0.0,0.0,0.0,0.0,0.0,0.0,0.0,0.0,0.0,0.0,0.0,0.0,0.0,0.0,0.0,0.0,0.0,0.0,0.0,0.0,0.0,0.0,0.0,0.0,0.0,0.0,0.0,-2.9736,-3.1123,-3.2043,-3.202,-3.1323,-2.9859,-2.8015,-2.5965,-2.37,-2.2122,0.0,0.0,0.0,0.0,0.0,0.0,0.0,0.0,0.0,0.0,0.0,0.0,0.0,0.0,0.0,0.0,0.0,0.0,0.0,0.0,0.0,0.0,0.0,0.0,0.0,0.0,0.0,0.0,0.0,0.0,0.0,0.0,0.0,0.0,0.0,0.0,0.0,0.0,0.0,0.0,0.0,0.0,0.0,0.0,0.0,0.0,0.0,0.0,0.0,0.0,0.0,0.0,0.0,0.0,0.0,0.0,0.0,0.0,0.0,0.0,0.0,0.0,0.0,0.0,0.0,0.0,0.0,0.0,0.0,0.0,0.0,0.0,0.0,0.0,0.0,0.0,0.0,0.0,0.0,0.0,0.0,0.0,0.0,0.0,0.0,0.0,0.0,0.0,0.0,0.0,0.0,0.0,0.0,0.0,0.0,0.0,0.0,0.0,0.0,0.0,0.0,0.0,-2.8794,-3.0122,-3.1013,-3.0375,-2.9593,-2.8766,-2.6431,-2.4279,-2.2615,-2.1684,0.0,0.0,0.0,0.0,0.0,0.0,0.0,0.0,0.0,0.0,0.0,0.0,0.0,0.0,0.0,0.0,0.0,0.0,0.0,0.0,0.0,0.0,0.0,0.0,0.0,0.0,0.0,0.0,0.0,0.0,0.0,0.0,0.0,0.0,0.0,0.0,0.0,0.0,0.0,0.0,0.0,0.0,0.0,0.0,0.0,0.0,0.0,0.0,0.0,0.0,0.0,0.0,0.0,0.0,0.0,0.0,0.0,0.0,0.0,0.0,0.0,0.0,0.0,0.0,0.0,0.0,0.0,0.0,0.0,0.0,0.0,0.0,0.0,0.0,0.0,0.0,0.0,0.0,0.0,0.0,0.0,0.0,0.0,0.0,0.0,0.0,0.0,0.0,0.0,0.0,0.0,0.0,0.0,0.0,0.0,0.0,0.0,0.0,0.0,0.0,0.0,0.0,-2.7251,-2.8026,-2.84,-2.8184,-2.75,-2.6207,-2.484,-2.3371,-2.1754,0.0,0.0,0.0,0.0,0.0,0.0,0.0,0.0,0.0,0.0,0.0,0.0,0.0,0.0,0.0,0.0,0.0,0.0,0.0,0.0,0.0,0.0,0.0,0.0,0.0,0.0,0.0,0.0,0.0,0.0,0.0,0.0,0.0,0.0,0.0,0.0,0.0,0.0,0.0,0.0,0.0,0.0,0.0,0.0,0.0,0.0,0.0,0.0,0.0,0.0,0.0,0.0,0.0,0.0,0.0,0.0,0.0,0.0,0.0,0.0,0.0,0.0,0.0,0.0,0.0,0.0,0.0,0.0,0.0,0.0,0.0,0.0,0.0,0.0,0.0,0.0,0.0,0.0,0.0,0.0,0.0,0.0,0.0,0.0,0.0,0.0,0.0,0.0,0.0,0.0,0.0,0.0,0.0,0.0,0.0,0.0,0.0,0.0,0.0,0.0,0.0,0.0,-2.5734,-2.6126,-2.6515,-2.6831,-2.6674,-2.6013,-2.4698,-2.3701,-2.2582,-2.125,0.0,0.0,0.0,0.0,0.0,0.0,0.0,0.0,0.0,0.0,0.0,0.0,0.0,0.0,0.0,0.0,0.0,0.0,0.0,0.0,0.0,0.0,0.0,0.0,0.0,0.0,0.0,0.0,0.0,0.0,0.0,0.0,0.0,0.0,0.0,0.0,0.0,0.0,0.0,0.0,0.0,0.0,0.0,0.0,0.0,0.0,0.0,0.0,0.0,0.0,0.0,0.0,0.0,0.0,0.0,0.0,0.0,0.0,0.0,0.0,0.0,0.0,0.0,0.0,0.0,0.0,0.0,0.0,0.0,0.0,0.0,0.0,0.0,0.0,0.0,0.0,0.0,0.0,0.0,0.0,0.0,0.0,0.0,0.0,0.0,0.0,0.0,0.0,0.0,0.0,0.0,0.0,0.0,0.0,0.0,0.0,0.0,0.0,0.0,0.0,0.0,0.0,-2.5578,-2.5569,-2.5808,-2.6671,-2.6069,-2.531,-2.4622,-2.3124,-2.187,0.0,0.0,0.0,0.0,0.0,0.0,0.0,0.0,0.0,0.0,0.0,0.0,0.0,0.0,0.0,0.0,0.0,0.0,0.0,0.0,0.0,0.0,0.0,0.0,0.0,0.0,0.0,0.0,0.0,0.0,0.0,0.0,0.0,0.0,0.0,0.0,0.0,0.0,0.0,0.0,0.0,0.0,0.0,0.0,0.0,0.0,0.0,0.0,0.0,0.0,0.0,0.0,0.0,0.0,0.0,0.0,0.0,0.0,0.0,0.0,0.0,0.0,0.0,0.0,0.0,0.0,0.0,0.0,0.0,0.0,0.0,0.0,0.0,0.0,0.0,0.0,0.0,0.0,0.0,0.0,0.0,0.0,0.0,0.0,0.0,0.0,0.0,0.0,0.0,0.0,0.0,0.0,0.0,0.0,0.0,0.0,0.0,0.0,0.0,0.0,0.0,0.0,0.0,-2.4617,-2.4606,-2.4679,-2.4948,-2.4847,-2.4229,-2.2955,-2.2534,-2.1783,-2.047,0.0,0.0,0.0,0.0,0.0,0.0,0.0,0.0,0.0,0.0,0.0,0.0,0.0,0.0,0.0,0.0,0.0,0.0,0.0,0.0,0.0,0.0,0.0,0.0,0.0,0.0,0.0,0.0,0.0,0.0,0.0,0.0,0.0,0.0,0.0,0.0,0.0,0.0,0.0,0.0,0.0,0.0,0.0,0.0,0.0,0.0,0.0,0.0,0.0,0.0,0.0,0.0,0.0,0.0,0.0,0.0,0.0,0.0,0.0,0.0,0.0,0.0,0.0,0.0,0.0,0.0,0.0,0.0,0.0,0.0,0.0,0.0,0.0,0.0,0.0,0.0,0.0,0.0,0.0,0.0,0.0,0.0,0.0,0.0,0.0,0.0,0.0,0.0,0.0,0.0,0.0,0.0,0.0,0.0,0.0,0.0,0.0,0.0,0.0,0.0,0.0,0.0,-2.4201,-2.4201,-2.4228,-2.4275,-2.4391,-2.3862,-2.2347,-2.2382,-2.1806,-2.0232,0.0,0.0,0.0,0.0,0.0,0.0,0.0,0.0,0.0,0.0,0.0,0.0,0.0,0.0,0.0,0.0,0.0,0.0,0.0,0.0,0.0,0.0,0.0,0.0,0.0,0.0,0.0,0.0,0.0,0.0,0.0,0.0,0.0,0.0,0.0,0.0,0.0,0.0,0.0,0.0,0.0,0.0,0.0,0.0,0.0,0.0,0.0,0.0,0.0,0.0,0.0,0.0,0.0,0.0,0.0,0.0,0.0,0.0,0.0,0.0,0.0,0.0,0.0,0.0,0.0,0.0,0.0,0.0,0.0,0.0,0.0,0.0,0.0,0.0,0.0,0.0,0.0,0.0,0.0,0.0,0.0,0.0,0.0,0.0,0.0,0.0,0.0,0.0,0.0,0.0,0.0,0.0,0.0,0.0,0.0,0.0,0.0,0.0,0.0,0.0,0.0,0.0,-2.4201,-2.421,-2.4275,-2.4403,-2.4454,-2.3938,-2.2533,-2.2454,-2.1792,-2.0196,0.0,0.0,0.0,0.0,0.0,0.0,0.0,0.0,0.0,0.0,0.0,0.0,0.0,0.0,0.0,0.0,0.0,0.0,0.0,0.0,0.0,0.0,0.0,0.0,0.0,0.0,0.0,0.0,0.0,0.0,0.0,0.0,0.0,0.0,0.0,0.0,0.0,0.0,0.0,0.0,0.0,0.0,0.0,0.0,0.0,0.0,0.0,0.0,0.0,0.0,0.0,0.0,0.0,0.0,0.0,0.0,0.0,0.0,0.0,0.0,-2.6309,-2.5703,0.0,0.0,0.0,0.0,0.0,0.0,0.0,0.0,0.0,0.0,0.0,0.0,0.0,0.0,0.0,0.0,0.0,0.0,0.0,0.0,0.0,0.0,0.0,0.0,0.0,0.0,0.0,0.0,0.0,0.0,0.0,0.0,0.0,0.0,0.0,0.0,0.0,0.0,0.0,0.0,-2.4201,-2.4284,-2.4393,-2.4479,-2.403,-2.339,-2.2546,-2.197,-2.0972,-1.9361,-1.9211,0.0,0.0,0.0,0.0,0.0,0.0,0.0,0.0,0.0,0.0,0.0,0.0,0.0,0.0,0.0,0.0,0.0,0.0,0.0,0.0,0.0,0.0,0.0,0.0,0.0,0.0,0.0,0.0,0.0,0.0,0.0,0.0,0.0,0.0,0.0,0.0,0.0,0.0,0.0,0.0,0.0,0.0,0.0,0.0,0.0,0.0,0.0,0.0,0.0,0.0,0.0,0.0,0.0,0.0,0.0,0.0,0.0,0.0,0.0,-2.7694,-2.6719,0.0,0.0,0.0,0.0,0.0,0.0,0.0,0.0,0.0,0.0,0.0,0.0,0.0,0.0,0.0,0.0,0.0,0.0,0.0,0.0,0.0,0.0,0.0,0.0,0.0,0.0,0.0,0.0,0.0,0.0,0.0,0.0,0.0,0.0,0.0,0.0,0.0,0.0,0.0,0.0,-2.4284,-2.4393,-2.4479,-2.4534,-2.3986,-2.3296,-2.2556,-2.1859,-2.0755,-1.9108,-1.8966,0.0,0.0,0.0,0.0,0.0,0.0,0.0,0.0,0.0,0.0,0.0,0.0,0.0,0.0,0.0,0.0,0.0,0.0,0.0,0.0,0.0,0.0,0.0,0.0,0.0,0.0,0.0,0.0,0.0,0.0,0.0,0.0,0.0,0.0,0.0,0.0,0.0,0.0,0.0,0.0,0.0,0.0,0.0,0.0,0.0,0.0,0.0,0.0,0.0,0.0,0.0,0.0,0.0,-3.1442,-3.1451,-3.1441,-3.1451,-3.1381,-3.1157,-2.9777,-2.8515,-2.7422,-2.7129,0.0,0.0,0.0,0.0,0.0,0.0,0.0,0.0,0.0,0.0,0.0,0.0,0.0,0.0,0.0,0.0,0.0,0.0,0.0,0.0,0.0,0.0,-2.5292,-2.5238,-2.5214,-2.5222,-2.5228,0.0,0.0,0.0,0.0,0.0,0.0,0.0,0.0,0.0,0.0,0.0,-2.4438,-2.4505,-2.453,-2.4425,-2.3867,-2.3176,-2.2388,-2.1674,-2.0561,-1.8878,-1.8766,-1.8378,0.0,0.0,0.0,0.0,0.0,0.0,0.0,0.0,0.0,0.0,0.0,0.0,0.0,0.0,0.0,0.0,0.0,0.0,0.0,0.0,0.0,0.0,0.0,0.0,0.0,0.0,0.0,0.0,0.0,0.0,0.0,0.0,-2.5126,-2.5106,0.0,0.0,0.0,0.0,0.0,0.0,0.0,0.0,0.0,0.0,0.0,0.0,0.0,-2.9726,-3.1476,-3.1493,-3.2301,-3.3938,-3.3976,-3.4016,-3.4,-3.4065,-3.3682,-3.2966,-3.274,0.0,-2.9131,-2.7628,0.0,0.0,0.0,0.0,0.0,0.0,0.0,0.0,0.0,0.0,0.0,0.0,0.0,0.0,0.0,0.0,0.0,0.0,0.0,0.0,0.0,0.0,-2.5308,-2.5298,-2.5283,-2.5307,-2.536,-2.5225,-2.5088,-2.4994,-2.4884,-2.4749,0.0,0.0,0.0,0.0,0.0,0.0,-2.4574,-2.4692,-2.4508,-2.3809,-2.3095,-2.2367,-2.162,-2.0823,-1.9664,-1.7971,-1.7875,-1.7472,-1.6601,-1.6669,0.0,0.0,0.0,0.0,0.0,0.0,0.0,0.0,0.0,0.0,0.0,0.0,0.0,0.0,0.0,0.0,0.0,0.0,0.0,0.0,0.0,0.0,0.0,0.0,0.0,0.0,0.0,0.0,0.0,-2.5754,-2.5885,-2.6341,-2.6026,-2.5952,0.0,0.0,0.0,0.0,0.0,0.0,0.0,0.0,0.0,-3.1247,-3.175,-3.2875,-3.4657,-3.4663,-3.5298,-3.6533,-3.6574,-3.6575,-3.6556,-3.6099,-3.5693,-3.5317,-3.4345,-3.3326,-3.2196,-3.0039,-2.8555,-2.7585,0.0,0.0,0.0,0.0,-2.5634,-2.5605,-2.5561,-2.5524,-2.5502,-2.5489,0.0,0.0,0.0,0.0,0.0,0.0,0.0,-2.5464,-2.5455,-2.5427,-2.5412,-2.5406,-2.5402,-2.5414,-2.5441,-2.5395,-2.5284,-2.5135,-2.5006,-2.4735,-2.4188,-2.4411,0.0,0.0,0.0,-2.4719,-2.4761,-2.4419,-2.4047,-2.3701,-2.2555,-2.1698,-2.1375,-2.0183,-1.8961,-1.7777,-1.7238,-1.6592,-1.5763,-1.6115,-1.6697,0.0,0.0,0.0,0.0,0.0,0.0,0.0,0.0,0.0,0.0,0.0,0.0,0.0,0.0,0.0,0.0,0.0,0.0,0.0,0.0,0.0,0.0,0.0,0.0,0.0,0.0,0.0,0.0,-2.6413,-2.6816,-2.7619,-2.7354,-2.7384,0.0,0.0,0.0,0.0,0.0,0.0,-3.056,-3.2044,-3.337,-3.4487,-3.5155,-3.6254,-3.781,-3.7617,-3.7939,-3.8788,-3.8588,-3.8491,-3.8438,-3.7611,-3.7124,-3.6894,-3.5369,-3.4618,-3.427,-3.1774,-2.9985,-2.8748,-2.7708,-2.731,-2.7221,-2.6581,-2.6306,-2.6234,-2.6008,-2.5901,-2.5841,-2.5603,-2.5546,-2.5549,-2.5549,0.0,0.0,0.0,0.0,-2.5501,-2.5517,-2.552,-2.5505,-2.5525,-2.5522,-2.5537,-2.5546,-2.5547,-2.5475,-2.5293,-2.5163,-2.4793,-2.3932,-2.4398,0.0,-2.3769,-2.4336,-2.4785,-2.4642,-2.41,-2.3556,-2.3119,-2.2005,-2.1136,-2.0693,-1.9581,-1.8455,-1.7439,-1.6755,-1.6042,-1.5232,-1.5703,-1.6097,-1.6295,0.0,0.0,0.0,0.0,0.0,0.0,0.0,0.0,0.0,0.0,0.0,0.0,0.0,0.0,0.0,0.0,0.0,0.0,0.0,0.0,0.0,0.0,0.0,0.0,0.0,0.0,0.0,0.0,0.0,-2.8442,-2.9181,0.0,0.0,0.0,0.0,-3.1045,-3.1989,-3.3215,-3.4805,-3.5825,-3.7126,-3.8823,-3.8992,-3.9457,-4.0312,-3.9561,-3.958,-4.0369,-3.961,-3.9247,-3.9208,-3.8415,-3.7616,-3.6849,-3.595,-3.5104,-3.42,-3.1658,-3.0607,-3.0407,-2.8782,-2.8136,-2.8134,-2.8093,-2.8062,-2.7948,-2.7128,-2.6866,-2.6777,-2.5874,-2.5632,-2.5684,-2.5684,-2.5652,0.0,0.0,-2.5542,-2.5507,-2.5576,-2.5543,-2.5513,-2.5585,-2.5595,-2.5601,-2.5681,-2.563,-2.5547,-2.5414,-2.5333,-2.5014,-2.4149,0.0,-2.4793,-2.392,-2.4467,-2.4727,-2.3947,-2.382,-2.3192,-2.1581,-2.1341,-2.0651,-1.9064,-1.8916,-1.821,-1.6561,-1.6413,-1.6042,-1.5232,-1.5162,-1.551,-1.6286,-1.6219,0.0,0.0,0.0,0.0,0.0,0.0,0.0,0.0,0.0,0.0,0.0,0.0,0.0,0.0,0.0,0.0,0.0,0.0,0.0,0.0,0.0,0.0,0.0,0.0,0.0,0.0,0.0,0.0,-3.1477,-3.1793,0.0,-3.2768,-3.2808,-3.3188,-3.4127,-3.5588,-3.6709,-3.7347,-3.8861,-3.9986,-4.0662,-4.1297,-4.178,-4.2121,-4.1833,-4.1572,-4.1335,-4.1054,-4.0331,-3.9261,-3.8423,-3.7564,-3.6735,-3.5901,-3.538,-3.4999,-3.3517,-3.2319,-3.1309,-3.0175,-2.9425,-2.8893,-2.8342,-2.816,-2.8074,-2.719,-2.6929,-2.6797,-2.5936,-2.5679,-2.5696,-2.5696,-2.5673,-2.5667,-2.5661,-2.5653,-2.5624,-2.5602,-2.5619,-2.5639,-2.5666,-2.5651,-2.5676,-2.5685,-2.5683,-2.5654,-2.5591,-2.5504,-2.4973,-2.3535,-2.3907,-2.4096,-2.3217,-2.3348,-2.3602,-2.382,-2.2884,-2.1956,-2.1369,-2.0804,-2.0015,-1.8897,-1.8351,-1.7593,-1.6466,-1.5866,-1.5431,-1.5143,-1.5066,-1.5164,-1.5467,-1.5369,-1.5297,0.0,0.0,0.0,0.0,0.0,0.0,0.0,0.0,0.0,0.0,0.0,0.0,0.0,0.0,0.0,0.0,0.0,0.0,0.0,0.0,0.0,0.0,0.0,0.0,0.0,-3.0854,-3.2641,-3.4263,-3.485,-3.5361,-3.5975,-3.6012,-3.6366,-3.728,-3.8512,-3.9484,-4.0143,-4.1411,-4.2294,-4.2704,-4.333,-4.3723,-4.3808,-4.352,-4.2972,-4.2195,-4.1899,-4.105,-3.9669,-3.8527,-3.768,-3.7084,-3.5981,-3.5501,-3.5444,-3.4847,-3.364,-3.2085,-3.1318,-3.0507,-2.9711,-2.9152,-2.8968,-2.8848,-2.7731,-2.6957,-2.6389,-2.5873,-2.57,-2.5701,-2.5701,-2.5683,-2.5664,-2.5664,-2.5683,-2.5681,-2.5658,-2.5676,-2.5694,-2.5694,-2.5696,-2.5698,-2.5702,-2.5702,-2.5702,-2.5703,-2.5605,-2.5071,-2.3623,-2.4005,-2.421,-2.3336,-2.317,-2.3222,-2.3451,-2.2206,-2.1173,-2.0855,-2.0313,-1.9649,-1.8825,-1.8044,-1.7263,-1.6451,-1.561,-1.512,-1.512,-1.5066,-1.5038,-1.5027,-1.4949,-1.4869,-1.4766,0.0,0.0,0.0,0.0,0.0,0.0,0.0,0.0,0.0,0.0,0.0,0.0,0.0,0.0,0.0,0.0,0.0,0.0,0.0,0.0,0.0,0.0,0.0,-3.0657,-3.2836,-3.4995,-3.6601,-3.8201,-3.9161,-3.9175,-3.9179,-3.9556,-4.0388,-4.0616,-4.1469,-4.3224,-4.346,-4.3999,-4.5042,-4.5148,-4.5254,-4.5398,-4.4546,-4.3752,-4.2989,-4.2145,-4.1286,-4.04,-3.8757,-3.7981,-3.7865,-3.6212,-3.5493,-3.5493,-3.542,-3.4407,-3.2827,-3.2102,-3.1279,-3.0496,-3.0563,-3.0563,-3.03,-2.8707,-2.7037,-2.5601,-2.566,-2.5686,-2.5686,-2.5686,-2.5653,-2.5599,-2.5599,-2.5651,-2.5699,-2.5699,-2.5703,-2.5703,-2.5703,-2.5703,-2.5703,-2.5696,-2.5693,-2.5691,-2.5706,-2.5643,-2.532,-2.4445,-2.4943,-2.5182,-2.4325,-2.4047,0.0,-2.2801,-2.1854,-2.0912,-2.0004,-1.9906,-1.9579,-1.8766,-1.8027,-1.7266,-1.6449,-1.5648,-1.5194,-1.5194,-1.5136,-1.5103,-1.5094,-1.497,-1.4832,-1.4712,0.0,0.0,0.0,0.0,0.0,0.0,0.0,0.0,0.0,0.0,0.0,0.0,0.0,0.0,0.0,0.0,0.0,0.0,0.0,0.0,0.0,-3.0758,-3.2437,-3.2869,-3.5106,-3.729,-3.8902,-4.0003,-4.0634,-4.0695,-4.1185,-4.1609,-4.189,-4.2591,-4.3248,-4.3855,-4.4013,-4.4277,-4.4719,-4.4796,-4.4938,-4.5114,-4.493,-4.4197,-4.2917,-4.2676,-4.1513,-3.9519,-3.838,-3.7547,-3.6919,-3.5833,-3.5354,-3.5357,-3.5339,-3.4312,-3.2735,-3.2588,-3.1648,-3.0369,-3.0371,-2.9638,-2.851,-2.7462,-2.638,-2.5457,-2.5476,-2.5473,-2.5476,-2.5476,-2.5502,-2.5547,-2.5593,-2.5617,-2.5639,-2.563,-2.566,-2.5708,-2.5693,-2.5692,-2.5687,-2.5633,-2.5624,-2.5636,-2.5621,-2.5612,-2.5328,-2.4445,-2.4482,-2.454,-2.4238,-2.3081,-2.2385,-2.2741,-2.1407,-2.0301,-2.0012,-1.9936,-1.9576,-1.8772,-1.8012,-1.7255,-1.6455,-1.5639,-1.5194,-1.5194,-1.5136,-1.5103,-1.5094,-1.5014,-1.493,0.0,0.0,0.0,0.0,0.0,0.0,0.0,0.0,0.0,0.0,0.0,0.0,0.0,0.0,0.0,0.0,0.0,0.0,0.0,0.0,0.0,0.0,-3.261,-3.4642,-3.5582,-3.7515,-3.931,-4.0643,-4.1572,-4.2136,-4.2185,-4.259,-4.2883,-4.2932,-4.3457,-4.383,-4.3958,-4.4079,-4.421,-4.4393,-4.4416,-4.4554,-4.4745,-4.4479,-4.3787,-4.2698,-4.2374,-4.1303,-3.954,-3.8282,-3.7443,-3.6908,-3.5698,-3.5163,-3.516,-3.5141,-3.4116,-3.2583,0.0,0.0,0.0,0.0,-2.8905,-2.7706,-2.6906,-2.6053,-2.5326,-2.5312,-2.533,-2.5318,-2.5327,-2.536,-2.5414,-2.5455,-2.5489,-2.552,-2.5524,-2.5574,-2.5617,-2.5629,-2.5634,-2.5648,-2.5561,-2.5539,-2.5518,-2.5517,-2.5543,0.0,-2.4885,-2.4822,-2.4828,-2.4787,-2.3295,-2.2353,-2.2798,-2.1261,-2.0125,-2.0049,-2.0005,-1.9791,-1.9321,-1.8584,0.0,0.0,0.0,-1.5592,-1.527,-1.518,0.0,0.0,0.0,-1.5695,-1.5995,-1.7176,0.0,0.0,-1.9097,-1.9468,0.0,0.0,0.0,0.0,0.0,0.0,0.0,0.0,0.0,0.0,0.0,0.0,0.0,0.0,0.0,0.0,-3.4429,-3.6844,-3.8362,-3.9741,-4.0926,-4.1851,-4.2777,-4.3359,-4.3376,-4.3446,-4.3497,-4.3497,-4.3548,-4.3651,-4.3771,-4.3835,0.0,0.0,0.0,-4.4166,-4.4355,-4.3635,-4.2963,-4.2382,-4.1632,-4.0859,-4.0014,-3.8414,-3.7605,-3.7386,-3.578,-3.5039,-3.4953,-3.4898,-3.3866,-3.2342,-3.2298,-3.1332,-2.9874,-2.9129,-2.835,-2.7536,-2.6737,0.0,0.0,-2.5143,-2.5149,-2.5154,-2.5157,-2.5208,-2.5264,-2.5279,-2.5302,-2.5365,-2.5363,-2.5425,-2.548,-2.5483,-2.5526,-2.5535,-2.5489,-2.5429,-2.5372,-2.5375,-2.5426,-2.5469,-2.5473,-2.5558,-2.5604,-2.5592,-2.4193,-2.3089,-2.2935,-2.1414,-2.0307,-2.0148,-2.0112,0.0,-2.0111,-1.938,-1.8608,-1.7893,-1.7096,-1.6342,-1.562,-1.5547,-1.5868,-1.6643,-1.6526,-1.682,-1.7536,-1.8221,-1.849,-1.8366,-1.8941,-1.9111,0.0,0.0,0.0,0.0,0.0,0.0,0.0,0.0,0.0,0.0,0.0,0.0,0.0,0.0,0.0,-3.4154,-3.6568,-3.8517,-3.946,-4.0534,-4.1492,-4.2205,-4.2716,-4.305,-4.316,-4.3323,-4.3411,-4.3411,-4.348,-4.3548,-4.3615,-4.3649,-4.3718,-4.3851,-4.3851,-4.3942,-4.4166,-4.3417,-4.2801,-4.2304,-4.1449,0.0,-3.9908,-3.8708,-3.7822,-3.72,-3.6112,-3.5313,-3.4744,-3.4699,-3.3607,-3.19,-3.0771,-3.0071,-2.9585,-2.8841,-2.8069,-2.7252,-2.6389,-2.5563,-2.4874,-2.4804,-2.4832,-2.4881,-2.4802,-2.4922,0.0,-2.5062,-2.5113,-2.517,-2.5152,-2.5212,-2.5269,-2.5333,-2.5318,-2.529,-2.5326,-2.5298,-2.525,-2.5244,-2.5245,-2.5274,-2.5326,-2.5473,-2.5593,-2.5605,-2.4705,-2.3794,-2.3064,-2.2057,-2.1102,-2.0341,-2.0259,-2.025,-2.0266,-1.9478,-1.8939,-1.8846,-1.8064,-1.7553,-1.7404,-1.7375,-1.746,-1.7625,-1.7552,-1.7592,-1.7749,-1.852,-1.8836,-1.8716,-1.9157,-1.9282,0.0,0.0,0.0,0.0,0.0,0.0,0.0,0.0,0.0,0.0,0.0,-2.8528,-3.0422,0.0,-3.4054,-3.5885,-3.7794,-3.9187,-3.9588,-4.0458,-4.1277,-4.192,-4.2335,-4.2595,-4.2747,-4.2994,-4.3196,-4.3305,-4.3375,-4.348,-4.3566,-4.3548,-4.3583,-4.3652,-4.3652,-4.3718,-4.3844,-4.2715,-4.2075,-4.1895,-4.0671,-3.9902,-3.9532,-3.859,-3.7717,-3.6911,-3.5992,-3.5163,-3.442,-3.3938,-3.2925,-3.155,-3.0461,-2.9818,-2.94,-2.8606,-2.8053,-2.7566,-2.6626,-2.603,-2.563,-2.5151,-2.5011,-2.4981,-2.4571,-2.4548,-2.4666,-2.4685,-2.4747,-2.4799,-2.4761,-2.4815,-2.4892,-2.4905,-2.4911,-2.4923,-2.4993,-2.4943,-2.4924,-2.4987,-2.4962,-2.4986,-2.5072,-2.5164,-2.5265,-2.5472,-2.4789,-2.4088,-2.3651,-2.2832,-2.2125,-2.1647,-2.1245,-2.1001,-2.0993,-1.9794,-1.9067,-1.9109,-1.8309,-1.7838,-1.7809,-1.8184,-1.8573,-1.8941,-1.9312,-1.9471,-1.9453,-1.9818,-1.9744,-1.9254,-1.9428,-1.9498,0.0,0.0,0.0,0.0,0.0,0.0,0.0,-2.6914,-2.745,-2.8938,-2.9799,-3.0916,-3.3005,-3.459,-3.5997,-3.7325,-3.8685,-3.9549,-3.9549,-4.0158,-4.0799,-4.1272,-4.177,-4.2113,-4.2257,-4.2595,-4.2882,-4.3068,-4.3214,-4.334,-4.3375,-4.3375,-4.341,-4.3428,-4.3428,-4.348,-4.3582,-4.203,-4.1342,-4.1468,-3.9895,-3.9142,-3.9137,-3.8459,-3.7615,-3.6591,-3.5564,-3.4723,-3.4043,-3.3179,-3.2324,-3.1481,-3.0558,-2.9904,-2.9365,-2.855,-2.8124,-2.7855,-2.7035,-2.6641,-2.6371,-2.5646,-2.5432,-2.5325,-2.4697,-2.4456,-2.4413,-2.445,-2.4412,-2.4325,-2.429,-2.4322,-2.4398,-2.4356,-2.4379,-2.4417,-2.4479,-2.4465,-2.4457,-2.459,-2.4561,-2.4531,-2.4655,-2.4628,-2.4746,-2.523,-2.4761,-2.4308,-2.4141,-2.3519,-2.2992,-2.2815,-2.2216,-2.1775,-2.1591,-2.0307,-1.9488,-1.9466,-1.8767,-1.8385,-1.8434,-1.8993,-1.9516,-2.0018,-2.0608,-2.0858,-2.0723,-2.0681,-2.0285,-1.9585,-1.9466,-1.9548,-2.3416,-2.3548,-2.3968,-2.3971,-2.5481,-2.7137,0.0,-2.9094,-3.0449,-3.1905,-3.2656,-3.3539,-3.5176,-3.6616,-3.7835,-3.8664,-3.9502,-4.0027,-4.0027,-4.0212,-4.0379,-4.0436,-4.1053,-4.1574,-4.1753,-4.2195,-4.2516,-4.2668,-4.2843,-4.2975,-4.2957,-4.2957,-4.3013,-4.3141,-4.3141,-4.3269,-4.3515,-4.1917,-4.122,-4.1396,-3.9727,-3.8964,-3.9021,-3.8818,-3.7903,-3.6431,-3.479,-3.3947,-3.368,-3.2878,-3.2419,-3.2051,-3.048,-2.9774,-2.9611,-2.9016,-2.826,-2.7469,-2.7354,-2.6806,-2.612,-2.5907,-2.5877,-2.5883,-2.5679,-2.5211,-2.4747,-2.4747,-2.4287,-2.3787,-2.3777,-2.3738,-2.3728,-2.3787,-2.3749,-2.3741,-2.3797,-2.3807,-2.3826,-2.3903,-2.3856,-2.3826,-2.3818,-2.3828,-2.4088,-2.4847,-2.4936,-2.4643,-2.3933,-2.3762,-2.3371,-2.2547,-2.2384,-2.2006,-2.123,-2.0985,-2.0856,-2.0788,-2.052,-2.058,-2.1062,-2.0831,-2.0492,-2.0102,-1.9938,-1.9713,-1.9406,-1.9407,-1.9318,-1.9165,-1.8932,-1.9051,-2.3728,-2.3971,-2.464,-2.5549,-2.7069,-2.8648,-2.9791,-3.0827,-3.2077,-3.3897,-3.4117,-3.4536,-3.643,-3.7275,-3.7907,-3.8664,-3.9387,-3.9884,-3.9961,-3.9657,-3.9462,-3.9519,-3.9515,-3.9963,-4.1173,-4.16,-4.1963,-4.229,-4.2416,-4.2555,-4.2709,-4.2728,-4.2765,-4.2822,-4.2861,-4.292,-4.3032,-4.1977,-4.1263,-4.0871,-3.9688,-3.8901,-3.8476,-3.843,-3.7539,-3.5999,-3.4327,-3.3577,-3.3502,-3.316,-3.2657,-3.1957,-3.0782,-2.9904,-2.923,-2.8689,-2.8237,-2.7841,-2.7652,-2.7299,-2.688,-2.6274,-2.6006,-2.5831,-2.5321,-2.4923,-2.4631,-2.4631,-2.4091,-2.3517,-2.3479,-2.3172,-2.2823,-2.2773,-2.2773,-2.278,-2.2767,-2.2737,-2.2725,-2.2745,-2.2613,-2.2484,-2.2484,-2.2369,-2.2466,-2.2912,-2.3777,-2.4256,-2.396,-2.3884,-2.3441,-2.2402,-2.22,-2.1775,-2.0781,-2.0515,-2.0314,-2.0139,-1.9711,-1.9402,-1.9245,-1.9064,-1.8681,-1.8032,-1.8125,-1.7839,-1.7102,-1.7141,-1.6808,-1.6122,-1.5688,-1.5309,-2.442,-2.4983,-2.5887,-2.7265,-2.8815,-3.0321,-3.1591,-3.2398,-3.3436,-3.5346,-3.5116,-3.5098,-3.6783,-3.7085,-3.7253,-3.8028,-3.8762,-3.9365,-3.9738,-3.9135,-3.8757,-3.8931,-3.8345,-3.8533,-3.9995,-4.062,-4.1098,-4.147,-4.1775,-4.2008,-4.221,-4.221,-4.2249,-4.231,-4.2374,-4.2438,-4.2557,-4.1859,-4.1123,-4.042,-3.9607,-3.8794,-3.7999,-3.7565,-3.6752,-3.553,-3.3942,-3.3211,-3.318,-3.318,-3.2604,-3.1645,-3.0787,-2.9809,-2.877,-2.8056,-2.7829,-2.789,-2.7657,-2.7474,-2.7265,-2.6511,-2.6168,-2.5923,-2.5266,-2.4801,-2.449,-2.4458,-2.3857,-2.3173,-2.2912,-2.2445,-2.1963,-2.1648,-2.1567,-2.1534,-2.1422,-2.1315,-2.1238,-2.1169,-2.0942,-2.0744,-2.0697,-2.0541,-2.0463,-2.0572,-2.1529,-2.2517,-2.3231,-2.3159,-2.2669,-2.1759,-2.1444,-2.0848,-1.9711,-1.9299,-1.8951,-1.8601,-1.7952,-1.735,-1.6773,-1.6403,-1.5796,-1.4922,-1.5014,-1.4658,-1.3836,-1.3888,-1.3406,-1.2411,-1.1831,-1.1016,-2.5451,-2.6757,-2.7891,-2.8739,-3.0584,-3.2395,-3.3152,-3.3914,-3.4839,-3.6279,-3.5883,-3.5435,-3.603,-3.5968,-3.6084,-3.6819,-3.7553,-3.8391,-3.9358,-3.8878,-3.8513,-3.8757,-3.8035,-3.7648,-3.797,-3.9048,-3.9824,-3.9961,-4.0751,-4.1214,-4.1237,-4.1237,-4.1368,-4.1626,-4.1626,-4.1831,-4.2198,-4.141,-4.0742,-4.02,-3.9391,-3.86,-3.7755,-3.6263,-3.5443,-3.513,-3.3507,-3.2732,-3.2605,-3.2605,-3.2111,-3.1236,-3.0219,-2.9288,-2.8379,-2.718,-2.6956,-2.7228,-2.7213,-2.7053,-2.6791,-2.6556,-2.6437,-2.6316,-2.6036,-2.5278,-2.4476,-2.4335,-2.3588,-2.2657,-2.1923,-2.1597,-2.1222,-2.0447,-2.0107,-1.9905,-1.9639,-1.9471,-1.9306,-1.904,-1.8825,-1.8626,-1.8436,-1.8292,-1.8167,-1.8031,-1.8054,-1.8952,-2.1356,-2.1161,-2.0667,-2.0312,-1.9862,-1.9041,-1.7701,-1.7289,-1.6836,-1.6246,-1.551,-1.4953,-1.4606,-1.341,-1.216,-1.0908,-1.0311,-0.9809,-0.9382,-0.9406,-0.9081,-0.8448,-0.7784,-0.6913,-2.6875,-2.864,-3.0362,-3.1613,-3.322,-3.4556,-3.4788,-3.4626,-3.4504,-3.4812,-3.3717,-3.2712,-3.2708,-3.2923,-3.3316,-3.4005,-3.5107,-3.6224,-3.7239,-3.6809,-3.6519,-3.6779,-3.6197,-3.5821,-3.5892,-3.7412,-3.8723,-3.9501,-3.9846,-4.0295,-4.0977,-4.0995,-4.1059,-4.1129,-4.118,-4.1277,-4.1401,-4.1222,-4.0762,-4.0035,-3.8755,-3.7734,-3.6943,-3.5356,-3.4598,-3.4437,-3.279,-3.2039,-3.1985,-3.1985,-3.1515,-3.0664,-2.9713,-2.875,-2.7776,-2.6704,-2.6228,-2.6174,-2.6402,-2.6316,-2.6104,-2.5943,-2.5668,-2.5387,-2.5234,-2.4693,-2.4053,-2.3825,-2.3051,-2.2064,-2.1198,-2.0557,-1.9888,-1.8849,-1.8484,-1.8247,-1.7738,-1.7422,-1.7103,-1.6614,-1.6211,-1.581,-1.539,-1.5057,-1.4763,-1.4487,-1.6314,-1.7959,-1.8658,-1.8302,-1.7723,-1.7081,-1.6446,-1.5604,-1.4473,-1.382,-1.3137,-1.2294,-1.1312,-1.04,-0.9612,-0.8204,-0.6963,-0.5995,-0.5272,-0.472,-0.4351,-0.4182,-0.3723,-0.3035,-0.2337,-0.1381,-2.8799,-3.0693,-3.2391,-3.3659,-3.4875,-3.5671,-3.5194,-3.4482,-3.3722,-3.2912,-3.1373,-3.0004,-2.9378,-2.9627,-3.0242,-3.1133,-3.2635,-3.4234,-3.5744,-3.5631,-3.5596,-3.6231,-3.5642,-3.5225,-3.5325,-3.6323,-3.7436,-3.8507,-3.9039,-3.9604,-4.0245,-4.0303,-4.0303,-4.0353,-4.0476,-4.0556,-4.0635,-4.0813,-4.0342,-3.9272,-3.7693,-3.6573,-3.5797,-3.4479,-3.3694,-3.3308,-3.1961,-3.1357,-3.1285,-3.1049,-3.0502,-2.9679,-2.8733,-2.7738,-2.675,-2.5942,-2.5443,-2.5234,-2.5652,-2.5596,-2.5349,-2.5137,-2.4803,-2.4446,-2.4277,-2.3843,-2.3311,-2.2966,-2.2216,-2.1291,-2.0227,-1.9369,-1.8489,-1.7302,-1.6731,-1.6292,-1.5622,-1.5173,-1.4675,-1.4012,-1.3464,-1.2956,-1.2429,-1.182,-1.1279,-1.091,-1.2474,-1.4081,-1.5162,-1.4761,-1.4032,-1.3092,-1.23,-1.1394,-1.0294,-0.9636,-0.8863,-0.7895,-0.6929,-0.5896,-0.4814,-0.3384,-0.2237,-0.1398,-0.0565,0.0027,0.035,0.067,0.1203,0.1947,0.264,0.3502,-3.1091,-3.284,-3.4034,-3.4871,-3.5583,-3.5754,-3.4459,-3.3522,-3.2419,-3.068,-2.8968,-2.742,-2.6149,-2.633,-2.7092,-2.8373,-3.0254,-3.2413,-3.4905,-3.5208,-3.5661,-3.692,-3.6245,-3.5746,-3.6013,-3.5833,-3.6072,-3.6973,-3.8315,-3.9102,-3.9179,-3.9179,-3.9232,-3.9382,-3.9556,-3.9747,-3.9927,-4.0095,-3.9399,-3.7855,-3.6338,-3.5194,-3.4421,-3.3601,-3.2732,-3.1805,-3.1065,-3.0645,-3.0493,-2.9869,-2.9137,-2.8336,-2.7372,-2.6352,-2.5389,-2.4918,-2.4563,-2.441,-2.4875,-2.4831,-2.4466,-2.4142,-2.3849,-2.3571,-2.3223,-2.2793,-2.2314,-2.1758,-2.1118,-2.03,-1.9008,-1.8044,-1.7075,-1.5784,-1.4873,-1.4102,-1.3321,-1.2733,-1.2102,-1.1287,-1.0672,-1.0111,-0.9559,-0.8624,-0.7814,-0.733,-0.6807,-0.7653,-1.0982,-1.0665,-0.9685,-0.855,-0.7632,-0.6597,-0.531,-0.4823,-0.4148,-0.312,-0.2441,-0.1538,-0.0353,0.0898,0.1971,0.2811,0.3675,0.4294,0.4615,0.5038,0.5597,0.6352,0.6939,0.7661,-3.2436,-3.4308,-3.5849,-3.6122,-3.6025,-3.5522,-3.419,-3.2092,-2.9941,-2.8309,-2.6469,-2.4839,-2.3702,-2.4244,-2.5266,-2.6489,-2.8385,-3.0481,-3.2712,-3.3506,-3.4221,-3.5136,-3.513,-3.5049,-3.5118,-3.5577,-3.5949,-3.6191,-3.7157,-3.8063,-3.8865,-3.8898,-3.8925,-3.8952,-3.8996,-3.9034,-3.9115,-3.8606,-3.7649,-3.6208,-3.5802,-3.4934,-3.366,-3.2751,-3.1915,-3.1095,-3.0211,-2.981,-2.9772,-2.9594,-2.8742,-2.7492,-2.7088,-2.5941,-2.448,-2.4122,-2.3721,-2.3318,-2.3106,-2.334,-2.3651,-2.3267,-2.298,-2.2725,-2.2225,-2.1748,-2.121,-2.0419,-1.9723,-1.8865,-1.7343,-1.6621,-1.5871,-1.4139,-1.3341,-1.2676,-1.1516,-1.0789,-1.0048,-0.9113,-0.7945,-0.6935,-0.6236,-0.5456,-0.4718,-0.4158,-0.3564,-0.4244,-0.7089,-0.681,-0.5951,-0.4812,-0.3756,-0.2609,-0.1212,-0.0512,0.0324,0.1382,0.2116,0.2855,0.3628,0.4673,0.5447,0.5869,0.6647,0.7227,0.7606,0.8098,0.8728,0.9464,1.0025,1.0614,-3.3671,-3.515,-3.6208,-3.6066,-3.5619,-3.4746,-3.2941,-3.0629,-2.8316,-2.6405,-2.46,-2.3019,-2.1896,-2.2555,-2.3661,-2.4849,-2.6928,-2.9225,-3.1548,-3.2786,-3.3802,-3.4821,-3.4958,-3.4958,-3.4927,-3.5247,-3.5491,-3.5538,-3.6476,-3.7336,-3.7937,-3.7969,-3.7969,-3.7969,-3.81,-3.804,-3.7745,-3.6527,-3.546,-3.4638,-3.4202,-3.3232,-3.1865,-3.1311,-3.0486,-2.947,-2.8944,-2.8709,-2.8678,-2.8365,-2.7735,-2.6898,-2.6072,-2.5043,-2.3924,-2.3187,-2.2614,-2.2146,-2.1629,-2.1615,-2.1815,-2.1899,-2.1771,-2.1486,-2.1013,-2.0533,-1.9978,-1.9115,-1.8282,-1.7307,-1.5852,-1.4907,-1.4006,-1.2604,-1.1726,-1.0958,-0.9989,-0.9159,-0.8187,-0.6796,-0.5559,-0.4517,-0.3688,-0.2891,-0.2174,-0.1555,-0.0944,-0.0995,-0.2253,-0.2638,-0.2346,-0.1173,-0.0191,0.0957,0.2353,0.3063,0.3827,0.4761,0.5389,0.5936,0.6401,0.7281,0.785,0.8035,0.8855,0.9445,0.9798,1.0452,1.1098,1.1738,1.2229,1.2754,-3.4698,-3.5605,-3.5815,-3.5213,-3.4604,-3.3503,-3.0962,-2.8928,-2.6934,-2.4765,-2.3153,-2.1824,-2.0689,-2.1378,-2.2439,-2.3474,-2.5781,-2.8297,-3.081,-3.2363,-3.3704,-3.4954,-3.5062,-3.4975,-3.4912,-3.4828,-3.4795,-3.4879,-3.5867,-3.6508,-3.6677,-3.6707,-3.6661,-3.6583,-3.6856,-3.6629,-3.5841,-3.4206,-3.3272,-3.3038,-3.2042,-3.092,-2.9713,-2.9595,-2.8835,-2.756,-2.7535,-2.751,-2.749,-2.6782,-2.6465,-2.6262,-2.4717,-2.3853,-2.3331,-2.2098,-2.1352,-2.0868,-2.0345,-1.9863,-1.9593,-2.0333,-2.0395,-2.0118,-1.9683,-1.9228,-1.8676,-1.7763,-1.6785,-1.5707,-1.4425,-1.3156,-1.1996,-1.1108,-1.0168,-0.9279,-0.8569,-0.761,-0.6327,-0.4585,-0.3521,-0.2614,-0.1657,-0.0852,-0.0087,0.0621,0.1204,0.176,0.2425,0.1277,0.0859,0.2026,0.2911,0.396,0.5276,0.5901,0.6543,0.7292,0.777,0.8146,0.8416,0.911,0.9566,0.9714,1.0585,1.1191,1.1466,1.2258,1.2899,1.3447,1.3862,1.4377,-3.5147,-3.589,-3.5967,-3.4249,-3.3072,-3.153,-2.8465,-2.643,-2.4736,-2.3124,-2.2037,-2.1198,-2.061,-2.1378,-2.2252,-2.2724,-2.4954,-2.7246,-2.9086,-3.0807,-3.229,-3.3441,-3.3835,-3.4036,-3.4022,-3.3988,-3.3919,-3.3782,-3.3959,-3.4566,-3.561,-3.5642,-3.5433,-3.4921,-3.4969,-3.4333,-3.2945,-3.2512,-3.1901,-3.1146,-3.0206,-2.9389,-2.8729,-2.7997,-2.7399,-2.686,-2.657,-2.6558,-2.6666,-2.6138,-2.5544,-2.485,-2.3628,-2.2643,-2.1764,-2.0653,-1.9991,-1.9555,-1.9151,-1.8478,-1.7993,-1.9046,-1.9282,-1.9034,-1.8409,-1.7977,-1.7473,-1.6299,-1.5313,-1.4239,-1.2791,-1.1813,-1.0918,-0.9688,-0.9059,-0.8431,-0.724,-0.5697,-0.4221,-0.3068,-0.2055,-0.1072,-0.0153,0.0627,0.1436,0.2329,0.2645,0.31,0.3987,0.3199,0.2945,0.3914,0.4659,0.5588,0.6816,0.7519,0.8231,0.9098,0.9533,0.9902,1.0174,1.077,1.115,1.1309,1.1956,1.2463,1.2861,1.3542,1.4131,1.4617,1.5186,1.572,-3.5308,-3.5747,-3.5518,-3.3573,-3.2287,-3.067,-2.7543,-2.5552,-2.3935,-2.2535,-2.1665,-2.1038,-2.0677,-2.1119,-2.1758,-2.2473,-2.4264,-2.6236,-2.8108,-2.9692,-3.0956,-3.1736,-3.2121,-3.2191,-3.1997,-3.1997,-3.1924,-3.1852,-3.1715,-3.2338,-3.3998,-3.3845,-3.3448,-3.2958,-3.2495,-3.1876,-3.1053,-3.0259,-2.9526,-2.8829,-2.7929,-2.7176,-2.6489,-2.5907,-2.5383,-2.4939,-2.4827,-2.4812,-2.4825,-2.4585,-2.4171,-2.3531,-2.2242,-2.1319,-2.0556,-1.9209,-1.8389,-1.7904,-1.7583,-1.6907,-1.6278,-1.6746,-1.7147,-1.7352,-1.6834,-1.6412,-1.5889,-1.4885,-1.3763,-1.2601,-1.1286,-1.0242,-0.9305,-0.8429,-0.77,-0.6876,-0.5646,-0.4296,-0.2985,-0.1833,-0.0675,0.0416,0.1386,0.2113,0.2877,0.3759,0.4145,0.4629,0.5443,0.551,0.5462,0.5399,0.6005,0.687,0.7978,0.8764,0.9503,1.0241,1.077,1.1175,1.136,1.19,1.2246,1.2369,1.3006,1.3532,1.398,1.4629,1.522,1.5754,1.629,1.6811,-3.5128,-3.5362,-3.4833,-3.2901,-3.1548,-2.9867,-2.6793,-2.4905,-2.3442,-2.2107,-2.1373,-2.0909,-2.0677,-2.0806,-2.1209,-2.1967,-2.3338,-2.4923,-2.6624,-2.8118,-2.9253,-2.9852,-3.0194,-3.0302,-3.0063,-3.0025,-2.9986,-2.9923,-2.9426,-3.001,-3.1946,-3.1555,-3.1055,-3.0591,-2.991,-2.9444,-2.9157,-2.7994,-2.7061,-2.6417,-2.5519,-2.4707,-2.3976,-2.3504,-2.3139,-2.2827,-2.2845,-2.2845,-2.2797,-2.2603,-2.2366,-2.2,-2.0529,-1.9727,-1.921,-1.7616,-1.668,-1.6154,-1.5842,-1.5197,-1.4446,-1.4316,-1.4885,-1.5564,-1.5216,-1.4768,-1.4207,-1.3369,-1.2219,-1.1006,-0.9857,-0.8796,-0.7847,-0.7228,-0.6268,-0.5173,-0.4181,-0.3011,-0.1808,-0.0603,0.067,0.1861,0.2857,0.3574,0.4261,0.5115,0.5586,0.6134,0.6887,0.7621,0.7826,0.7246,0.7525,0.8065,0.8935,0.9755,1.0474,1.1133,1.1785,1.223,1.2461,1.2895,1.3198,1.3365,1.4003,1.456,1.5005,1.561,1.6201,1.6748,1.7263,1.7814,-3.4399,-3.4593,-3.4129,-3.2108,-3.0437,-2.8427,-2.517,-2.3635,-2.2546,-2.119,-2.076,-2.0597,-2.0461,-2.0632,-2.0726,-2.0475,-2.1708,-2.2918,-2.3465,-2.5119,-2.6647,-2.7659,-2.8395,-2.8874,-2.9102,-2.9112,-2.8956,-2.8615,-2.7475,-2.7541,-2.9186,-2.8799,-2.826,-2.7602,-2.7503,-2.7145,-2.6483,-2.5961,-2.5251,-2.4275,-2.3028,-2.2184,-2.167,-2.0781,-2.0683,-2.1197,-2.0882,-2.0946,-2.1155,-2.0351,-1.9997,-1.9813,-1.8187,-1.7503,-1.7267,-1.5733,-1.4925,-1.4543,-1.4091,-1.3296,-1.2456,-1.2311,-1.3094,-1.4031,-1.3562,-1.308,-1.2503,-1.1533,-1.0589,-0.9635,-0.8468,-0.7739,-0.7036,-0.6013,-0.4878,-0.3777,-0.3011,-0.1606,-0.0201,0.0905,0.2143,0.3311,0.4262,0.4884,0.5557,0.655,0.6906,0.7403,0.8381,0.8943,0.9533,1.0286,0.9625,0.9282,0.9681,1.044,1.1241,1.2021,1.2594,1.3112,1.3627,1.399,1.4294,1.4537,1.5141,1.5632,1.5971,1.6578,1.7084,1.7504,1.8165,1.8703,-3.3515,-3.3888,-3.3499,-3.1899,-3.0165,-2.8021,-2.4748,-2.3185,-2.2074,-2.0774,-2.0376,-2.0273,-2.0168,-1.9954,-1.9805,-1.9888,0.0,-2.137,-2.1942,-2.3324,-2.4526,-2.5137,-2.551,-2.5839,-2.6256,-2.6071,-2.5736,-2.5317,-2.4538,-2.414,-2.4254,-2.5278,-2.5546,-2.4799,-2.4775,-2.4549,-2.3992,-2.3336,-2.2623,-2.1768,-2.0583,-1.982,-1.9397,-1.8822,-1.8708,-1.893,-1.894,-1.8907,-1.8798,-1.8475,-1.7962,-1.7359,-1.6118,-1.5402,-1.4934,-1.3616,-1.2907,-1.2531,-1.2205,-1.1549,-1.084,-1.0669,-1.0624,-1.0798,-1.1518,-1.1301,-1.0701,-1.0091,-0.9131,-0.8135,-0.7414,-0.6437,-0.5382,-0.4381,-0.3376,-0.2407,-0.1472,0.0,0.1438,0.2441,0.3706,0.4968,0.5994,0.6683,0.7433,0.8444,0.8918,0.9463,1.0292,1.1076,1.1774,1.2302,1.1138,1.0582,1.1264,1.1774,1.238,1.3048,1.3771,1.4331,1.4755,1.5152,1.5465,1.5652,1.6179,1.6672,1.7107,1.7612,1.8086,1.8574,1.9084,1.9507,-3.1926,-3.2497,-3.2302,-3.0957,-2.9214,-2.7103,-2.4217,-2.2676,-2.1532,-2.0446,-2.008,-1.9957,-1.9884,-1.9398,-1.9075,0.0,0.0,-2.0067,-2.0514,-2.1658,-2.2591,-2.2948,-2.3161,-2.344,-2.3786,-2.3392,-2.2906,-2.2393,-2.1901,-2.1264,-2.0379,-2.1683,-2.2414,-2.2334,-2.2248,-2.2035,-2.1674,-2.0991,-2.0152,-1.9232,-1.8239,-1.7455,-1.6866,-1.6508,-1.6383,-1.6444,-1.6538,-1.6426,-1.6183,-1.6009,-1.552,-1.4784,-1.3904,-1.3324,-1.2791,-1.1736,-1.1083,-1.0634,-1.0181,-0.9577,-0.8945,-0.8671,-0.8093,-0.7673,-0.8655,-0.8852,-0.8703,-0.8329,-0.7391,-0.6384,-0.5943,-0.4918,-0.372,-0.2845,-0.1839,-0.0802,0.0334,0.1803,0.3203,0.4232,0.5424,0.6645,0.7752,0.849,0.9279,1.0292,1.092,1.1565,1.2273,1.3132,1.3865,1.4317,1.3396,1.2838,1.3096,1.3387,1.3841,1.4457,1.5017,1.5497,1.5881,1.6489,1.6901,1.711,1.7792,1.8365,1.8859,1.9025,1.9361,1.9859,2.0021,2.0311,-2.9422,-3.0126,-3.0238,-2.8951,-2.7215,-2.5296,-2.3269,-2.187,-2.081,-2.0142,-1.9848,-1.9657,-1.953,-1.9109,-1.8707,-1.8378,0.0,0.0,-1.8833,-1.9913,-2.0861,-2.1285,-2.1783,-2.2144,-2.2232,-2.1663,-2.1066,-2.0386,-1.9911,-1.9241,-1.8367,-1.8158,-1.8749,-2.0197,-2.0051,-1.9773,-1.943,-1.9041,-1.8135,-1.6738,-1.5993,-1.5065,-1.4047,-1.3622,-1.3542,-1.3744,-1.352,-1.3433,-1.3411,-1.2809,-1.2444,-1.2161,-1.1416,-1.1135,-1.1037,-1.0153,-0.9493,-0.892,-0.8017,-0.7261,-0.6547,-0.6085,-0.5559,-0.5067,-0.4695,-0.5519,-0.6519,-0.6067,-0.5147,-0.4253,-0.3923,-0.3119,-0.2246,-0.1505,-0.0234,0.1135,0.2401,0.3765,0.5124,0.6335,0.7293,0.827,0.9482,1.0229,1.1006,1.2028,1.2738,1.3451,1.4257,1.4905,1.5621,1.6578,1.6769,1.6365,1.5184,1.5247,1.5645,1.6325,1.633,1.654,1.7066,1.7972,1.8661,1.9052,2.0172,2.0956,2.1366,2.0955,2.0975,2.1375,2.0977,2.1071,-2.7363,-2.8055,-2.8319,-2.744,-2.6102,-2.4477,-2.2504,-2.1398,-2.0587,-1.9872,-1.956,-1.9343,-1.9068,-1.8597,-1.8094,-1.768,-1.7963,0.0,-1.7567,-1.8603,-1.9351,-1.9264,-1.9796,-2.0025,-1.958,-1.93,-1.8718,-1.7669,-1.7301,-1.6773,-1.5902,-1.564,-1.6298,-1.794,-1.7789,-1.7355,-1.6789,-1.6218,-1.5437,-1.444,-1.3837,-1.3162,-1.2405,-1.2007,-1.181,-1.1717,-1.1323,-1.0984,-1.0718,-1.0379,-0.99,-0.9285,-0.8883,-0.8567,-0.8277,-0.7557,-0.7032,-0.6588,-0.6006,-0.5443,-0.4932,-0.4433,-0.39,-0.3301,-0.2534,-0.34,-0.4436,-0.3538,-0.3006,-0.2485,-0.1679,-0.1068,-0.0311,0.0878,0.2216,0.3548,0.4882,0.6448,0.7893,0.8865,0.9844,1.0833,1.1985,1.263,1.3318,1.42,1.4876,1.5553,1.6239,1.6925,1.7588,1.827,1.8827,1.8627,1.7326,1.746,1.7844,1.8483,1.8963,1.9412,1.982,2.0335,2.07,2.0862,2.1455,2.1907,2.2216,2.2366,2.2408,2.2329,2.1759,2.1601,-2.5185,-2.5802,-2.6015,-2.534,-2.432,-2.311,-2.1665,-2.0774,-2.0135,-1.9627,-1.9335,-1.9078,-1.8745,-1.8206,-1.7666,-1.725,-1.7458,-1.746,-1.6898,-1.7818,-1.8427,-1.8118,-1.8304,-1.8129,-1.7399,-1.6988,-1.6382,-1.5375,-1.5099,-1.4718,-1.4077,-1.3789,-1.4062,-1.4969,-1.5315,-1.5217,-1.4531,-1.3968,-1.3257,-1.2395,-1.1714,-1.0958,-1.0205,-0.9718,-0.9331,-0.9057,-0.8666,-0.8326,0.0,-0.7715,-0.7263,-0.6763,-0.6667,-0.6432,-0.611,-0.554,-0.5026,-0.45,-0.3786,-0.3245,-0.2771,-0.2171,-0.1502,-0.0733,0.0033,-0.0867,-0.2009,-0.1082,-0.0644,-0.0239,0.0701,0.1377,0.2124,0.3516,0.4846,0.6192,0.7583,0.9184,1.0601,1.158,1.2548,1.3604,1.4729,1.5392,1.6078,1.6892,1.7337,1.779,1.8398,1.8854,1.9349,1.9953,2.0606,2.0755,2.0138,1.9771,1.9845,2.0432,2.0809,2.116,2.1511,2.2023,2.2361,2.2482,2.3091,2.3535,2.3761,2.39,2.3736,2.332,2.2902,2.2551,0.0,-2.3437,-2.3504,-2.2832,-2.2134,-2.1455,-2.0778,-2.0076,0.0,-1.9409,-1.9149,-1.8846,-1.8495,-1.7888,-1.7318,-1.6951,-1.7094,-1.7058,-1.6637,-1.7322,-1.7813,-1.7623,-1.7128,-1.646,-1.5617,-1.4733,-1.3986,-1.3487,-1.3165,-1.2899,-1.2644,-1.2254,-1.1858,-1.1357,-1.2584,-1.3015,-1.256,-1.2152,-1.1474,-1.0522,-0.9535,-0.8552,-0.7604,-0.6915,-0.6377,-0.5992,-0.5755,-0.5523,-0.5295,-0.491,-0.4598,-0.4441,-0.4598,-0.4559,-0.4351,-0.3953,-0.3339,-0.2567,-0.148,-0.0755,-0.0201,0.0502,0.1473,0.2445,0.2945,0.1942,0.0709,0.1383,0.1845,0.2381,0.3271,0.4087,0.5021,0.6371,0.7676,0.9018,1.0485,1.194,1.3314,1.4369,1.5396,1.6437,1.7636,1.8356,1.9074,1.9849,1.9937,2.0121,2.0686,2.0719,2.0942,2.1554,2.2086,2.2637,2.326,2.2148,2.1657,2.2258,2.2084,2.2121,2.2454,2.325,2.3767,2.3951,2.4951,2.5554,2.5756,2.5392,2.4896,2.4294,2.4227,2.373,-2.1408,0.0,-2.2238,-2.1461,-2.1006,-2.0608,0.0,-1.9605,-1.9317,-1.913,-1.8755,-1.8319,-1.7841,-1.7276,-1.6667,-1.6042,-1.6185,-1.6112,-1.536,-1.5586,-1.5956,-1.6409,-1.5551,-1.4656,-1.3926,-1.2875,-1.1846,-1.0869,-1.0151,-0.9592,-0.9206,-0.8892,-0.8515,-0.8047,-0.8315,-0.9028,-1.0206,-0.9586,-0.8856,-0.7973,-0.7279,-0.6555,-0.587,-0.5098,-0.4482,-0.4018,-0.3513,-0.3005,-0.2536,-0.2264,-0.1914,-0.1563,-0.1602,-0.1602,-0.1523,-0.1126,-0.061,-0.0074,0.0544,0.1164,0.1788,0.2654,0.3717,0.4711,0.5151,0.4298,0.3309,0.3885,0.4472,0.5098,0.607,0.6941,0.7911,0.9348,1.0725,1.2065,1.3295,1.4765,1.6145,1.723,1.8086,1.8964,2.0014,2.0491,2.0948,2.1534,2.1842,2.2062,2.2177,2.2473,2.2691,2.2799,2.3143,2.3614,2.422,2.376,2.3612,2.4065,2.4363,2.4627,2.4885,2.5174,2.5382,2.5475,2.5893,2.6189,2.6382,2.5732,2.5345,2.5194,2.4509,2.3698,-2.0629,-2.0813,-2.0995,-2.0466,-2.0173,-1.9882,-1.9468,-1.9157,-1.8912,-1.8673,-1.822,-1.7693,-1.7214,-1.6612,-1.6037,-1.5533,-1.5477,-1.5304,-1.4735,-1.4769,-1.4757,-1.4554,-1.3624,-1.2609,-1.1645,-1.0543,-0.9541,-0.8615,-0.8022,-0.7552,-0.721,-0.6778,-0.6414,-0.6174,-0.5589,-0.6143,-0.7909,-0.7381,-0.6793,-0.614,-0.5209,-0.4474,-0.3859,-0.2926,-0.2331,-0.2002,-0.1363,-0.0894,-0.0616,-0.0272,0.0039,0.0274,0.0117,0.0235,0.047,0.0861,0.1386,0.1993,0.2742,0.3619,0.448,0.5274,0.6165,0.7073,0.772,0.7702,0.7351,0.6945,0.7335,0.8131,0.9353,1.0271,1.1232,1.2712,1.3965,1.5173,1.6388,1.7759,1.8977,1.9878,2.0745,2.162,2.2477,2.2954,2.3414,2.3947,2.4127,2.4275,2.4494,2.4637,2.4664,2.4508,2.4771,2.5017,2.5134,2.5102,2.5082,2.5118,2.5368,2.561,2.5791,2.5952,2.6115,2.6277,2.6382,2.6503,2.6589,2.6202,2.5967,2.5849,2.5296,2.4513,-2.0294,-2.0085,-1.9942,-1.978,-1.9523,-1.9246,-1.9026,0.0,0.0,-1.8055,-1.751,-1.6967,-1.6548,-1.5903,-1.5337,-1.5035,-1.4625,-1.4298,-1.4145,-1.3986,-1.3477,-1.2418,-1.1453,-1.0405,-0.9199,-0.8106,-0.7207,-0.6547,-0.6115,-0.5815,-0.552,-0.4963,-0.4583,-0.4541,-0.3473,-0.3665,-0.5209,-0.506,-0.4792,-0.4365,-0.32,-0.2344,-0.172,-0.0744,-0.0194,0.0038,0.0619,0.0926,0.1026,0.147,0.1718,0.1801,0.1565,0.1761,0.2231,0.2618,0.3237,0.4006,0.5118,0.6306,0.738,0.7981,0.8704,0.9497,1.0425,1.1246,1.1686,1.0587,1.0587,1.1211,1.2704,1.3654,1.46,1.6094,1.7156,1.8141,1.9348,2.0563,2.1592,2.225,2.3161,2.4053,2.4712,2.5315,2.5877,2.6385,2.6393,2.6461,2.6825,2.6734,2.6555,2.6306,2.6471,2.6438,2.6063,2.615,2.6064,2.5735,2.5791,2.5883,2.599,2.6185,2.638,2.6606,2.6623,2.6606,2.6589,2.6572,2.6452,2.6242,2.6028,2.5381,-2.0204,-1.9836,-1.9497,-1.9468,-1.9176,-1.8803,-1.8481,0.0,0.0,-1.7256,-1.6617,-1.5969,-1.5509,-1.5012,-1.4444,-1.3716,-1.2884,-1.232,-1.2296,-1.1633,-1.0931,-1.0407,-0.9296,-0.8249,-0.7394,-0.6258,-0.5349,-0.4682,-0.3782,-0.3011,-0.244,-0.1872,-0.1416,-0.1062,-0.0862,-0.0743,-0.0703,-0.1718,-0.1992,-0.1526,-0.0822,-0.0235,0.0196,0.0744,0.1291,0.1792,0.1953,0.2532,0.3307,0.3251,0.3611,0.4181,0.4142,0.4373,0.48,0.5184,0.571,0.6474,0.7866,0.8837,0.9522,1.0146,1.0953,1.1842,1.2674,1.3552,1.447,1.5357,1.4649,1.3922,1.5268,1.6379,1.7437,1.8594,1.9749,2.0782,2.1432,2.2378,2.3285,2.3913,2.47,2.5508,2.624,2.6715,2.7155,2.7575,2.7733,2.7752,2.7727,2.7736,2.7735,2.7636,2.7189,2.7005,2.7153,2.6626,2.626,2.6207,2.6312,2.6399,2.6486,2.652,2.6572,2.6691,2.6691,2.6657,2.6589,2.6487,2.6278,2.5954,2.577,2.4995,-1.9573,-1.9155,-1.8779,-1.8461,-1.8364,-1.8266,-1.7854,0.0,0.0,-1.633,-1.5608,-1.488,-1.4423,-1.3862,-1.3157,-1.227,-1.1534,-1.0875,-1.026,-0.95,-0.8679,-0.7829,-0.6652,-0.5508,-0.4616,-0.3662,-0.2847,-0.2179,-0.1608,-0.1125,-0.0765,-0.0303,0.0038,0.0226,0.0725,0.1075,0.1267,0.1302,0.0886,0.0078,0.0823,0.1293,0.1488,0.2277,0.2781,0.3049,0.353,0.4024,0.4462,0.4715,0.5113,0.5547,0.5736,0.6224,0.6873,0.7859,0.8609,0.9273,1.0361,1.1255,1.2071,1.274,1.3599,1.452,1.5394,1.6289,1.7271,1.8458,1.761,1.6613,1.8018,1.9088,2.0082,2.1233,2.2122,2.2902,2.3566,2.4556,2.5458,2.6064,2.6711,2.7384,2.7998,2.8141,2.8312,2.874,2.8927,2.9053,2.9172,2.9286,2.9223,2.891,2.8699,2.8298,2.7661,2.7311,2.6871,2.6329,2.6329,2.638,2.6434,2.6434,2.6486,2.6589,2.6589,2.652,2.638,2.6206,2.5954,2.5565,2.5301,2.476,-1.8817,-1.8347,-1.7874,-1.7271,-1.7407,-1.7551,0.0,0.0,-1.5742,-1.5276,-1.4458,-1.3666,-1.3168,-1.2379,-1.1507,-1.0553,-0.991,-0.9127,-0.7928,-0.7187,-0.6315,-0.509,-0.3966,-0.2914,-0.2013,-0.1239,-0.0576,-0.0037,0.0262,0.0556,0.0836,0.127,0.1524,0.1632,0.2368,0.2804,0.2842,0.3697,0.3289,0.1591,0.2393,0.2811,0.2886,0.3768,0.4213,0.4321,0.4971,0.5345,0.5535,0.6045,0.6489,0.6867,0.7341,0.8091,0.911,1.0418,1.1304,1.1961,1.2765,1.3627,1.4557,1.5335,1.6165,1.7036,1.7986,1.8854,1.9738,2.0787,2.0307,1.9695,2.0615,2.1467,2.2366,2.35,2.4126,2.4684,2.5356,2.6356,2.7293,2.7852,2.8502,2.9123,2.9494,2.9493,2.9494,2.9738,2.9881,3.007,3.0351,3.0472,3.0397,3.0051,2.9931,2.9336,2.7908,2.7637,2.7178,2.6398,2.624,2.6221,2.6277,2.6277,2.6329,2.6451,2.6451,2.6346,2.615,2.5934,2.5602,2.5182,2.4871,2.4528,-1.8086,-1.745,-1.6773,-1.6164,-1.6361,0.0,-1.6017,-1.5253,-1.4503,-1.4027,-1.3082,-1.2184,-1.1657,-1.0397,-0.9185,-0.8431,-0.7548,-0.6508,-0.519,-0.4428,-0.3544,-0.2338,-0.156,-0.0891,-0.0341,0.0303,0.0786,0.1168,0.1641,0.2258,0.3014,0.3557,0.4027,0.4385,0.464,0.4898,0.5081,0.5156,0.4635,0.3588,0.424,0.4631,0.4815,0.509,0.5512,0.6001,0.5961,0.6321,0.6955,0.7264,0.7906,0.8785,0.942,1.0522,1.1816,1.2611,1.3397,1.4188,1.5132,1.5948,1.672,1.7634,1.8328,1.8982,1.9998,2.0767,2.1522,2.2542,2.3191,2.3445,2.2935,2.3318,2.4037,2.4881,2.5522,2.6042,2.6351,2.7283,2.8231,2.8647,2.9664,3.0454,3.0426,3.07,3.0794,3.0323,3.0368,3.0489,3.0651,3.0671,3.0736,3.0888,3.0308,2.9336,2.7908,2.7129,2.6639,2.6485,2.631,2.6203,2.6203,2.6203,2.624,2.6313,2.6313,2.6207,2.6026,2.5754,2.5359,2.4815,2.4625,2.4276,-1.6844,-1.613,-1.5373,-1.4608,-1.4311,0.0,0.0,-1.4419,-1.3611,-1.3112,-1.206,-1.0832,-0.9361,-0.8266,-0.7274,-0.6277,-0.5277,-0.4237,-0.2992,-0.2197,-0.138,-0.0448,0.0448,0.1227,0.195,0.2646,0.3165,0.3509,0.3855,0.4177,0.4523,0.4862,0.5173,0.5443,0.58,0.6024,0.6093,0.6718,0.6855,0.6459,0.5912,0.5718,0.5893,0.6394,0.6826,0.7268,0.7674,0.8151,0.8643,0.9057,0.9708,1.0612,1.2188,1.3433,1.4375,1.5122,1.5782,1.6478,1.7285,1.8097,1.894,1.9825,2.0555,2.1201,2.201,2.2724,2.3408,2.4168,2.4754,2.505,2.4412,2.4669,2.5273,2.5864,2.6338,2.6712,2.6985,2.7928,2.8953,2.9761,3.0689,3.1398,3.1591,3.1571,3.1355,3.0816,3.0777,3.0855,3.0975,3.1012,3.1012,3.0995,3.0264,2.9389,2.8437,2.7611,2.6937,2.6415,2.6274,2.615,2.6007,2.5936,2.5901,2.5921,2.5921,2.5883,2.5749,2.5435,2.5068,2.4605,2.4317,2.3988,-1.5428,-1.4619,-1.3801,-1.294,0.0,0.0,-1.2786,-1.2706,-1.2307,-1.1641,-1.0374,-0.8823,-0.705,-0.6092,-0.5151,-0.3934,-0.2946,-0.1891,-0.0576,0.0109,0.0834,0.1705,0.2536,0.3249,0.3901,0.4542,0.502,0.5272,0.5525,0.575,0.5939,0.6297,0.6658,0.6939,0.7236,0.747,0.7565,0.8265,0.8663,0.8761,0.802,0.7543,0.7397,0.7981,0.8412,0.8761,0.925,0.9685,1.0117,1.0659,1.1596,1.2821,1.4751,1.5878,1.6471,1.7204,1.7876,1.8462,1.9248,2.0106,2.0948,2.1775,2.2433,2.302,2.3657,2.4281,2.4879,2.5398,2.5892,2.6138,2.5756,2.5851,2.6203,2.6616,2.6959,2.7248,2.7478,2.8404,2.9454,3.032,3.1237,3.1952,3.2124,3.1994,3.1704,3.1153,3.1015,3.1035,3.1131,3.1092,3.0975,3.0855,2.9869,2.9046,2.8562,2.7592,2.6773,2.6205,2.6081,2.5972,2.5844,2.5735,2.568,2.568,2.568,2.564,2.5597,2.5262,2.491,2.4523,2.4234,2.3946,-1.3941,-1.2988,-1.207,-1.119,-1.0359,-0.9668,-0.9256,-0.9938,-1.0424,-0.9528,-0.7806,-0.6065,-0.4803,-0.3851,-0.2794,-0.1409,-0.0486,0.0597,0.2203,0.261,0.3152,0.427,0.4773,0.5116,0.5406,0.5772,0.6048,0.6119,0.6494,0.6915,0.7377,0.8091,0.8731,0.9195,0.9203,0.9376,0.9704,0.9704,0.9886,1.0218,1.0622,1.035,0.952,0.9856,1.0205,1.0514,1.0514,1.0829,1.1358,1.1988,1.3442,1.545,1.6865,1.7624,1.7997,1.876,1.9444,2.0149,2.1012,2.188,2.2725,2.3386,2.3888,2.4326,2.4866,2.5398,2.5864,2.6229,2.6645,2.7003,2.7003,2.687,2.6788,2.7115,2.7397,2.765,2.779,2.8756,2.9704,3.0132,3.1228,3.2027,3.1838,3.1976,3.189,3.1289,3.1075,3.0995,3.0995,3.0814,3.0651,3.051,2.9101,2.8187,2.8187,2.6792,2.5897,2.5897,2.5772,2.5701,2.5701,2.5621,2.5597,2.5597,2.5597,2.5597,2.5597,2.5278,2.4934,2.4609,2.4405,2.4135,-1.1705,-1.0649,-0.9594,-0.8652,-0.8043,-0.7463,-0.6656,-0.7723,-0.8369,-0.6657,-0.5184,-0.3722,-0.2259,-0.1446,-0.0482,0.1013,0.1701,0.2473,0.3694,0.4175,0.4685,0.5498,0.6041,0.6559,0.7169,0.7565,0.7777,0.7854,0.8049,0.8224,0.8389,0.8758,0.9148,0.9543,0.9836,1.0022,1.011,1.0682,1.1227,1.1758,1.2311,1.1858,1.0571,1.0885,1.1329,1.1795,1.2204,1.2763,1.3411,1.4386,1.5448,1.653,1.7656,1.852,1.9212,2.0205,2.0986,2.1692,2.2703,2.345,2.4079,2.4882,2.5315,2.5632,2.6174,2.6441,2.664,2.6971,2.7181,2.7299,2.7412,2.7372,2.7357,2.7473,2.769,2.794,2.8177,2.8761,2.9478,3.0258,3.1138,3.1748,3.1798,3.2043,3.1975,3.1173,3.0992,3.0834,3.0539,3.0246,2.9874,2.9368,2.8723,2.7934,2.6949,2.6441,2.6005,2.5578,2.5511,2.5492,2.5492,2.5413,2.5391,2.5391,2.5448,2.5505,2.5597,2.5508,2.5282,2.4934,2.4735,2.4528,-0.9673,-0.8625,-0.7579,-0.6494,-0.5858,-0.5159,-0.3956,-0.493,-0.5589,-0.3871,-0.2686,-0.1452,0.0127,0.0867,0.1755,0.3253,0.3693,0.4246,0.542,0.5589,0.5918,0.6788,0.7148,0.7542,0.8168,0.8485,0.8707,0.8872,0.8999,0.9158,0.9334,0.969,1.0093,1.0529,1.0791,1.1028,1.1194,1.1797,1.2326,1.2716,1.3559,1.344,1.2557,1.269,1.3006,1.3507,1.4079,1.467,1.5274,1.6385,1.7219,1.7904,1.8965,1.9715,2.0325,2.1215,2.209,2.2956,2.3834,2.4622,2.5398,2.6026,2.6402,2.6695,2.703,2.7185,2.7316,2.764,2.7715,2.774,2.789,2.7915,2.789,2.7715,2.7915,2.8226,2.8462,2.8974,2.9566,3.0248,3.0898,3.1362,3.1462,3.1648,3.1598,3.1043,3.0716,3.0405,2.9946,2.9441,2.8928,2.843,2.7736,2.6984,2.6122,2.5826,2.5572,2.5256,2.5317,2.5375,2.5397,2.541,2.541,2.541,2.5527,2.564,2.5768,2.577,2.5607,2.5343,2.513,2.489,-0.7717,-0.6722,-0.5744,-0.4575,-0.3692,-0.2738,-0.1276,-0.1759,-0.2219,-0.1242,-0.0364,0.0728,0.2315,0.3047,0.3843,0.5199,0.5442,0.5875,0.7067,0.6847,0.6929,0.805,0.8064,0.8198,0.8669,0.8903,0.9124,0.9372,0.9539,0.9807,1.0229,1.0703,1.1229,1.1784,1.1909,1.2192,1.2626,1.2917,1.3157,1.3349,1.4409,1.4979,1.5124,1.4907,1.5031,1.5429,1.6016,1.6518,1.6989,1.8002,1.8775,1.9424,2.0418,2.1005,2.1322,2.1962,2.291,2.3974,2.4537,2.5542,2.6642,2.6927,2.7229,2.7463,2.7595,2.7735,2.789,2.8162,2.821,2.8235,2.8372,2.8396,2.8323,2.7989,2.8186,2.8525,2.8748,2.9355,2.9919,3.0189,3.0589,3.0932,3.0995,3.0995,3.0955,3.0851,3.0305,2.9733,2.9232,2.8487,2.7888,2.75,2.6371,2.5623,2.5581,2.5102,2.4862,2.5005,2.5217,2.5336,2.5435,2.5543,2.5597,2.5616,2.5805,2.5952,2.6026,2.6045,2.5937,2.5738,2.5549,2.5243,-0.5311,-0.4119,-0.295,-0.2009,-0.098,0.0,0.0815,0.1177,0.1223,0.096,0.1561,0.2558,0.3959,0.4615,0.5267,0.6249,0.6497,0.6792,0.7507,0.758,0.786,0.8628,0.8799,0.9055,0.9653,0.9891,1.0016,1.0076,1.0399,1.0586,1.0588,1.1189,1.1636,1.1866,1.2339,1.2713,1.292,1.3286,1.3799,1.4471,1.4821,1.5607,1.6758,1.6102,1.6148,1.681,1.7424,1.7961,1.8478,1.9062,1.9638,2.0194,2.0732,2.1252,2.1781,2.2592,2.3596,2.4665,2.5369,2.6312,2.7284,2.7775,2.789,2.7955,2.8381,2.8332,2.8162,2.8429,2.8356,2.8235,2.8372,2.8438,2.8503,2.8622,2.8811,2.9067,2.9467,2.9886,3.0267,3.0547,3.0794,3.0975,3.0995,3.0995,3.0834,3.0284,2.9766,2.9143,2.8243,2.7697,2.6972,2.5865,2.5474,2.5133,2.4642,2.4642,2.4771,2.5068,2.5262,2.5492,2.577,2.5656,2.5619,2.568,2.5864,2.6043,2.6168,2.6328,2.6292,2.6096,2.5897,2.5659,-0.3566,-0.248,-0.1323,0.0,0.1017,0.1822,0.2512,0.3007,0.333,0.3435,0.3681,0.4281,0.5528,0.6074,0.6614,0.7394,0.7459,0.7632,0.8181,0.8195,0.8395,0.907,0.9192,0.9467,1.0037,1.0255,1.0486,1.0751,1.1039,1.125,1.136,1.1859,1.2246,1.2525,1.3088,1.3471,1.3671,1.4095,1.4529,1.4947,1.5491,1.6542,1.7966,1.7571,1.7715,1.8286,1.8727,1.9228,1.9761,2.0194,2.067,2.1199,2.1527,2.1898,2.2292,2.2874,2.3757,2.4728,2.5553,2.6479,2.7418,2.8094,2.825,2.8266,2.8676,2.8612,2.8477,2.8818,2.8795,2.8677,2.8951,2.9052,2.9152,2.9454,2.9409,2.9409,2.9892,3.0241,3.0555,3.0794,3.0975,3.1092,3.1092,3.0858,3.0472,2.9881,2.9341,2.8661,2.7628,2.6933,2.613,2.5105,2.4804,2.4602,2.4457,2.4715,2.5013,2.532,2.5567,2.5791,2.6026,2.5972,2.5937,2.5994,2.6171,2.6329,2.6398,2.6537,2.652,2.6328,2.6133,2.5899,-0.2127,-0.1078,0.0111,0.1658,0.2526,0.3181,0.3849,0.4233,0.4725,0.5628,0.5563,0.5681,0.6787,0.7247,0.7655,0.8311,0.8221,0.8269,0.8823,0.8661,0.8745,0.9391,0.9517,0.9751,1.03,1.0506,1.0837,1.1402,1.1594,1.1868,1.224,1.2628,1.3006,1.3351,1.3897,1.4305,1.4558,1.496,1.5221,1.53,1.6308,1.7465,1.8657,1.8843,1.9161,1.9631,1.9927,2.0359,2.0883,2.1261,2.1694,2.217,2.244,2.2655,2.2867,2.3083,2.3733,2.4596,2.5386,2.6343,2.7332,2.8042,2.8328,2.8444,2.8732,2.8732,2.8716,2.9167,2.9213,2.9213,2.9592,2.9704,2.9814,3.0146,2.9935,2.9782,3.0231,3.0547,3.0814,3.0995,3.1131,3.119,3.1151,3.0716,3.0182,2.9661,2.9136,2.8365,2.7203,2.6374,2.5599,2.4798,2.4408,2.4307,2.463,2.5017,2.5381,2.5642,2.5901,2.6134,2.6259,2.6313,2.6365,2.6383,2.652,2.6589,2.6589,2.6657,2.6624,2.6502,2.6311,2.6046,-0.0614,0.0933,0.2427,0.2886,0.3631,0.4349,0.4677,0.5199,0.5796,0.6583,0.6279,0.6216,0.7231,0.7558,0.7823,0.8315,0.837,0.8465,0.8778,0.8878,0.912,0.9672,0.9955,1.0326,1.0922,1.1217,1.1519,1.1952,1.2289,1.2574,1.2871,1.3471,1.3884,1.4048,1.464,1.5028,1.5175,1.54,1.5714,1.6069,1.7128,1.7924,1.8447,1.9118,1.9785,2.0446,2.0845,2.131,2.1841,2.2123,2.2434,2.2799,2.2949,2.315,2.3385,2.3444,2.3999,2.4769,2.5031,2.6032,2.7263,2.7605,2.8014,2.8468,2.8779,2.8803,2.8756,2.9175,2.9282,2.9328,2.9614,2.9754,2.9875,3.0204,3.0326,3.0464,3.0733,3.0892,3.0995,3.1151,3.119,3.1151,3.0972,3.0692,3.0262,2.97,2.928,2.8456,2.6814,2.6364,2.5753,2.4495,2.4467,2.4614,2.4839,2.5269,2.5661,2.5919,2.6136,2.6347,2.6537,2.6555,2.6589,2.6641,2.6623,2.6589,2.6589,2.6657,2.6624,2.6502,2.6347,2.6171,0.0619,0.1906,0.3103,0.3664,0.434,0.5008,0.5588,0.6023,0.6507,0.7208,0.7208,0.7262,0.7889,0.8129,0.8309,0.8685,0.8745,0.8824,0.9113,0.9309,0.9614,1.0079,1.0549,1.1015,1.1502,1.1852,1.2215,1.2564,1.2939,1.3324,1.3637,1.4201,1.4605,1.4812,1.5255,1.558,1.5802,1.601,1.6371,1.6867,1.7455,1.8133,1.8871,1.9349,1.9855,2.0401,2.0653,2.1223,2.1967,2.2146,2.2629,2.3253,2.3297,2.3429,2.3581,2.3646,2.3956,2.4425,2.4963,2.5898,2.6895,2.7457,2.8101,2.866,2.8936,2.9013,2.9129,2.9576,2.9754,2.9886,3.0189,3.0279,3.0368,3.0617,3.0736,3.0834,3.1032,3.1015,3.1035,3.1171,3.119,3.1131,3.0932,3.0322,2.9712,2.9243,2.8483,2.7535,2.6285,2.5988,2.5594,2.4728,2.4775,2.5033,2.5419,2.5754,2.6046,2.6312,2.6452,2.6556,2.6657,2.6657,2.6674,2.6691,2.6674,2.6657,2.6657,2.6691,2.664,2.6554,2.6434,2.6295,0.1714,0.2679,0.3488,0.417,0.4796,0.547,0.625,0.6673,0.7084,0.7738,0.8064,0.8329,0.8653,0.8732,0.8844,0.9054,0.9159,0.929,0.9569,0.9855,1.0182,1.0625,1.1167,1.1653,1.2051,1.2446,1.2827,1.317,1.3586,1.3988,1.4408,1.488,1.5243,1.5512,1.5891,1.6188,1.6374,1.6671,1.7052,1.7556,1.7814,1.8376,1.9164,1.9398,1.9715,2.006,2.0414,2.1039,2.1835,2.208,2.264,2.3308,2.3457,2.3581,2.3674,2.376,2.3903,2.4128,2.4844,2.5611,2.6408,2.7286,2.8074,2.8708,2.912,2.9335,2.956,2.9951,3.0167,3.0338,3.063,3.0692,3.0753,3.0955,3.0975,3.1032,3.1171,3.1131,3.1055,3.1131,3.1151,3.1024,3.064,2.9959,2.9266,2.8718,2.7904,2.7045,2.62,2.5982,2.5733,2.5213,2.5266,2.5511,2.5936,2.6136,2.6347,2.6606,2.6657,2.6691,2.6691,2.6691,2.6691,2.6691,2.6691,2.6691,2.6691,2.6691,2.6657,2.6589,2.6503,2.6518,0.2737,0.3425,0.4048,0.4408,0.5083,0.5809,0.6381,0.6991,0.7629,0.8232,0.8765,0.9204,0.9484,0.9335,0.9211,0.9361,0.9588,0.9847,1.012,1.0437,1.0845,1.1377,1.1803,1.2224,1.2627,1.2963,1.3338,1.3716,1.4116,1.4558,1.504,1.5512,1.5866,1.6144,1.6599,1.6854,1.6854,1.7372,1.776,1.7968,1.8378,1.8716,1.9018,1.923,1.9431,1.9683,2.064,2.1237,2.1569,2.2212,2.2578,2.2808,2.337,2.3674,2.3797,2.3797,2.3931,2.4156,2.4446,2.502,2.5815,2.6867,2.7688,2.8392,2.9291,2.9766,3.0006,3.0146,3.0338,3.0526,3.0651,3.0692,3.0753,3.0955,3.0952,3.0952,3.1151,3.119,3.1151,3.1035,3.1015,3.072,2.9819,2.9626,2.9258,2.8277,2.8089,2.7771,2.6953,2.6836,2.6575,2.5926,2.5917,2.601,2.617,2.6313,2.6452,2.6589,2.6657,2.6691,2.6691,2.6691,2.6691,2.6691,2.6691,2.6691,2.6691,2.6691,2.6657,2.6589,2.6589,2.6941,0.2897,0.3691,0.4466,0.4792,0.5529,0.6269,0.6771,0.7412,0.8043,0.8604,0.9263,0.9795,1.0053,0.9829,0.9692,0.9984,1.0113,1.0344,1.0837,1.1167,1.1502,1.1952,1.2403,1.2808,1.3108,1.3563,1.3965,1.4291,1.4731,1.5119,1.5412,1.5866,1.6194,1.6392,1.6757,1.7115,1.7413,1.7848,1.8187,1.8383,1.8745,1.9045,1.9261,1.9428,1.956,1.9683,2.0054,2.0495,2.1004,2.1242,2.1884,2.2718,2.2942,2.3335,2.3818,2.3903,2.4051,2.4281,2.4564,2.5257,2.6077,2.6627,2.7306,2.797,2.8443,2.8637,2.8858,2.9498,2.9871,3.0169,3.0758,3.0955,3.1032,3.0995,3.0975,3.0955,3.0992,3.1052,3.1035,3.0952,3.0589,3.0149,2.9685,2.8903,2.8148,2.7659,2.7212,2.6833,2.6495,2.6444,2.6561,2.6831,2.6884,2.7158,2.7806,2.7476,2.7262,2.7366,2.6962,2.6691,2.6691,2.6691,2.6691,2.6691,2.6691,2.6691,2.6691,2.6691,2.6928,2.7366,2.7366,2.7788,0.3513,0.4214,0.4967,0.5457,0.6131,0.6802,0.7352,0.8024,0.8688,0.917,0.9893,1.0515,1.0727,1.0617,1.0541,1.0684,1.0812,1.1065,1.1569,1.1852,1.2166,1.2632,1.305,1.3447,1.3705,1.4199,1.4593,1.4811,1.5232,1.5591,1.5822,1.6259,1.6646,1.6985,1.7261,1.7632,1.8048,1.8378,1.8644,1.8841,1.912,1.9339,1.9483,1.9578,1.9669,1.9708,1.9708,1.9944,2.0378,2.0598,2.1365,2.2388,2.2613,2.3176,2.3882,2.3982,2.4151,2.44,2.4645,2.5201,2.587,2.6414,2.6936,2.745,2.7838,2.8003,2.8148,2.8801,2.9128,2.9457,3.0023,3.046,3.0723,3.0606,3.0771,3.0915,3.0794,3.0895,3.0955,3.0834,3.0308,2.9722,2.9276,2.8285,2.7437,2.7095,2.6683,2.6418,2.6365,2.6582,2.6951,2.7472,2.7774,2.8181,2.8814,2.8411,2.8041,2.7824,2.7334,2.6962,2.6708,2.6945,2.7063,2.7063,2.7334,2.7469,2.7469,2.7199,2.7317,2.7807,2.8077,2.8619,0.0,0.0,0.0,0.6368,0.6887,0.7424,0.8078,0.8852,0.9534,0.9936,1.0703,1.136,1.1502,1.1753,1.1803,1.1418,1.1669,1.2002,1.2298,1.2486,1.2817,1.3362,1.3789,1.4118,1.4396,1.4857,1.5176,1.5311,1.5625,1.5957,1.629,1.6714,1.7261,1.7968,1.8115,1.8406,1.8803,1.8941,1.9111,1.9321,1.952,1.9593,1.9611,1.9672,1.9708,1.9708,1.9708,1.9708,1.9753,2.0408,2.1081,2.1739,2.2418,2.3209,2.3973,2.4003,2.4193,2.4498,2.4569,2.4786,2.5156,2.6158,2.6561,2.6808,2.759,2.7918,2.8017,2.8053,2.819,2.8365,2.846,2.9183,2.9816,2.9699,3.0269,3.0764,3.0502,3.0707,3.0885,3.0733,3.0209,2.9474,2.8564,2.7896,2.7254,2.6603,2.6623,2.6691,2.6691,2.7334,2.7807,2.7841,2.8552,2.9044,2.9061,2.9044,2.8687,2.7925,2.7858,2.7503,2.6793,2.7452,2.7841,2.7841,2.8602,2.8993,2.8993,2.823,2.7858,2.7891,2.8687,2.9467,0.6026,0.0,0.0,0.0,0.0,0.0,0.8871,0.9322,0.9895,1.0578,1.1075,1.151,1.1996,1.2382,1.2593,1.253,1.2427,1.2471,1.289,1.318,1.3491,1.3941,1.4374,1.4766,1.5017,1.5401,1.5669,1.579,1.6132,1.638,1.6582,1.706,1.7591,1.8129,1.8234,1.8489,1.8941,1.913,1.9317,1.952,1.9614,1.9672,1.9672,1.969,1.9708,1.9708,1.9708,1.9708,1.9708,1.9884,2.0363,2.1051,2.171,2.2455,2.3196,2.3679,2.4009,2.424,2.4462,2.4666,2.4962,2.5506,2.5667,2.5683,2.6121,2.6131,2.6115,2.6647,2.6987,2.7355,2.821,2.8646,2.8891,2.8963,2.9149,2.9281,2.9148,2.9264,2.966,3.0533,2.9814,2.8969,2.8674,2.7642,2.679,2.6588,2.6657,2.6691,2.6691,2.7334,2.801,2.8602,2.9347,3.0006,3.0548,3.0091,2.9702,2.948,2.8958,2.8569,2.8383,2.8552,2.8671,2.8671,2.8891,2.8993,2.8993,2.879,2.8941,2.948,3.0243,3.07,0.0,0.0,0.8355,0.8549,0.0,0.0,0.9769,1.0219,1.074,1.1255,1.167,1.2042,1.2408,1.2759,1.3017,1.3146,1.3146,1.3252,1.3576,1.3847,1.4186,1.4605,1.4971,1.5288,1.5557,1.5869,1.6088,1.6185,1.65,1.6808,1.7131,1.7646,1.8101,1.8517,1.8644,1.8893,1.9257,1.9372,1.9487,1.9632,1.9672,1.9708,1.9708,1.9708,1.9708,1.9708,1.9708,1.9708,1.9708,1.9708,2.0094,2.0763,2.144,2.2144,2.2877,2.3541,2.3925,2.4094,2.4234,2.44,2.4574,2.4851,2.493,2.4934,2.5088,2.5029,2.5009,2.544,2.5751,2.6163,2.7011,2.7512,2.7838,2.7987,2.8294,2.8584,2.8567,2.8661,2.8967,2.9688,2.9015,2.8303,2.8228,2.731,2.6589,2.6589,2.6657,2.6691,2.6691,2.7638,2.8484,2.8942,2.9939,3.0734,3.1157,3.0818,3.0429,3.0125,2.9702,2.9331,2.901,2.9314,2.9448,2.9448,2.9771,2.9924,2.9924,2.9619,2.9837,3.0581,3.1004,3.1171,0.0,0.0,0.0,0.9695,1.0097,0.0,1.0786,1.1292,1.1774,1.1943,1.2335,1.2667,1.2715,1.2954,1.3186,1.3396,1.3789,1.4118,1.4246,1.4489,1.4834,1.5288,1.5546,1.5768,1.6022,1.6284,1.6457,1.6543,1.6833,1.7261,1.7848,1.8285,1.8683,1.9017,1.9209,1.9395,1.9593,1.9593,1.9632,1.9708,1.9708,1.9708,1.9708,1.9708,1.9708,1.9708,1.9708,1.9708,1.9708,1.9708,2.0049,2.0658,2.141,2.2099,2.2766,2.3525,2.3861,2.3961,2.3982,2.403,2.4099,2.424,2.4359,2.4457,2.4457,2.4457,2.4457,2.4457,2.4634,2.4938,2.54,2.6056,2.6642,2.6869,2.7531,2.8125,2.8203,2.8352,2.8427,2.8392,2.8015,2.7665,2.7541,2.7007,2.6606,2.6606,2.6742,2.6826,2.6826,2.818,2.9128,2.9128,3.0381,3.119,3.119,3.119,3.092,3.026,3.0207,2.9922,2.9264,2.9871,3.0207,3.0207,3.0869,3.119,3.119,3.0548,3.0565,3.119,3.119,3.1112,1.0756,1.0889,1.1081,1.1116,1.1334,0.0,1.1794,1.1795,1.1921,1.2438,1.2407,1.2414,1.2788,1.3031,1.33,1.3668,1.415,1.4512,1.4594,1.4926,1.53,1.5647,1.5925,1.6144,1.6306,1.6525,1.6697,1.6812,1.731,1.7828,1.8344,1.8611,1.8912,1.9228,1.9284,1.9395,1.9593,1.9593,1.9632,1.9708,1.9708,1.9708,1.9708,1.9708,1.9708,1.9708,1.9708,1.9708,1.9708,1.9708,1.9783,2.0022,2.1216,2.1789,2.2049,2.3218,2.3674,2.3696,2.3797,2.3861,2.3888,2.4078,2.4114,2.4109,2.4162,2.4135,2.4109,2.4162,2.4287,2.4492,2.4855,2.5112,2.538,2.5781,2.6064,2.6293,2.6584,2.671,2.6799,2.6957,2.7432,2.7772,2.7754,2.7147,2.6691,2.6691,2.7198,2.7587,2.7587,2.8941,2.9888,2.9888,3.0666,3.119,3.119,3.119,3.114,3.0987,3.0987,3.092,3.0768,3.0903,3.0987,3.0987,3.1123,3.119,3.119,3.1055,3.1055,3.119,3.1092,3.1012,1.2135,1.2104,1.2089,1.2064,1.2166,0.0,0.0,1.2474,1.2612,1.2982,1.2972,1.2977,1.3208,1.3382,1.361,1.3941,1.4419,1.4846,1.5096,1.539,1.5691,1.6044,1.6231,1.634,1.6436,1.6599,1.6854,1.7282,1.7767,1.826,1.8721,1.8969,1.9195,1.9446,1.9487,1.9545,1.965,1.965,1.9669,1.9708,1.9708,1.9708,1.9708,1.9708,1.9708,1.9708,1.9708,1.9708,1.9708,1.9708,1.9708,1.9813,2.0812,2.141,2.1814,2.2793,2.3325,2.3595,2.3674,2.3696,2.3717,2.3809,2.3824,2.3818,2.3846,2.3824,2.3824,2.3909,2.3994,2.4099,2.439,2.4533,2.4699,2.5111,2.5304,2.5513,2.5866,2.6064,2.6225,2.6452,2.6892,2.7214,2.7249,2.6945,2.6826,2.7199,2.7553,2.7942,2.8349,2.9397,3.0108,3.0108,3.0768,3.119,3.119,3.119,3.119,3.119,3.119,3.119,3.119,3.119,3.119,3.119,3.119,3.119,3.119,3.1131,3.1112,3.1112,3.1012,3.0834,1.328,1.3102,1.2923,1.2875,1.2905,1.2949,0.0,0.0,0.0,1.3481,1.361,1.3681,1.3681,1.381,1.3999,1.4246,1.4697,1.5175,1.5613,1.5802,1.6035,1.6371,1.6414,1.6436,1.65,1.6684,1.7065,1.772,1.8127,1.8553,1.9031,1.9298,1.9487,1.9611,1.9672,1.9708,1.9708,1.9708,1.9708,1.9708,1.9708,1.9708,1.9708,1.9708,1.9708,1.9708,1.9708,1.9708,1.9708,1.9708,1.9708,1.9768,2.0438,2.1111,2.1769,2.2448,2.3092,2.3595,2.3595,2.3595,2.3595,2.3595,2.3595,2.3595,2.3595,2.3595,2.3616,2.3739,2.376,2.3803,2.3994,2.412,2.4281,2.4594,2.4815,2.5088,2.546,2.5738,2.601,2.6296,2.6604,2.6774,2.6708,2.681,2.7114,2.7705,2.8043,2.8466,2.9128,2.9854,3.0311,3.0311,3.0835,3.119,3.119,3.119,3.119,3.1151,3.1151,3.1151,3.1112,3.1092,3.1072,3.1072,3.1072,3.1072,3.1055,3.0955,3.0935,3.0975,3.0834,3.0593,1.4339,1.4233,1.4129,1.3897,1.386,1.386,1.3849,0.0,1.3897,1.3931,0.0,1.3954,1.3954,0.0,0.0,1.4617,1.5085,1.5546,1.5901,1.6175,1.6371,1.6479,1.65,1.65,1.65,1.6884,1.7372,1.7908,1.8344,1.8765,1.9246,1.9465,1.9596,1.969,1.9708,1.9708,1.9708,1.9708,1.9708,1.9708,1.9708,1.9708,1.9708,1.9708,1.9708,1.9708,1.9708,1.9708,1.9708,1.9708,1.9708,1.9768,2.0438,2.1111,2.1769,2.2448,2.3092,2.3595,2.3595,2.3595,2.3595,2.3595,2.3595,2.3595,2.3595,2.3595,2.3595,2.3616,2.3616,2.3674,2.3803,2.3861,2.3909,2.4141,2.4385,2.4645,2.4938,2.5343,2.5754,2.6152,2.6916,2.7328,2.6793,2.7232,2.7705,2.779,2.8956,2.9869,2.9973,3.0615,3.1072,3.1072,3.114,3.119,3.119,3.119,3.1151,3.1035,3.1015,3.0935,3.0753,3.0651,3.0589,3.0589,3.0589,3.0589,3.0589,3.0551,3.0671,3.0912,3.0535,3.0182,1.5142,1.4937,1.4789,1.4663,1.4536,1.4456,1.4605,1.4628,1.4674,1.4835,0.0,0.0,0.0,0.0,0.0,0.0,1.5479,1.578,1.6066,1.6284,1.6414,1.65,1.65,1.6522,1.6599,1.6968,1.7393,1.7848,1.8403,1.8879,1.9284,1.9523,1.9672,1.9708,1.9708,1.9708,1.9708,1.9708,1.9708,1.9708,1.9708,1.9708,1.9708,1.9708,1.9708,1.9708,1.9708,1.9708,1.9708,1.9708,1.9708,1.9738,2.0004,2.0528,2.1201,2.1859,2.2538,2.3137,2.3475,2.3595,2.3595,2.3595,2.3595,2.3595,2.3595,2.3595,2.3595,2.3595,2.3674,2.3739,2.3797,2.3888,2.4015,2.4177,2.4385,2.463,2.4954,2.5323,2.5847,2.668,2.7249,2.7697,2.7976,2.8281,2.8636,2.9058,2.9683,3.026,3.0683,3.1004,3.119,3.119,3.119,3.119,3.119,3.119,3.1151,3.0995,3.0814,3.0634,3.0472,3.0384,3.0338,3.0338,3.0338,3.0338,3.0338,3.0172,3.0113,3.0135,3.0054,2.9793,1.5724,1.5524,1.5334,1.5311,1.5142,1.5062,1.5244,1.5289,1.5356,1.5536,1.558,0.0,0.0,0.0,1.5657,0.0,0.0,1.6035,1.6244,1.6362,1.6457,1.65,1.65,1.6565,1.674,1.7023,1.7406,1.7861,1.8456,1.8936,1.9321,1.9563,1.9708,1.9708,1.9708,1.9708,1.9708,1.9708,1.9708,1.9708,1.9708,1.9708,1.9708,1.9708,1.9708,1.9708,1.9708,1.9708,1.9708,1.9708,1.9708,1.9708,1.9708,1.9989,2.0513,2.1186,2.1844,2.2493,2.2921,2.3191,2.334,2.334,2.346,2.3595,2.3595,2.3595,2.3595,2.3595,2.3696,2.3797,2.3797,2.3952,2.412,2.4219,2.4405,2.465,2.4954,2.5448,2.6119,2.7054,2.7763,2.8453,2.9176,2.9314,2.9482,3.0023,3.0277,3.0598,3.1123,3.119,3.119,3.119,3.119,3.119,3.1151,3.1151,3.1052,3.0794,3.0405,3.0113,2.9973,2.9837,2.9788,2.9788,2.9788,2.9788,2.9788,2.9595,2.9438,2.9303,2.9461,2.9325,1.6066,1.5979,1.5944,1.5814,1.577,1.577,1.577,1.577,1.5792,1.5792,1.5792,1.5792,1.5792,0.0,0.0,0.0,0.0,0.0,0.0,1.6457,1.65,1.65,1.65,1.6607,1.6854,1.7073,1.7468,1.8129,1.8567,1.8969,1.9376,1.9581,1.9708,1.9708,1.9708,1.9708,1.9708,1.9708,1.9708,1.9708,1.9708,1.9708,1.9708,1.9708,1.9708,1.9708,1.9708,1.9708,1.9708,1.9708,1.9708,1.9708,1.9708,1.9708,1.9813,2.0483,2.1171,2.1724,2.1754,2.2194,2.2733,2.2733,2.3116,2.3595,2.3595,2.3595,2.3595,2.3595,2.3696,2.3797,2.3797,2.3952,2.4099,2.412,2.4302,2.4544,2.4771,2.5676,2.6607,2.7027,2.8522,2.9811,3.0036,3.0055,3.0074,3.0108,3.0717,3.1173,3.119,3.119,3.119,3.119,3.119,3.1151,3.1015,3.0995,3.0794,3.0253,2.9665,2.9289,2.9143,2.8889,2.8756,2.8756,2.8756,2.8756,2.8756,2.8732,2.8677,2.8535,2.8811,2.8787,1.6371,1.6306,1.6262,1.621,1.6122,1.6078,1.6188,1.621,1.621,1.6262,1.6262,1.6262,1.6262,0.0,0.0,0.0,0.0,0.0,0.0,1.65,1.6522,1.662,1.662,1.6705,1.6876,1.7199,1.7578,1.8022,1.8553,1.9007,1.9321,1.9563,1.9708,1.9708,1.9708,1.9708,1.9708,1.9708,1.9708,1.9708,1.9708,1.9708,1.9708,1.9708,1.9708,1.9708,1.9708,1.9708,1.9708,1.9708,1.9708,1.9708,1.9708,1.9708,1.9783,2.0434,2.0838,2.1111,2.1545,2.1844,2.2044,2.2044,2.2478,2.3002,2.3002,2.3266,2.3595,2.3595,2.376,2.394,2.394,2.4177,2.4431,2.4431,2.463,2.4902,2.5084,2.5921,2.6883,2.7783,2.8962,3.0029,3.0712,3.0835,3.0835,3.0835,3.1038,3.119,3.119,3.119,3.119,3.119,3.1131,3.1015,3.0952,3.0572,3.0199,2.9832,2.9319,2.899,2.8834,2.8629,2.8486,2.8486,2.8486,2.8486,2.8486,2.8414,2.835,2.8317,2.8204,2.8171,1.65,1.6479,1.6436,1.6436,1.6383,1.634,1.6414,1.6436,1.6457,1.65,1.65,1.65,1.65,1.65,0.0,0.0,0.0,0.0,0.0,1.65,1.6556,1.6675,1.674,1.6846,1.7057,1.7406,1.7767,1.8187,1.8688,1.9101,1.9395,1.9581,1.9708,1.9708,1.9708,1.9708,1.9708,1.9708,1.9708,1.9708,1.9708,1.9708,1.9708,1.9708,1.9708,1.9708,1.9708,1.9708,1.9708,1.9708,1.9708,1.9708,1.9708,1.9708,1.9753,2.0183,2.0348,2.0408,2.0842,2.1141,2.135,2.135,2.1949,2.2703,2.2703,2.3122,2.3595,2.3595,2.376,2.394,2.394,2.4177,2.441,2.441,2.4645,2.4866,2.5084,2.6074,2.7214,2.8105,2.9251,3.0279,3.1007,3.1131,3.1151,3.119,3.119,3.119,3.119,3.1151,3.1131,3.1131,3.0975,3.0814,3.0593,3.0027,2.9572,2.9303,2.8834,2.8518,2.8389,2.821,2.8128,2.8128,2.8128,2.8128,2.8128,2.8039,2.7989,2.7974,2.7815,2.779]},{"header":{"parameterUnit":"m.s-1","parameterCategory":1,"la1":30.6,"la2":29.2853,"lo1":-89.7004,"lo2":-87.6739,"dy":0.0162,"dx":0.0183,"nx":112,"ny":82,"refTime":"2024-02-15T06:00:00:Z","depth":0,"parameterNumber":3,"parameterNumberName":"V-component_of_WINDS"},"data":[0.0,0.0,0.0,0.0,0.0,0.0,0.0,0.0,0.0,0.0,0.0,0.0,0.0,0.0,0.0,0.0,0.0,0.0,0.0,0.0,0.0,0.0,0.0,0.0,0.0,0.0,0.0,0.0,0.0,0.0,0.0,0.0,0.0,0.0,0.0,0.0,0.0,0.0,0.0,0.0,0.0,0.0,0.0,0.0,0.0,0.0,0.0,0.0,0.0,0.0,0.0,0.0,0.0,0.0,0.0,0.0,0.0,0.0,0.0,0.0,0.0,0.0,0.0,0.0,0.0,0.0,0.0,0.0,0.0,0.0,0.0,0.0,0.0,0.0,0.0,0.0,0.0,0.0,0.0,0.0,0.0,0.0,0.0,0.0,0.0,0.0,0.0,0.0,0.0,0.0,-0.5959,-0.6171,-0.6293,-0.6367,-0.6304,-0.5801,-0.5382,-0.51,0.0,0.0,0.0,0.0,0.0,0.0,0.0,0.0,0.0,0.0,0.0,0.0,0.0,0.0,0.0,0.0,0.0,0.0,0.0,0.0,0.0,0.0,0.0,0.0,0.0,0.0,0.0,0.0,0.0,0.0,0.0,0.0,0.0,0.0,0.0,0.0,0.0,0.0,0.0,0.0,0.0,0.0,0.0,0.0,0.0,0.0,0.0,0.0,0.0,0.0,0.0,0.0,0.0,0.0,0.0,0.0,0.0,0.0,0.0,0.0,0.0,0.0,0.0,0.0,0.0,0.0,0.0,0.0,0.0,0.0,0.0,0.0,0.0,0.0,0.0,0.0,0.0,0.0,0.0,0.0,0.0,0.0,0.0,0.0,0.0,0.0,0.0,0.0,0.0,0.0,0.0,0.0,0.0,0.0,0.0,0.0,0.0,0.0,0.0,0.0,0.0,0.0,0.0,0.0,-0.6013,-0.6473,-0.6689,-0.6674,-0.6317,-0.6011,-0.5605,-0.5121,0.0,0.0,0.0,0.0,0.0,0.0,0.0,0.0,0.0,0.0,0.0,0.0,0.0,0.0,0.0,0.0,0.0,0.0,0.0,0.0,0.0,0.0,0.0,0.0,0.0,0.0,0.0,0.0,0.0,0.0,0.0,0.0,0.0,0.0,0.0,0.0,0.0,0.0,0.0,0.0,0.0,0.0,0.0,0.0,0.0,0.0,0.0,0.0,0.0,0.0,0.0,0.0,0.0,0.0,0.0,0.0,0.0,0.0,0.0,0.0,0.0,0.0,0.0,0.0,0.0,0.0,0.0,0.0,0.0,0.0,0.0,0.0,0.0,0.0,0.0,0.0,0.0,0.0,0.0,0.0,0.0,0.0,0.0,0.0,0.0,0.0,0.0,0.0,0.0,0.0,0.0,0.0,0.0,0.0,0.0,0.0,0.0,0.0,0.0,0.0,0.0,0.0,0.0,-0.6949,-0.7005,-0.7197,-0.7179,-0.6992,-0.6504,-0.6121,-0.5652,-0.5073,-0.4861,0.0,0.0,0.0,0.0,0.0,0.0,0.0,0.0,0.0,0.0,0.0,0.0,0.0,0.0,0.0,0.0,0.0,0.0,0.0,0.0,0.0,0.0,0.0,0.0,0.0,0.0,0.0,0.0,0.0,0.0,0.0,0.0,0.0,0.0,0.0,0.0,0.0,0.0,0.0,0.0,0.0,0.0,0.0,0.0,0.0,0.0,0.0,0.0,0.0,0.0,0.0,0.0,0.0,0.0,0.0,0.0,0.0,0.0,0.0,0.0,0.0,0.0,0.0,0.0,0.0,0.0,0.0,0.0,0.0,0.0,0.0,0.0,0.0,0.0,0.0,0.0,0.0,0.0,0.0,0.0,0.0,0.0,0.0,0.0,0.0,0.0,0.0,0.0,0.0,0.0,0.0,0.0,0.0,0.0,0.0,0.0,0.0,0.0,0.0,0.0,0.0,0.0,-0.7725,-0.7977,-0.7841,-0.7687,-0.7412,-0.6894,-0.6371,-0.5786,-0.5173,-0.498,0.0,0.0,0.0,0.0,0.0,0.0,0.0,0.0,0.0,0.0,0.0,0.0,0.0,0.0,0.0,0.0,0.0,0.0,0.0,0.0,0.0,0.0,0.0,0.0,0.0,0.0,0.0,0.0,0.0,0.0,0.0,0.0,0.0,0.0,0.0,0.0,0.0,0.0,0.0,0.0,0.0,0.0,0.0,0.0,0.0,0.0,0.0,0.0,0.0,0.0,0.0,0.0,0.0,0.0,0.0,0.0,0.0,0.0,0.0,0.0,0.0,0.0,0.0,0.0,0.0,0.0,0.0,0.0,0.0,0.0,0.0,0.0,0.0,0.0,0.0,0.0,0.0,0.0,0.0,0.0,0.0,0.0,0.0,0.0,0.0,0.0,0.0,0.0,0.0,0.0,0.0,0.0,0.0,0.0,0.0,0.0,0.0,0.0,0.0,0.0,0.0,0.0,-0.7918,-0.8318,-0.8165,-0.821,-0.8033,-0.7573,-0.6928,-0.6279,-0.5612,-0.5306,0.0,0.0,0.0,0.0,0.0,0.0,0.0,0.0,0.0,0.0,0.0,0.0,0.0,0.0,0.0,0.0,0.0,0.0,0.0,0.0,0.0,0.0,0.0,0.0,0.0,0.0,0.0,0.0,0.0,0.0,0.0,0.0,0.0,0.0,0.0,0.0,0.0,0.0,0.0,0.0,0.0,0.0,0.0,0.0,0.0,0.0,0.0,0.0,0.0,0.0,0.0,0.0,0.0,0.0,0.0,0.0,0.0,0.0,0.0,0.0,0.0,0.0,0.0,0.0,0.0,0.0,0.0,0.0,0.0,0.0,0.0,0.0,0.0,0.0,0.0,0.0,0.0,0.0,0.0,0.0,0.0,0.0,0.0,0.0,0.0,0.0,0.0,0.0,0.0,0.0,0.0,0.0,0.0,0.0,0.0,0.0,0.0,0.0,0.0,0.0,0.0,0.0,-0.8331,-0.8669,-0.8514,-0.8416,-0.8113,-0.7453,-0.683,-0.6126,-0.5348,0.0,0.0,0.0,0.0,0.0,0.0,0.0,0.0,0.0,0.0,0.0,0.0,0.0,0.0,0.0,0.0,0.0,0.0,0.0,0.0,0.0,0.0,0.0,0.0,0.0,0.0,0.0,0.0,0.0,0.0,0.0,0.0,0.0,0.0,0.0,0.0,0.0,0.0,0.0,0.0,0.0,0.0,0.0,0.0,0.0,0.0,0.0,0.0,0.0,0.0,0.0,0.0,0.0,0.0,0.0,0.0,0.0,0.0,0.0,0.0,0.0,0.0,0.0,0.0,0.0,0.0,0.0,0.0,0.0,0.0,0.0,0.0,0.0,0.0,0.0,0.0,0.0,0.0,0.0,0.0,0.0,0.0,0.0,0.0,0.0,0.0,0.0,0.0,0.0,0.0,0.0,0.0,0.0,0.0,0.0,0.0,0.0,0.0,0.0,0.0,0.0,0.0,-0.8145,-0.8583,-0.8839,-0.8815,-0.8603,-0.8171,-0.7463,-0.6768,-0.6051,-0.5274,0.0,0.0,0.0,0.0,0.0,0.0,0.0,0.0,0.0,0.0,0.0,0.0,0.0,0.0,0.0,0.0,0.0,0.0,0.0,0.0,0.0,0.0,0.0,0.0,0.0,0.0,0.0,0.0,0.0,0.0,0.0,0.0,0.0,0.0,0.0,0.0,0.0,0.0,0.0,0.0,0.0,0.0,0.0,0.0,0.0,0.0,0.0,0.0,0.0,0.0,0.0,0.0,0.0,0.0,0.0,0.0,0.0,0.0,0.0,0.0,0.0,0.0,0.0,0.0,0.0,0.0,0.0,0.0,0.0,0.0,0.0,0.0,0.0,0.0,0.0,0.0,0.0,0.0,0.0,0.0,0.0,0.0,0.0,0.0,0.0,0.0,0.0,0.0,0.0,0.0,0.0,0.0,0.0,0.0,0.0,0.0,0.0,0.0,0.0,0.0,0.0,0.0,-0.8249,-0.8586,-0.8855,-0.8989,-0.8754,-0.8315,-0.7645,-0.6795,-0.6065,0.0,0.0,0.0,0.0,0.0,0.0,0.0,0.0,0.0,0.0,0.0,0.0,0.0,0.0,0.0,0.0,0.0,0.0,0.0,0.0,0.0,0.0,0.0,0.0,0.0,0.0,0.0,0.0,0.0,0.0,0.0,0.0,0.0,0.0,0.0,0.0,0.0,0.0,0.0,0.0,0.0,0.0,0.0,0.0,0.0,0.0,0.0,0.0,0.0,0.0,0.0,0.0,0.0,0.0,0.0,0.0,0.0,0.0,0.0,0.0,0.0,0.0,0.0,0.0,0.0,0.0,0.0,0.0,0.0,0.0,0.0,0.0,0.0,0.0,0.0,0.0,0.0,0.0,0.0,0.0,0.0,0.0,0.0,0.0,0.0,0.0,0.0,0.0,0.0,0.0,0.0,0.0,0.0,0.0,0.0,0.0,0.0,0.0,0.0,0.0,0.0,0.0,0.0,-0.8476,-0.8683,-0.877,-0.8712,-0.8344,-0.7785,-0.7018,-0.6302,-0.5557,-0.4844,0.0,0.0,0.0,0.0,0.0,0.0,0.0,0.0,0.0,0.0,0.0,0.0,0.0,0.0,0.0,0.0,0.0,0.0,0.0,0.0,0.0,0.0,0.0,0.0,0.0,0.0,0.0,0.0,0.0,0.0,0.0,0.0,0.0,0.0,0.0,0.0,0.0,0.0,0.0,0.0,0.0,0.0,0.0,0.0,0.0,0.0,0.0,0.0,0.0,0.0,0.0,0.0,0.0,0.0,0.0,0.0,0.0,0.0,0.0,0.0,0.0,0.0,0.0,0.0,0.0,0.0,0.0,0.0,0.0,0.0,0.0,0.0,0.0,0.0,0.0,0.0,0.0,0.0,0.0,0.0,0.0,0.0,0.0,0.0,0.0,0.0,0.0,0.0,0.0,0.0,0.0,0.0,0.0,0.0,0.0,0.0,0.0,0.0,0.0,0.0,0.0,0.0,-0.86,-0.8659,-0.8639,-0.8448,-0.7984,-0.7324,-0.6461,-0.5814,-0.5135,-0.4393,0.0,0.0,0.0,0.0,0.0,0.0,0.0,0.0,0.0,0.0,0.0,0.0,0.0,0.0,0.0,0.0,0.0,0.0,0.0,0.0,0.0,0.0,0.0,0.0,0.0,0.0,0.0,0.0,0.0,0.0,0.0,0.0,0.0,0.0,0.0,0.0,0.0,0.0,0.0,0.0,0.0,0.0,0.0,0.0,0.0,0.0,0.0,0.0,0.0,0.0,0.0,0.0,0.0,0.0,0.0,0.0,0.0,0.0,0.0,0.0,0.0,0.0,0.0,0.0,0.0,0.0,0.0,0.0,0.0,0.0,0.0,0.0,0.0,0.0,0.0,0.0,0.0,0.0,0.0,0.0,0.0,0.0,0.0,0.0,0.0,0.0,0.0,0.0,0.0,0.0,0.0,0.0,0.0,0.0,0.0,0.0,0.0,0.0,0.0,0.0,0.0,0.0,-0.86,-0.8573,-0.8448,-0.8195,-0.7593,-0.6864,-0.5932,-0.5365,-0.4756,-0.4086,0.0,0.0,0.0,0.0,0.0,0.0,0.0,0.0,0.0,0.0,0.0,0.0,0.0,0.0,0.0,0.0,0.0,0.0,0.0,0.0,0.0,0.0,0.0,0.0,0.0,0.0,0.0,0.0,0.0,0.0,0.0,0.0,0.0,0.0,0.0,0.0,0.0,0.0,0.0,0.0,0.0,0.0,0.0,0.0,0.0,0.0,0.0,0.0,0.0,0.0,0.0,0.0,0.0,0.0,0.0,0.0,0.0,0.0,0.0,0.0,0.0029,-0.0112,0.0,0.0,0.0,0.0,0.0,0.0,0.0,0.0,0.0,0.0,0.0,0.0,0.0,0.0,0.0,0.0,0.0,0.0,0.0,0.0,0.0,0.0,0.0,0.0,0.0,0.0,0.0,0.0,0.0,0.0,0.0,0.0,0.0,0.0,0.0,0.0,0.0,0.0,0.0,0.0,-0.86,-0.8421,-0.8162,-0.7836,-0.7175,-0.6432,-0.5647,-0.4946,-0.4291,-0.3676,-0.3734,0.0,0.0,0.0,0.0,0.0,0.0,0.0,0.0,0.0,0.0,0.0,0.0,0.0,0.0,0.0,0.0,0.0,0.0,0.0,0.0,0.0,0.0,0.0,0.0,0.0,0.0,0.0,0.0,0.0,0.0,0.0,0.0,0.0,0.0,0.0,0.0,0.0,0.0,0.0,0.0,0.0,0.0,0.0,0.0,0.0,0.0,0.0,0.0,0.0,0.0,0.0,0.0,0.0,0.0,0.0,0.0,0.0,0.0,0.0,0.0242,-0.0087,0.0,0.0,0.0,0.0,0.0,0.0,0.0,0.0,0.0,0.0,0.0,0.0,0.0,0.0,0.0,0.0,0.0,0.0,0.0,0.0,0.0,0.0,0.0,0.0,0.0,0.0,0.0,0.0,0.0,0.0,0.0,0.0,0.0,0.0,0.0,0.0,0.0,0.0,0.0,0.0,-0.8421,-0.8162,-0.7836,-0.753,-0.6765,-0.6025,-0.5441,-0.4721,-0.4081,-0.3541,-0.3558,0.0,0.0,0.0,0.0,0.0,0.0,0.0,0.0,0.0,0.0,0.0,0.0,0.0,0.0,0.0,0.0,0.0,0.0,0.0,0.0,0.0,0.0,0.0,0.0,0.0,0.0,0.0,0.0,0.0,0.0,0.0,0.0,0.0,0.0,0.0,0.0,0.0,0.0,0.0,0.0,0.0,0.0,0.0,0.0,0.0,0.0,0.0,0.0,0.0,0.0,0.0,0.0,0.0,0.2268,0.213,0.1992,0.182,0.1679,0.1463,0.0682,0.0187,0.0,-0.003,0.0,0.0,0.0,0.0,0.0,0.0,0.0,0.0,0.0,0.0,0.0,0.0,0.0,0.0,0.0,0.0,0.0,0.0,0.0,0.0,0.0,0.0,-0.4688,-0.4763,-0.4787,-0.4846,-0.5018,0.0,0.0,0.0,0.0,0.0,0.0,0.0,0.0,0.0,0.0,0.0,-0.8088,-0.7756,-0.7412,-0.7148,-0.6312,-0.5618,-0.522,-0.4558,-0.395,-0.3499,-0.3457,-0.3406,0.0,0.0,0.0,0.0,0.0,0.0,0.0,0.0,0.0,0.0,0.0,0.0,0.0,0.0,0.0,0.0,0.0,0.0,0.0,0.0,0.0,0.0,0.0,0.0,0.0,0.0,0.0,0.0,0.0,0.0,0.0,0.0,0.5599,0.5508,0.0,0.0,0.0,0.0,0.0,0.0,0.0,0.0,0.0,0.0,0.0,0.0,0.0,0.4046,0.4074,0.3937,0.393,0.4054,0.3721,0.3538,0.3499,0.2793,0.2429,0.2305,0.1859,0.0,0.0763,0.0693,0.0,0.0,0.0,0.0,0.0,0.0,0.0,0.0,0.0,0.0,0.0,0.0,0.0,0.0,0.0,0.0,0.0,0.0,0.0,0.0,0.0,0.0,-0.4491,-0.4319,-0.4288,-0.4263,-0.4187,-0.4932,-0.5677,-0.5828,-0.6436,-0.7009,0.0,0.0,0.0,0.0,0.0,0.0,-0.7601,-0.7139,-0.671,-0.6379,-0.5705,-0.5138,-0.4719,-0.4237,-0.3756,-0.3351,-0.3333,-0.3258,-0.3133,-0.3297,0.0,0.0,0.0,0.0,0.0,0.0,0.0,0.0,0.0,0.0,0.0,0.0,0.0,0.0,0.0,0.0,0.0,0.0,0.0,0.0,0.0,0.0,0.0,0.0,0.0,0.0,0.0,0.0,0.0,0.6005,0.6215,0.6324,0.6128,0.5932,0.0,0.0,0.0,0.0,0.0,0.0,0.0,0.0,0.0,0.5334,0.5171,0.506,0.5025,0.4987,0.4961,0.5012,0.4856,0.4693,0.4529,0.4073,0.383,0.3673,0.3383,0.2952,0.2393,0.1541,0.106,0.0843,0.0,0.0,0.0,0.0,-0.1231,-0.1734,-0.2068,-0.2486,-0.2877,-0.2989,0.0,0.0,0.0,0.0,0.0,0.0,0.0,-0.3777,-0.3833,-0.3885,-0.3855,-0.3769,-0.3655,-0.3572,-0.3519,-0.3965,-0.4515,-0.5085,-0.5773,-0.6311,-0.6396,-0.677,0.0,0.0,0.0,-0.6972,-0.6896,-0.6515,-0.6163,-0.5937,-0.5363,-0.491,-0.4739,-0.4152,-0.3686,-0.3435,-0.3234,-0.3075,-0.2939,-0.3279,-0.3549,0.0,0.0,0.0,0.0,0.0,0.0,0.0,0.0,0.0,0.0,0.0,0.0,0.0,0.0,0.0,0.0,0.0,0.0,0.0,0.0,0.0,0.0,0.0,0.0,0.0,0.0,0.0,0.0,0.6524,0.6686,0.7014,0.6947,0.6828,0.0,0.0,0.0,0.0,0.0,0.0,0.6148,0.6192,0.6222,0.6197,0.612,0.6067,0.5988,0.5958,0.5924,0.5927,0.581,0.5667,0.5488,0.5202,0.5011,0.4816,0.4578,0.4289,0.3905,0.2536,0.1801,0.1538,0.121,0.0864,0.0535,0.0174,-0.0344,-0.0916,-0.1192,-0.1698,-0.2232,-0.2268,-0.246,-0.2629,-0.2629,0.0,0.0,0.0,0.0,-0.3216,-0.3246,-0.3218,-0.3188,-0.3021,-0.288,-0.274,-0.2657,-0.2826,-0.3269,-0.4233,-0.4948,-0.5383,-0.5388,-0.5886,0.0,-0.6147,-0.6294,-0.6352,-0.6201,-0.5953,-0.571,-0.5524,-0.5055,-0.4734,-0.4659,-0.4073,-0.3629,-0.3429,-0.3162,-0.2937,-0.2806,-0.3248,-0.355,-0.365,0.0,0.0,0.0,0.0,0.0,0.0,0.0,0.0,0.0,0.0,0.0,0.0,0.0,0.0,0.0,0.0,0.0,0.0,0.0,0.0,0.0,0.0,0.0,0.0,0.0,0.0,0.0,0.0,0.0,0.7422,0.7683,0.0,0.0,0.0,0.0,0.731,0.7128,0.7098,0.7319,0.7207,0.7174,0.7239,0.6963,0.6913,0.7017,0.6887,0.689,0.7027,0.6717,0.6524,0.6517,0.5913,0.558,0.5425,0.5092,0.4934,0.4769,0.3712,0.288,0.2226,0.195,0.1628,0.129,0.0828,0.052,0.0244,-0.0266,-0.0704,-0.1023,-0.113,-0.1287,-0.1402,-0.1402,-0.1625,0.0,0.0,-0.2291,-0.2653,-0.235,-0.2488,-0.2597,-0.2014,-0.1874,-0.179,-0.1458,-0.1652,-0.2235,-0.343,-0.3984,-0.4354,-0.453,0.0,-0.5383,-0.544,-0.5677,-0.5766,-0.5584,-0.5527,-0.5381,-0.4982,-0.4804,-0.4578,-0.4248,-0.3913,-0.356,-0.3238,-0.3079,-0.2937,-0.2806,-0.3067,-0.3403,-0.3779,-0.4138,0.0,0.0,0.0,0.0,0.0,0.0,0.0,0.0,0.0,0.0,0.0,0.0,0.0,0.0,0.0,0.0,0.0,0.0,0.0,0.0,0.0,0.0,0.0,0.0,0.0,0.0,0.0,0.0,0.884,0.9229,0.0,0.9512,0.9446,0.9321,0.9224,0.9121,0.9068,0.9009,0.8704,0.8499,0.8319,0.8027,0.7791,0.7664,0.7612,0.7517,0.7288,0.7193,0.7021,0.679,0.6473,0.6286,0.6147,0.5927,0.5722,0.5504,0.5121,0.4398,0.3498,0.3271,0.293,0.2528,0.2324,0.1877,0.1318,0.095,0.0499,0.0029,-0.0283,-0.0476,-0.0589,-0.0589,-0.0728,-0.0924,-0.1064,-0.126,-0.1427,-0.1482,-0.1511,-0.1512,-0.1373,-0.1288,-0.1177,-0.0953,-0.1009,-0.1232,-0.1649,-0.2681,-0.3482,-0.3465,-0.4108,-0.4602,-0.4618,-0.4856,-0.5071,-0.5172,-0.5152,-0.5094,-0.5032,-0.4875,-0.4644,-0.4363,-0.3942,-0.3559,-0.3219,-0.303,-0.2912,-0.2858,-0.3237,-0.3518,-0.3678,-0.3993,-0.426,0.0,0.0,0.0,0.0,0.0,0.0,0.0,0.0,0.0,0.0,0.0,0.0,0.0,0.0,0.0,0.0,0.0,0.0,0.0,0.0,0.0,0.0,0.0,0.0,0.0,0.903,0.9669,1.0312,1.0863,1.1192,1.1257,1.1268,1.1249,1.1131,1.0952,1.0811,1.0616,1.0229,0.9813,0.9418,0.9111,0.8747,0.8416,0.8361,0.811,0.7583,0.7576,0.7331,0.695,0.6793,0.6644,0.6539,0.6385,0.618,0.6051,0.6066,0.5592,0.4795,0.4367,0.3949,0.3549,0.345,0.2981,0.2365,0.1848,0.1383,0.095,0.0565,0.0393,0.0308,0.0308,0.0224,0.0084,-0.0056,-0.0196,-0.0364,-0.056,-0.0616,-0.0673,-0.0673,-0.0617,-0.0533,-0.028,-0.0224,-0.0224,-0.0168,-0.1426,-0.2497,-0.2457,-0.3214,-0.3834,-0.3853,-0.4242,-0.4593,-0.4744,-0.4872,-0.501,-0.5079,-0.4994,-0.4831,-0.4585,-0.4062,-0.361,-0.3291,-0.3017,-0.2871,-0.2871,-0.3237,-0.3455,-0.3504,-0.3901,-0.4194,-0.4409,0.0,0.0,0.0,0.0,0.0,0.0,0.0,0.0,0.0,0.0,0.0,0.0,0.0,0.0,0.0,0.0,0.0,0.0,0.0,0.0,0.0,0.0,0.0,0.9998,1.0432,1.1118,1.1804,1.2504,1.2961,1.2918,1.2967,1.2948,1.2977,1.2514,1.2185,1.2089,1.1594,1.1072,1.0502,1.0216,0.9826,0.9236,0.9114,0.8703,0.8016,0.7859,0.7559,0.7078,0.6834,0.674,0.6719,0.6426,0.6338,0.6338,0.6525,0.6416,0.6047,0.5192,0.464,0.432,0.4125,0.382,0.3385,0.2417,0.198,0.179,0.1485,0.1374,0.1374,0.1374,0.126,0.1146,0.1146,0.0812,0.0449,0.0449,0.014,-0.0084,0.0168,0.0112,0.0168,0.0617,0.0729,0.0785,0.0926,-0.0224,-0.1272,-0.1522,-0.2402,-0.3092,-0.3175,-0.3862,0.0,-0.4303,-0.4745,-0.5093,-0.5104,-0.5171,-0.5109,-0.4897,-0.4224,-0.369,-0.3403,-0.3024,-0.2799,-0.2799,-0.2994,-0.3159,-0.3294,-0.3819,-0.4253,-0.4586,0.0,0.0,0.0,0.0,0.0,0.0,0.0,0.0,0.0,0.0,0.0,0.0,0.0,0.0,0.0,0.0,0.0,0.0,0.0,0.0,0.0,1.2505,1.2777,1.168,1.2088,1.2704,1.33,1.3823,1.4091,1.3913,1.4231,1.4378,1.422,1.4096,1.3844,1.3408,1.2881,1.2383,1.1878,1.1585,1.11,1.0364,1.0115,0.9445,0.8294,0.8199,0.7835,0.7235,0.7373,0.7256,0.7009,0.6965,0.6872,0.6753,0.6949,0.6903,0.6623,0.6261,0.5759,0.5253,0.5355,0.4893,0.4134,0.3585,0.3268,0.3098,0.31,0.2959,0.2762,0.2762,0.2512,0.2235,0.2155,0.1847,0.1512,0.1315,0.1092,0.087,0.0729,0.0757,0.0897,0.1259,0.1427,0.1568,0.1792,0.1286,0.047,-0.0613,-0.1551,-0.2309,-0.2762,-0.3192,-0.3621,-0.4087,-0.4404,-0.471,-0.499,-0.5133,-0.504,-0.4637,-0.4117,-0.3648,-0.3273,-0.2969,-0.2799,-0.2799,-0.2994,-0.3159,-0.3294,-0.3639,-0.3896,0.0,0.0,0.0,0.0,0.0,0.0,0.0,0.0,0.0,0.0,0.0,0.0,0.0,0.0,0.0,0.0,0.0,0.0,0.0,0.0,0.0,0.0,1.4391,1.5108,1.4693,1.4542,1.46,1.4994,1.5182,1.5232,1.5094,1.5239,1.5291,1.515,1.507,1.4825,1.4442,1.4004,1.3516,1.3044,1.2894,1.2408,1.1624,1.1245,1.0462,0.9173,0.891,0.8497,0.7955,0.7963,0.7873,0.7761,0.7629,0.7514,0.7433,0.771,0.7641,0.7335,0.0,0.0,0.0,0.0,0.5553,0.4948,0.4533,0.4301,0.4153,0.4236,0.4125,0.3953,0.3898,0.3677,0.343,0.3267,0.2989,0.271,0.2486,0.2153,0.1847,0.168,0.1596,0.1681,0.2068,0.2319,0.2541,0.2738,0.2488,0.0,0.0923,-0.0298,-0.1328,-0.1951,-0.2397,-0.2893,-0.3509,-0.3821,-0.414,-0.4583,-0.4688,-0.466,-0.4438,-0.3971,0.0,0.0,0.0,-0.2679,-0.259,-0.2762,0.0,0.0,0.0,-0.3732,-0.3988,-0.4864,0.0,0.0,-0.7259,-0.7915,0.0,0.0,0.0,0.0,0.0,0.0,0.0,0.0,0.0,0.0,0.0,0.0,0.0,0.0,0.0,0.0,1.6238,1.7574,1.8246,1.7486,1.6847,1.675,1.6474,1.6319,1.6272,1.6028,1.5832,1.5832,1.5635,1.5404,1.5178,1.4933,0.0,0.0,0.0,1.3661,1.2823,1.2358,1.1562,1.0371,0.9899,0.9433,0.9008,0.8736,0.8682,0.8846,0.8507,0.8331,0.8271,0.8661,0.8601,0.8176,0.7531,0.7198,0.7,0.6491,0.6123,0.5822,0.544,0.0,0.0,0.5144,0.5117,0.5089,0.4976,0.4814,0.4625,0.4429,0.4177,0.3904,0.379,0.3347,0.2903,0.2875,0.2655,0.2571,0.2989,0.332,0.3594,0.3707,0.3489,0.3155,0.279,0.12,-0.0223,-0.0838,-0.148,-0.2096,-0.2638,-0.2986,-0.3376,-0.3825,-0.3909,0.0,-0.4114,-0.3679,-0.3344,-0.3236,-0.2803,-0.2442,-0.2247,-0.2341,-0.2442,-0.2543,-0.3007,-0.3441,-0.3828,-0.4585,-0.5171,-0.5593,-0.6777,-0.76,0.0,0.0,0.0,0.0,0.0,0.0,0.0,0.0,0.0,0.0,0.0,0.0,0.0,0.0,0.0,1.7591,1.8834,1.9784,2.0214,1.9989,1.9348,1.8187,1.7475,1.7012,1.6838,1.6414,1.6123,1.6123,1.5879,1.5635,1.5445,1.535,1.5213,1.4885,1.4885,1.449,1.3661,1.3171,1.2222,1.0842,1.0719,0.0,0.9719,1.0236,1.0223,0.9751,0.9888,0.9627,0.9107,0.9501,0.9637,0.9487,0.8317,0.7987,0.8135,0.7593,0.7226,0.6953,0.6702,0.6462,0.6317,0.6588,0.648,0.629,0.6443,0.6127,0.0,0.5527,0.5195,0.4807,0.469,0.4474,0.4257,0.3984,0.3953,0.4006,0.4153,0.4319,0.4481,0.4622,0.4508,0.4343,0.4153,0.2397,0.081,0.0196,-0.0323,-0.0831,-0.1385,-0.1784,-0.2148,-0.2453,-0.278,-0.2981,-0.3006,-0.2868,-0.2767,-0.2733,-0.2398,-0.2078,-0.1829,-0.173,-0.1662,-0.1581,-0.1729,-0.1907,-0.2081,-0.2665,-0.3173,-0.3617,-0.5811,-0.7042,0.0,0.0,0.0,0.0,0.0,0.0,0.0,0.0,0.0,0.0,0.0,1.4693,1.5794,0.0,1.8202,1.9332,2.0361,2.1111,2.1272,2.1342,2.0862,1.9492,1.8573,1.7971,1.7707,1.7099,1.6636,1.6407,1.6163,1.5879,1.5642,1.5635,1.5594,1.5458,1.5458,1.5213,1.4723,1.4034,1.3216,1.2261,1.1854,1.1489,1.1149,1.1385,1.1307,1.0933,1.1004,1.0709,1.0196,1.0376,1.0539,1.0595,0.9714,0.9152,0.8849,0.8575,0.831,0.8165,0.8172,0.8114,0.802,0.8172,0.8096,0.7936,0.7806,0.7417,0.7015,0.6875,0.6573,0.6298,0.6288,0.6072,0.5833,0.5778,0.5665,0.5611,0.5655,0.5787,0.5869,0.5769,0.5706,0.5597,0.5386,0.4409,0.3214,0.1949,0.1326,0.0815,0.0258,-0.01,-0.0434,-0.0756,-0.102,-0.1193,-0.133,-0.1406,-0.1438,-0.1399,-0.106,-0.0701,-0.0369,-0.002,0.0223,0.0393,0.04,0.0276,0.0,-0.0497,-0.0927,-0.1283,-0.2515,-0.3989,0.0,0.0,0.0,0.0,0.0,0.0,0.0,1.3861,1.448,1.5427,1.597,1.6655,1.7967,1.8976,1.9902,2.069,2.1499,2.2035,2.2035,2.2145,2.1865,2.0916,1.9812,1.9026,1.8703,1.7971,1.7326,1.6911,1.6588,1.6312,1.6109,1.6109,1.6069,1.6021,1.6021,1.5879,1.554,1.4832,1.4134,1.3574,1.2915,1.2577,1.2528,1.2404,1.2222,1.2022,1.177,1.1576,1.1391,1.1263,1.1407,1.1614,1.1122,1.0516,0.9861,0.9587,0.9444,0.9388,0.9607,0.9664,0.9663,0.9652,0.9667,0.9563,0.9234,0.8871,0.8526,0.8419,0.8168,0.7933,0.8039,0.7815,0.7576,0.7709,0.757,0.7378,0.7309,0.7422,0.7448,0.7138,0.7101,0.7063,0.6838,0.6714,0.5941,0.3883,0.315,0.2662,0.2165,0.1877,0.1583,0.1296,0.1164,0.0975,0.066,0.0465,0.0425,0.051,0.0901,0.1386,0.1937,0.2522,0.3004,0.3327,0.3472,0.3397,0.312,0.2723,0.2423,0.2188,0.2196,0.0341,1.12,1.1644,1.2114,1.228,1.3229,1.4278,0.0,1.5673,1.6575,1.7413,1.8195,1.8976,1.9851,2.0875,2.1734,2.2211,2.2634,2.2935,2.2935,2.2809,2.2671,2.253,2.1257,2.0221,1.9803,1.8842,1.8156,1.7947,1.7473,1.7145,1.7138,1.7138,1.7052,1.6885,1.6885,1.6501,1.5784,1.5205,1.4546,1.3851,1.3485,1.3179,1.3009,1.3366,1.3144,1.25,1.2106,1.2146,1.2425,1.217,1.2283,1.2585,1.2045,1.1916,1.1851,1.0957,1.0636,1.0682,1.0706,1.066,1.0586,1.0897,1.0918,1.0854,1.1033,1.0637,1.0124,1.0124,0.9751,0.937,0.9396,0.9441,0.9467,0.937,0.9415,0.9382,0.9075,0.9049,0.8997,0.8848,0.8919,0.8997,0.8964,0.8938,0.8089,0.5594,0.4988,0.4651,0.4301,0.403,0.3885,0.395,0.3746,0.3387,0.2889,0.2809,0.2885,0.3084,0.3526,0.4257,0.53,0.6146,0.6956,0.7691,0.8106,0.8393,0.8514,0.8413,0.8325,0.8234,0.8281,0.5553,1.1895,1.2578,1.3274,1.3728,1.4736,1.5798,1.6556,1.7264,1.8148,1.9374,1.9697,2.0141,2.1352,2.1957,2.2385,2.2832,2.3259,2.3493,2.3363,2.3069,2.2783,2.2644,2.1735,2.1025,2.0809,2.0121,1.9401,1.8773,1.8388,1.8064,1.78,1.7753,1.7714,1.7628,1.7481,1.7232,1.6897,1.6377,1.584,1.5332,1.5037,1.469,1.4433,1.4608,1.4316,1.3639,1.3091,1.2973,1.3112,1.302,1.307,1.3237,1.2908,1.2925,1.3052,1.2141,1.1805,1.189,1.2275,1.2441,1.2463,1.2603,1.2754,1.2844,1.2728,1.2562,1.2449,1.2449,1.2044,1.1661,1.1738,1.1522,1.1348,1.1447,1.1447,1.1389,1.1196,1.1213,1.1237,1.1063,1.1244,1.1456,1.1456,1.1552,1.1232,1.0052,0.8333,0.7099,0.6786,0.6624,0.6611,0.6822,0.6814,0.6735,0.6577,0.6765,0.6995,0.7255,0.7939,0.8715,0.9595,1.0567,1.1419,1.2106,1.2662,1.2961,1.3004,1.2887,1.281,1.2738,1.2903,1.1907,1.2814,1.3706,1.4572,1.5191,1.622,1.7286,1.8056,1.8611,1.9353,2.0768,2.0736,2.0881,2.2211,2.2504,2.2717,2.3133,2.358,2.3829,2.3701,2.334,2.2944,2.2647,2.2139,2.169,2.1546,2.1033,2.0435,1.9669,1.948,1.9255,1.8904,1.8904,1.8866,1.8727,1.8535,1.8288,1.801,1.7553,1.7086,1.6588,1.6254,1.592,1.5594,1.5416,1.5082,1.4717,1.4059,1.3884,1.3956,1.3956,1.3965,1.3965,1.3828,1.39,1.3993,1.3495,1.3199,1.3117,1.3601,1.3923,1.4118,1.4208,1.443,1.4629,1.4441,1.4464,1.457,1.4623,1.4335,1.3993,1.3972,1.3687,1.3426,1.3527,1.351,1.3489,1.3484,1.3579,1.3628,1.3519,1.3796,1.4058,1.4092,1.425,1.4328,1.4205,1.2398,1.068,0.9652,0.9622,0.9827,1.0089,1.0344,1.0537,1.0646,1.0947,1.1274,1.1623,1.2396,1.3193,1.3981,1.4998,1.583,1.65,1.7045,1.7353,1.7395,1.7304,1.7236,1.7201,1.7416,1.7759,1.4071,1.5177,1.6144,1.6551,1.7613,1.8656,1.9141,1.958,2.0165,2.1263,2.1242,2.1344,2.2133,2.253,2.2822,2.3231,2.3751,2.4106,2.4178,2.3766,2.3313,2.2944,2.2629,2.2287,2.1812,2.1367,2.0953,2.0692,2.082,2.0943,2.0898,2.0898,2.0682,2.0246,2.0246,1.9729,1.8788,1.8491,1.7927,1.7064,1.6721,1.6385,1.6075,1.5393,1.5273,1.5549,1.4874,1.4788,1.5161,1.5161,1.5016,1.4857,1.4985,1.4923,1.4812,1.5182,1.4942,1.444,1.4469,1.4765,1.5196,1.5448,1.5689,1.593,1.6309,1.6337,1.6277,1.6453,1.6402,1.6198,1.5746,1.5763,1.5811,1.5478,1.5568,1.5763,1.5939,1.6051,1.6128,1.6262,1.6509,1.6734,1.6856,1.6983,1.7089,1.7148,1.7095,1.5973,1.2959,1.3127,1.3646,1.3895,1.4397,1.4743,1.482,1.5062,1.5394,1.5792,1.638,1.7202,1.828,1.9151,1.999,2.0788,2.12,2.1587,2.1903,2.1893,2.1924,2.2008,2.2211,2.2436,1.5167,1.6369,1.7529,1.8252,1.918,1.9951,2.0136,2.0143,2.0274,2.0865,2.0712,2.059,2.114,2.174,2.2313,2.2829,2.3569,2.4147,2.4241,2.379,2.3265,2.2815,2.2345,2.1951,2.1834,2.1763,2.1631,2.1392,2.141,2.1482,2.1445,2.1454,2.1374,2.1239,2.1096,2.0862,2.0529,2.0273,1.9881,1.9365,1.8693,1.8201,1.7819,1.7197,1.6968,1.7029,1.6393,1.6193,1.6341,1.6341,1.6188,1.5963,1.5965,1.5936,1.5875,1.5966,1.6112,1.6236,1.5825,1.593,1.6312,1.6567,1.6989,1.7407,1.7628,1.7982,1.8415,1.8614,1.8583,1.8432,1.8065,1.7792,1.7519,1.7272,1.735,1.7544,1.7893,1.812,1.8341,1.8655,1.898,1.9265,1.9478,1.9712,1.986,1.9894,1.8399,1.6968,1.6077,1.6335,1.6819,1.7306,1.7752,1.8189,1.8608,1.8978,1.9339,1.977,2.0303,2.0916,2.159,2.2163,2.2686,2.3183,2.3418,2.3595,2.3765,2.3716,2.3674,2.3654,2.3733,2.3866,1.6837,1.8124,1.9319,1.9976,2.0645,2.1064,2.0679,2.0311,2.0062,2.0119,1.9747,1.9531,1.9909,2.0649,2.1472,2.2207,2.3332,2.425,2.4681,2.4432,2.4067,2.3641,2.3257,2.293,2.2776,2.3029,2.2941,2.2288,2.2539,2.2693,2.2711,2.2687,2.2687,2.2599,2.2378,2.2192,2.2006,2.1758,2.1394,2.0827,2.0094,1.9497,1.9084,1.8526,1.8294,1.8226,1.7716,1.7516,1.7565,1.7388,1.7125,1.6834,1.6756,1.6749,1.6715,1.6928,1.7324,1.7628,1.6978,1.7062,1.7462,1.7765,1.8228,1.8673,1.8924,1.9437,2.0042,2.0319,2.0536,2.0605,2.0404,2.0014,1.9612,1.9428,1.9332,1.9373,1.9817,2.009,2.0384,2.0822,2.1134,2.1404,2.1691,2.1941,2.2136,2.2124,2.0759,1.956,1.9061,1.9324,1.9763,2.0305,2.0726,2.115,2.1642,2.1964,2.2287,2.2606,2.3023,2.343,2.3795,2.408,2.435,2.4628,2.4642,2.4648,2.4665,2.4581,2.4482,2.4395,2.4349,2.4339,1.9053,2.0421,2.1422,2.1631,2.1966,2.191,2.0807,2.0092,1.9576,1.9124,1.8543,1.8235,1.8566,1.935,2.0323,2.1478,2.3006,2.4425,2.536,2.5639,2.5613,2.5315,2.5261,2.5088,2.4635,2.5032,2.4791,2.3498,2.4117,2.4553,2.4541,2.4541,2.4456,2.4251,2.4003,2.3647,2.3226,2.2974,2.2461,2.1581,2.0927,2.037,1.9873,1.9497,1.928,1.9157,1.8758,1.8734,1.887,1.8393,1.7943,1.7492,1.7522,1.7442,1.7368,1.8104,1.8551,1.8688,1.8031,1.8124,1.8647,1.9032,1.9399,1.9735,2.0143,2.0658,2.1175,2.1663,2.2206,2.2695,2.2703,2.2382,2.2003,2.1824,2.144,2.1255,2.1684,2.1944,2.2232,2.27,2.2953,2.3184,2.3438,2.3694,2.3871,2.3881,2.4035,2.3553,2.1848,2.2048,2.2475,2.2868,2.3231,2.3587,2.383,2.3973,2.4138,2.4312,2.4508,2.4698,2.488,2.4945,2.504,2.5156,2.4965,2.4827,2.4749,2.4627,2.4486,2.4341,2.42,2.4023,2.0914,2.2227,2.3225,2.3234,2.2951,2.2358,2.1209,1.9811,1.8573,1.7905,1.7478,1.7272,1.7419,1.8519,1.9784,2.0976,2.2578,2.4084,2.5385,2.5827,2.6081,2.6297,2.6173,2.6053,2.5927,2.6325,2.6479,2.6114,2.5418,2.5015,2.4999,2.502,2.4978,2.4935,2.4903,2.4807,2.468,2.4241,2.3525,2.2625,2.2426,2.1935,2.1136,2.0965,2.0676,2.029,2.0139,2.0107,2.0128,2.0008,1.9524,1.8895,1.91,1.889,1.8531,1.9059,1.9554,2.0004,2.0219,1.9978,1.967,2.0093,2.0421,2.0733,2.1183,2.17,2.2253,2.2877,2.3454,2.3876,2.3926,2.3959,2.3808,2.313,2.2992,2.2986,2.2848,2.3006,2.3318,2.3741,2.4095,2.4385,2.4553,2.4737,2.4849,2.485,2.4962,2.4697,2.3648,2.375,2.398,2.4194,2.44,2.4569,2.4677,2.4721,2.4763,2.4825,2.4812,2.4817,2.4834,2.4758,2.4699,2.4683,2.4485,2.43,2.4122,2.3941,2.3739,2.3498,2.3264,2.3023,2.325,2.4441,2.5177,2.473,2.4138,2.3161,2.1392,1.9607,1.8039,1.7148,1.6515,1.6193,1.6313,1.7543,1.8947,2.0212,2.205,2.3931,2.5719,2.6549,2.725,2.7946,2.7994,2.7994,2.7969,2.8289,2.8484,2.8395,2.7114,2.6325,2.6318,2.634,2.634,2.634,2.6185,2.5961,2.57,2.5163,2.4714,2.4254,2.4228,2.3704,2.2729,2.2697,2.2303,2.1608,2.1564,2.1585,2.1561,2.1326,2.0995,2.0546,2.037,2.0189,2.0075,2.0334,2.0767,2.1293,2.1819,2.1805,2.1578,2.152,2.1677,2.196,2.2386,2.2854,2.334,2.3977,2.4594,2.5123,2.5493,2.5561,2.5465,2.5143,2.5004,2.4903,2.4802,2.4996,2.529,2.5699,2.6014,2.6116,2.5832,2.5874,2.5827,2.5421,2.5432,2.5312,2.482,2.4841,2.4929,2.4992,2.5058,2.506,2.5007,2.4949,2.4863,2.4781,2.4692,2.4607,2.453,2.4385,2.4249,2.4189,2.3922,2.3674,2.3509,2.3204,2.2945,2.2669,2.2407,2.209,2.5675,2.6648,2.705,2.5997,2.5142,2.3897,2.1329,1.9283,1.7659,1.6548,1.569,1.521,1.5449,1.6702,1.813,1.9394,2.1537,2.3796,2.5967,2.7337,2.8533,2.9656,3.0012,3.0203,3.0215,3.0342,3.038,3.0253,2.9045,2.8267,2.8079,2.8039,2.8004,2.7945,2.7584,2.7104,2.6461,2.607,2.5937,2.6045,2.5947,2.5376,2.4384,2.4342,2.3822,2.2972,2.3002,2.3032,2.2965,2.2623,2.2454,2.2331,2.1581,2.1524,2.1804,2.1763,2.2063,2.2575,2.3047,2.3463,2.3715,2.3084,2.3002,2.3245,2.3666,2.4012,2.4394,2.5019,2.5662,2.6336,2.7059,2.7048,2.6942,2.7236,2.7017,2.6757,2.687,2.7096,2.7404,2.7769,2.7923,2.7787,2.7098,2.694,2.664,2.5871,2.5655,2.5564,2.5471,2.5437,2.5396,2.5388,2.5302,2.5179,2.4956,2.4816,2.4634,2.4423,2.4275,2.4172,2.41,2.3888,2.3751,2.367,2.3294,2.3009,2.2873,2.2459,2.2119,2.1836,2.1552,2.1165,2.7153,2.7789,2.7912,2.6399,2.4978,2.3225,2.0398,1.8165,1.645,1.5524,1.5004,1.4878,1.539,1.6702,1.8019,1.8983,2.1125,2.3374,2.5396,2.7196,2.882,3.0111,3.0869,3.1257,3.1244,3.1281,3.1355,3.1502,3.1254,3.0581,2.942,2.9381,2.9144,2.8659,2.8571,2.8114,2.7218,2.722,2.7126,2.6897,2.6607,2.6116,2.5418,2.5153,2.4562,2.3816,2.4082,2.4124,2.4063,2.4321,2.424,2.3893,2.3577,2.3396,2.3288,2.3139,2.3303,2.367,2.4023,2.4521,2.4879,2.4106,2.3918,2.4091,2.4597,2.4914,2.5246,2.602,2.6589,2.7136,2.7826,2.817,2.8257,2.7938,2.7881,2.7792,2.7379,2.7542,2.7826,2.8016,2.8069,2.8065,2.7968,2.7376,2.6837,2.6617,2.5979,2.5476,2.5352,2.5365,2.5357,2.5245,2.5138,2.4948,2.4682,2.4497,2.4247,2.3935,2.3744,2.3613,2.354,2.3295,2.3116,2.306,2.2665,2.2368,2.2164,2.1777,2.14,2.1071,2.0664,2.0212,2.8338,2.8883,2.8762,2.7005,2.5453,2.3587,2.0567,1.8226,1.645,1.5488,1.496,1.48,1.53,1.6463,1.7698,1.8857,2.1,2.3314,2.57,2.787,2.9828,3.1461,3.2402,3.3045,3.3206,3.3206,3.3276,3.3345,3.3421,3.2764,3.1154,3.0742,3.0249,2.948,2.9323,2.9017,2.8643,2.8777,2.8889,2.8955,2.8608,2.8141,2.761,2.7004,2.6343,2.5713,2.5821,2.5862,2.5876,2.6078,2.6091,2.5962,2.5306,2.5072,2.5047,2.4476,2.4514,2.487,2.517,2.5605,2.5987,2.5664,2.5422,2.5306,2.5677,2.5949,2.6249,2.6853,2.738,2.7891,2.8469,2.8924,2.9177,2.9036,2.9116,2.9201,2.9046,2.9178,2.9321,2.9435,2.9445,2.9313,2.8853,2.8437,2.7958,2.7399,2.6929,2.6592,2.6458,2.6344,2.5975,2.513,2.4891,2.4667,2.4372,2.408,2.3819,2.3553,2.3295,2.3103,2.3035,2.2738,2.2554,2.2487,2.2079,2.1761,2.1476,2.1039,2.0615,2.021,1.9806,1.9339,2.9022,2.9475,2.9164,2.7363,2.5719,2.3758,2.0652,1.8387,1.6644,1.5623,1.5105,1.4949,1.53,1.6292,1.7444,1.8638,2.0693,2.2988,2.5598,2.8118,3.0425,3.2436,3.3682,3.4552,3.4967,3.4999,3.5032,3.5112,3.5224,3.4522,3.2793,3.211,3.1396,3.0591,3.0304,3.0159,3.0193,3.035,3.0587,3.0863,3.0548,3.0105,2.9542,2.8767,2.8132,2.763,2.759,2.759,2.7655,2.7788,2.793,2.797,2.6936,2.6659,2.6746,2.5812,2.5684,2.6041,2.63,2.6656,2.7026,2.7139,2.6853,2.6488,2.669,2.6918,2.7218,2.764,2.8103,2.8579,2.9037,2.9457,2.9805,2.9961,3.0136,3.0304,3.0476,3.0575,3.065,3.0697,3.0696,3.0431,2.9667,2.9373,2.8946,2.8113,2.7764,2.7528,2.7369,2.7134,2.6526,2.5271,2.4904,2.4549,2.4058,2.3696,2.3387,2.3145,2.282,2.2584,2.248,2.2167,2.1965,2.1863,2.146,2.1086,2.0748,2.0297,1.9829,1.9394,1.8964,1.8447,2.88,2.8963,2.8574,2.6942,2.4979,2.2713,1.9842,1.7932,1.6418,1.536,1.5187,1.5311,1.5524,1.6449,1.7353,1.7916,1.9761,2.1843,2.3931,2.6702,2.9464,3.1959,3.3616,3.4871,3.5619,3.5711,3.5838,3.6136,3.6131,3.5489,3.4097,3.3349,3.2653,3.2034,3.199,3.1783,3.1422,3.1704,3.1674,3.1422,3.1335,3.0886,3.0101,2.9678,2.9198,2.8778,2.9007,2.8962,2.8785,2.9335,2.9577,2.9513,2.8616,2.8284,2.8177,2.7046,2.6787,2.6996,2.7213,2.7566,2.7977,2.8063,2.7685,2.7243,2.7502,2.7734,2.7999,2.8455,2.8799,2.9111,2.9532,2.9792,3.0026,3.0228,3.0372,3.0489,3.0575,3.0641,3.0683,3.0709,3.0648,3.0544,3.0327,2.958,2.8924,2.8655,2.7828,2.7153,2.6888,2.6727,2.646,2.5946,2.5489,2.4825,2.381,2.338,2.2984,2.2608,2.2317,2.2039,2.1702,2.1492,2.1291,2.1102,2.0649,2.028,1.9989,1.954,1.9099,1.8688,1.8046,1.7517,2.806,2.8436,2.8109,2.6826,2.5033,2.2843,1.9996,1.8196,1.6823,1.5725,1.5635,1.5768,1.5935,1.6632,1.7407,1.8105,0.0,2.1937,2.3736,2.6773,2.9621,3.1815,3.3699,3.5401,3.681,3.7061,3.7271,3.7533,3.7161,3.6558,3.5705,3.4553,3.3671,3.3134,3.3103,3.3101,3.3098,3.2943,3.2917,3.3045,3.2231,3.1719,3.1499,3.0866,3.0455,3.0294,3.0311,3.0332,3.0377,3.0597,3.0878,3.0997,2.9763,2.9745,3.0201,2.8388,2.8159,2.8734,2.8322,2.8406,2.8705,2.8727,2.8702,2.8595,2.8419,2.8506,2.8716,2.8997,2.9293,2.9585,2.9875,3.0121,3.0327,3.0448,3.0517,3.0589,3.0648,3.0644,3.063,3.0586,3.0459,3.0298,3.0132,2.9687,2.9266,2.897,2.8501,2.8077,2.7805,2.7502,2.6997,2.6158,2.5314,2.4555,2.3883,2.3045,2.2391,2.1986,2.1564,2.1196,2.0879,2.0617,2.0383,2.0215,1.9846,1.9434,1.8999,1.8559,1.8125,1.7626,1.7071,1.6587,2.6611,2.7208,2.7105,2.6034,2.4405,2.2392,1.9874,1.824,1.7012,1.6118,1.6044,1.6197,1.6318,1.6863,1.7518,0.0,0.0,2.1852,2.3392,2.6568,2.9441,3.1369,3.3542,3.5498,3.7068,3.7709,3.8028,3.8016,3.7648,3.7204,3.6671,3.5733,3.4931,3.4309,3.4341,3.4339,3.4268,3.4004,3.3873,3.382,3.2989,3.2571,3.2572,3.2053,3.181,3.1757,3.1686,3.1722,3.1847,3.1935,3.2175,3.2348,3.1138,3.12,3.1759,2.9699,2.9448,3.0028,2.9256,2.9151,2.9371,2.9392,2.9557,2.9668,2.9336,2.9297,2.9383,2.9532,2.978,3.0032,3.0222,3.0406,3.0575,3.0591,3.0609,3.0614,3.0623,3.0572,3.0477,3.0351,3.0181,2.9975,2.9708,2.9486,2.9206,2.8864,2.8633,2.8357,2.8058,2.7688,2.7065,2.6096,2.4996,2.4209,2.387,2.2784,2.1936,2.1535,2.086,2.0334,2.001,1.987,1.9701,1.9467,1.9247,1.8893,1.8371,1.7858,1.7318,1.6775,1.6212,1.5656,2.4307,2.5111,2.5372,2.4293,2.2685,2.0899,1.9182,1.7869,1.6851,1.6311,1.6362,1.6531,1.668,1.7131,1.7598,1.7942,0.0,0.0,2.2544,2.566,2.8516,3.0398,3.2988,3.5011,3.6015,3.7334,3.7809,3.7158,3.7348,3.7259,3.6739,3.6821,3.6501,3.5698,3.5803,3.5488,3.4695,3.4888,3.4377,3.3208,3.353,3.3443,3.2993,3.3192,3.3204,3.3079,3.315,3.3143,3.3089,3.3368,3.3506,3.3526,3.2921,3.2686,3.2514,3.1017,3.0572,3.0602,2.9921,2.9812,2.9997,3.0074,3.0176,3.0282,3.0283,3.0143,3.0023,3.0157,3.0348,3.0506,3.057,3.0642,3.068,3.0627,3.0605,3.0584,3.0511,3.0393,3.0213,2.9963,2.9804,2.9568,2.9182,2.8887,2.8579,2.8164,2.7871,2.7578,2.717,2.682,2.6387,2.5773,2.4687,2.3922,2.372,2.2604,2.1732,2.1324,2.0302,1.9495,1.9037,1.94,1.9367,1.8927,1.8976,1.8787,1.8289,1.7505,1.6834,1.6291,1.5487,1.472,2.2506,2.3385,2.371,2.3025,2.1854,2.0448,1.8758,1.7797,1.7122,1.6638,1.6705,1.6926,1.7206,1.7686,1.8173,1.8549,2.0304,0.0,2.2536,2.5546,2.8222,2.9665,3.3357,3.6219,3.7413,3.85,3.8916,3.8438,3.8519,3.8347,3.7807,3.7874,3.7596,3.6884,3.6371,3.6082,3.6004,3.4978,3.4368,3.4227,3.3822,3.3629,3.3625,3.3789,3.3817,3.3788,3.384,3.393,3.3995,3.408,3.4242,3.4353,3.3591,3.3734,3.4148,3.2572,3.205,3.2025,3.1264,3.0673,3.0285,3.0342,3.0395,3.0447,3.05,3.0436,3.0361,3.0459,3.0516,3.072,3.1381,3.1564,3.1717,3.2195,3.2189,3.207,3.1953,3.1694,3.1366,3.1044,3.0296,2.9562,2.9114,2.8285,2.7534,2.7134,2.6769,2.6404,2.5988,2.557,2.5118,2.4578,2.3882,2.3417,2.3309,2.2049,2.1078,2.0573,1.9809,1.9202,1.8809,1.8715,1.8516,1.8215,1.8003,1.77,1.7279,1.6663,1.5873,1.4991,1.4368,1.3894,2.0168,2.1175,2.1684,2.1122,2.0362,1.9434,1.8179,1.7509,1.7084,1.6837,1.6994,1.7253,1.7557,1.8088,1.8616,1.8949,2.0714,2.2198,2.2629,2.5625,2.8648,3.0991,3.4154,3.6661,3.796,3.8723,3.9067,3.8908,3.8953,3.8848,3.8545,3.8275,3.7989,3.764,3.6973,3.64,3.5965,3.5012,3.4535,3.4522,3.414,3.4103,3.4315,3.4457,3.4523,3.4555,3.4595,3.4679,0.0,3.48,3.4917,3.4997,3.4498,3.4702,3.5097,3.3787,3.3137,3.2798,3.1984,3.1199,3.0519,3.0567,3.0569,3.0538,3.0566,3.0574,3.0657,3.0997,3.1067,3.1269,3.2141,3.2353,3.2411,3.2761,3.267,3.2422,3.2205,3.1765,3.1342,3.0972,3.0107,2.9257,2.8752,2.7912,2.716,2.6708,2.607,2.5525,2.5091,2.4405,2.3788,2.3259,2.2735,2.2306,2.2025,2.1248,2.0505,1.9947,1.9152,1.8557,1.821,1.8114,1.7946,1.7763,1.7519,1.7217,1.687,1.612,1.5341,1.4501,1.4138,1.3887,0.0,1.8727,1.9419,1.8821,1.8409,1.8003,1.7473,1.7033,0.0,1.691,1.7204,1.7536,1.7821,1.8403,1.894,1.9244,2.1015,2.2484,2.2846,2.5986,2.9719,3.3763,3.5216,3.6435,3.782,3.8257,3.8557,3.8755,3.8783,3.8832,3.8915,3.8138,3.7752,3.7885,3.7475,3.6499,3.4982,3.5043,3.4797,3.4281,3.4528,3.4784,3.5024,3.5166,3.5268,3.5335,3.5335,3.5372,3.5427,3.5502,3.5524,3.5524,3.5524,3.5529,3.5437,3.4697,3.3898,3.3084,3.2271,3.1456,3.0761,3.0699,3.0668,3.0645,3.0581,3.0661,3.0929,3.1669,3.188,3.204,3.2845,3.299,3.2861,3.2586,3.2283,3.1975,3.1566,3.1003,3.0438,3.0041,2.9418,2.8759,2.8155,2.7668,2.7178,2.6641,2.5691,2.4847,2.4328,2.3368,2.2506,2.1838,2.1328,2.0743,2.0131,2.0206,2.0019,1.9349,1.8408,1.7714,1.7386,1.76,1.7627,1.7442,1.735,1.7196,1.6927,1.5866,1.5145,1.4706,1.4629,1.4506,1.5625,0.0,1.8129,1.7691,1.7626,1.7523,0.0,1.6893,1.7015,1.7225,1.7604,1.8002,1.8475,1.8978,1.9515,2.0032,2.1723,2.3171,2.3653,2.6996,3.0734,3.4305,3.5343,3.6504,3.8392,3.8901,3.9206,3.9529,3.9074,3.8833,3.8906,3.8137,3.7442,3.6866,3.6747,3.6377,3.5739,3.5162,3.487,3.4882,3.4993,3.5156,3.5316,3.5436,3.5539,3.5614,3.5667,3.5694,3.5711,3.5729,3.5769,3.5806,3.5804,3.5804,3.5788,3.5588,3.4975,3.4121,3.3218,3.2323,3.1492,3.0725,3.0831,3.1288,3.1199,3.1328,3.1487,3.1637,3.2072,3.2651,3.3358,3.3368,3.3272,3.3566,3.3255,3.2813,3.2397,3.1755,3.1098,3.0532,2.937,2.8248,2.7611,2.6645,2.5811,2.5325,2.4851,2.4182,2.3166,2.2522,2.177,2.0709,2.0206,1.9683,1.8965,1.9198,1.9163,1.8591,1.7904,1.7404,1.7103,1.706,1.696,1.6821,1.6535,1.6285,1.6009,1.5385,1.5041,1.4914,1.469,1.4558,1.53,1.6188,1.6964,1.6871,1.704,1.7169,1.6961,1.7136,1.7406,1.772,1.8101,1.8563,1.9035,1.9536,2.0161,2.104,2.2519,2.4315,2.6446,2.9301,3.2103,3.4603,3.5608,3.662,3.7941,3.8342,3.8624,3.8861,3.8569,3.8405,3.8431,3.7716,3.7086,3.6651,3.6311,3.5983,3.5677,3.5291,3.515,3.527,3.538,3.5481,3.5592,3.5681,3.5568,3.5256,3.5677,3.5614,3.5288,3.5682,3.5879,3.5897,3.5898,3.5898,3.5895,3.5868,3.5285,3.4434,3.3893,3.3045,3.2131,3.1515,3.1532,3.1741,3.155,3.1775,3.2159,3.2329,3.2583,3.2917,3.3443,3.3336,3.3087,3.3008,3.2604,3.2081,3.1566,3.0838,3.015,2.961,2.8553,2.7549,2.6905,2.6059,2.5274,2.4743,2.4127,2.3391,2.2445,2.1701,2.0833,1.967,1.918,1.8596,1.7804,1.7781,1.7809,1.7793,1.7435,1.7112,1.6909,1.6733,1.6477,1.6181,1.6009,1.5846,1.5701,1.5434,1.5372,1.5493,1.5501,1.5466,1.5678,1.5976,1.6185,1.6414,1.6748,1.7065,1.7282,0.0,0.0,1.8293,1.8736,1.9177,1.9591,2.0218,2.1014,2.2134,2.3634,2.5995,2.9823,3.1786,3.3357,3.4825,3.5913,3.6739,3.724,3.7533,3.7736,3.7856,3.7809,3.7778,3.7782,3.7072,3.6668,3.6653,3.6064,3.5613,3.538,3.5441,3.5498,3.5553,3.5677,3.5763,3.5818,3.5871,3.5527,3.4902,3.5463,3.5359,3.4829,3.5438,3.5759,3.5853,3.5845,3.5855,3.5829,3.5764,3.5223,3.4495,3.4248,3.3414,3.2453,3.231,3.2204,3.206,3.173,3.209,3.266,3.295,3.295,3.2908,3.3095,3.2862,3.241,3.1673,3.111,3.0569,2.9936,2.9163,2.8459,2.7972,2.7299,2.6596,2.5984,2.5425,2.4881,2.4284,2.3402,2.255,2.1868,2.0981,1.9965,1.8851,1.8278,1.7665,1.6885,1.6459,1.6485,1.6994,1.6909,1.6768,1.6637,1.6402,1.6087,1.5672,1.5643,1.5672,1.5701,1.573,1.5894,1.62,1.6542,1.668,1.5856,1.6315,1.6689,1.6812,1.7115,1.7496,1.7808,0.0,0.0,1.8997,1.9456,1.9941,2.035,2.1439,2.2455,2.3111,2.5701,2.8676,3.1619,3.2513,3.3516,3.5274,3.5946,3.6641,3.76,3.7905,3.8063,3.8132,3.7564,3.7222,3.7225,3.6475,3.6046,3.6039,3.5927,3.5852,3.5813,3.5759,3.5765,3.5846,3.5869,3.5878,3.5878,3.5891,3.5836,3.5678,3.5063,3.5104,3.5569,3.4966,3.5088,3.5654,3.5659,3.5611,3.5556,3.5483,3.5303,3.4932,3.3904,3.2836,3.189,3.1697,3.1923,3.2208,3.1869,3.2121,3.2404,3.1928,3.2238,3.2601,3.2101,3.1548,3.0976,3.0342,2.9626,2.8935,2.8506,2.782,2.7143,2.6617,2.5915,2.5176,2.4469,2.3949,2.345,2.2985,2.2609,2.2025,2.0941,2.057,1.9875,1.8509,1.7911,1.737,1.6844,1.6396,1.6171,1.6257,1.6124,1.6019,1.5875,1.5817,1.5691,1.5449,1.5449,1.5546,1.5701,1.5797,1.6142,1.6694,1.6976,1.7219,1.657,1.7021,1.7435,1.7828,1.7928,1.8028,1.8408,0.0,0.0,1.9722,2.0249,2.0766,2.1133,2.2292,2.3859,2.587,2.837,3.0709,3.2665,3.3544,3.433,3.5314,3.5674,3.6046,3.6605,3.6771,3.6686,3.6282,3.5941,3.5549,3.507,3.4706,3.4492,3.4491,3.4953,3.5198,3.5192,3.5093,3.5321,3.5898,3.5908,3.5895,3.5887,3.5337,3.485,3.4416,3.3938,3.3686,3.3611,3.4089,3.4467,3.4775,3.5219,3.5295,3.5155,3.4907,3.469,3.4458,3.3758,3.3038,3.2394,3.2137,3.2038,3.1953,3.1563,3.1375,3.1158,3.0493,3.0968,3.1492,3.0665,3.0034,2.9425,2.863,2.7999,2.7415,2.6872,2.6506,2.6134,2.5557,2.4909,2.4227,2.3545,2.2788,2.207,2.151,2.1259,2.0819,2.0003,1.98,1.9297,1.8197,1.776,1.7256,1.6497,1.6208,1.6106,1.6095,1.6134,1.6087,1.5923,1.5923,1.5836,1.5662,1.5662,1.5817,1.6087,1.6296,1.6694,1.7284,1.7634,1.7989,1.7394,1.7834,1.8308,1.893,1.8831,1.8698,0.0,0.0,2.0195,2.055,2.1086,2.1607,2.1915,2.3281,2.547,2.8895,3.0727,3.2228,3.3669,3.4553,3.514,3.5378,3.5502,3.5545,3.5451,3.5486,3.5171,3.4355,3.4296,3.3999,3.331,3.3257,3.3246,3.3222,3.3863,3.4202,3.4198,3.4097,3.4551,3.555,3.5329,3.522,3.5194,3.4404,3.3702,3.3098,3.277,3.2374,3.2005,3.3224,3.3777,3.3941,3.4721,3.4874,3.4602,3.421,3.3907,3.3661,3.3364,3.3,3.26,3.2242,3.1812,3.1376,3.0842,3.0319,2.9751,2.9076,2.9341,2.9686,2.9102,2.8553,2.793,2.7034,2.6503,2.6011,2.5412,2.5341,2.523,2.4641,2.4129,2.3531,2.2682,2.1774,2.0941,2.0248,1.9966,1.9715,1.9243,1.9088,1.8765,1.8056,1.7763,1.7194,1.6194,1.6037,1.6009,1.6058,1.6278,1.6345,1.6181,1.6181,1.6095,1.5933,1.5933,1.6105,1.6459,1.6761,1.7228,1.7838,1.8236,1.8694,1.8125,1.8712,1.9295,1.9783,1.9671,0.0,2.0002,2.0566,2.1102,2.1445,2.1989,2.2499,2.2754,2.4719,2.7552,3.1327,3.2213,3.3097,3.4988,3.5427,3.5586,3.5666,3.5728,3.5497,3.4744,3.4686,3.4327,3.3456,3.3397,3.3341,3.3203,3.3149,3.3096,3.303,3.3015,3.3018,3.301,3.3018,3.3509,3.4501,3.362,3.3214,3.3207,3.3068,3.294,3.2775,3.1968,3.1959,3.2546,3.2599,3.2931,3.3516,3.4256,3.4281,3.3836,3.3506,3.3158,3.2827,3.2359,3.1987,3.1612,3.1089,3.0731,3.0377,2.9648,2.9114,2.8561,2.7838,2.7274,2.703,2.7515,2.7242,2.6637,2.5877,2.53,2.4821,2.4465,2.4458,2.4325,2.3773,2.3543,2.3001,2.1652,2.0952,2.0285,1.9505,1.9253,1.9098,1.8875,1.8841,1.8697,1.8331,1.7853,1.7194,1.6194,1.5861,1.577,1.5914,1.6202,1.6374,1.6374,1.6374,1.6278,1.6085,1.6085,1.6257,1.6581,1.6965,1.7551,1.8278,1.8598,1.9052,1.9207,1.9786,2.0355,2.0863,2.1068,0.0,0.0,2.2098,2.2765,2.3594,2.3798,2.3975,2.4545,2.5921,2.7875,3.0513,3.1534,3.2459,3.3774,3.4089,3.4171,3.4196,3.4196,3.406,3.3694,3.3626,3.3248,3.2369,3.227,3.1994,3.1434,3.1364,3.1334,3.1268,3.168,3.1917,3.1904,3.1778,3.1909,3.229,3.2692,3.2846,3.2795,3.2144,3.1775,3.1637,3.0635,3.0289,3.0518,3.0948,3.1507,3.2182,3.3038,3.3143,3.2767,3.2429,3.2091,3.1739,3.1263,3.0799,3.0311,2.974,2.9288,2.8848,2.8235,2.7689,2.7166,2.6491,2.5972,2.5714,2.6293,2.6053,2.5494,2.4922,2.4507,2.4157,2.3822,2.3748,2.3709,2.3514,2.2916,2.2138,2.1308,2.0453,1.9592,1.8792,1.863,1.8539,1.8337,1.8313,1.8313,1.8303,1.8005,1.7528,1.6835,1.6467,1.6185,1.6029,1.6259,1.6459,1.6648,1.6722,1.674,1.6673,1.6673,1.6768,1.7043,1.744,1.7963,1.8625,1.8999,1.9382,2.0289,2.0879,2.1405,2.1914,0.0,0.0,2.3549,2.377,2.4023,2.4893,2.5278,2.5716,2.6541,2.7337,2.8483,3.0391,3.1307,3.2073,3.3003,3.3203,3.3251,3.3218,3.3145,3.2985,3.2658,3.2575,3.2149,3.1297,3.1135,3.0836,3.0203,3.011,3.0032,2.9909,3.014,3.0243,3.02,3.0056,2.9964,2.9936,3.1011,3.1572,3.1567,3.086,3.0461,3.0302,2.9563,2.9156,2.9071,2.9791,3.0507,3.1241,3.1998,3.2109,3.1809,3.144,3.1041,3.065,3.014,2.9598,2.9032,2.8442,2.7951,2.7495,2.6975,2.6441,2.5933,2.5398,2.495,2.475,2.509,2.4964,2.4595,2.4176,2.3852,2.3582,2.3313,2.3207,2.3115,2.2952,2.223,2.14,2.0712,1.9895,1.9097,1.8305,1.8269,1.8236,1.811,1.8178,1.8337,1.8539,1.8169,1.7756,1.746,1.695,1.6567,1.6335,1.6495,1.6666,1.6864,1.6994,1.7078,1.7078,1.7078,1.7172,1.7306,1.7689,1.8182,1.8732,1.9105,1.9434,2.1314,2.1885,2.2405,2.2879,2.3267,2.4005,2.5958,2.5474,2.4707,2.4983,2.6247,2.7643,2.8702,2.9003,2.9693,3.1472,3.1832,3.2182,3.3052,3.3159,3.3112,3.2986,3.2917,3.253,3.1671,3.1527,3.1117,3.0246,3.0068,2.9954,2.9864,2.9678,2.9476,2.9273,2.843,2.7921,2.7788,2.7788,2.7724,2.7603,2.8411,2.8927,2.919,2.914,2.902,2.8888,2.8888,2.8772,2.8651,2.9303,3.0104,3.0904,3.1225,3.123,3.1016,3.0538,3.0084,2.9592,2.8986,2.8386,2.7815,2.7261,2.6823,2.6373,2.5919,2.5398,2.4922,2.4567,2.4203,2.3891,2.3891,2.3982,2.4015,2.3675,2.3348,2.3047,2.2909,2.2771,2.2536,2.1993,2.1563,2.0898,1.9702,1.9213,1.8785,1.811,1.8168,1.8303,1.8303,1.8607,1.8875,1.9065,1.8406,1.7914,1.7914,1.7233,1.6818,1.6818,1.6937,1.7011,1.7011,1.72,1.7306,1.7306,1.7306,1.7306,1.7306,1.77,1.8116,1.8587,1.8854,1.9198,2.1558,2.2078,2.2535,2.2913,2.3609,2.4412,2.517,2.5762,2.6442,2.7466,2.814,2.8508,2.8308,2.8792,2.943,2.9944,3.0539,3.0995,3.1208,3.1187,3.1114,3.0981,3.0899,3.0694,3.0296,3.02,2.9803,2.8933,2.8778,2.8444,2.7764,2.7568,2.7441,2.7327,2.6932,2.6717,2.6684,2.6439,2.6531,2.6962,2.7014,2.7684,2.8847,2.873,2.8578,2.8389,2.8152,2.7925,2.7728,2.8159,2.8305,2.8345,2.8671,2.8518,2.8151,2.8196,2.7913,2.7517,2.7479,2.7155,2.6625,2.5822,2.5425,2.5134,2.4568,2.4281,2.4092,2.3809,2.3628,2.3522,2.336,2.3378,2.3365,2.3258,2.303,2.2726,2.2463,2.1969,2.1564,2.1484,2.0756,2.0031,1.9581,1.9064,1.8601,1.8271,1.8347,1.8573,1.8944,1.9408,1.9586,1.9254,1.9238,1.8975,1.8306,1.8045,1.7748,1.7334,1.7329,1.7357,1.7357,1.7507,1.7573,1.7573,1.749,1.7407,1.7306,1.7368,1.7661,1.8116,1.8387,1.8694,2.265,2.3069,2.3413,2.3717,2.4284,2.4941,2.5515,2.6439,2.7624,2.9158,2.9585,2.9554,2.9082,2.9421,2.9753,2.9705,2.9811,2.9974,3.0161,2.9614,2.9251,2.9402,2.9075,2.8774,2.8603,2.8531,2.8259,2.7716,2.7593,2.7273,2.6634,2.6444,2.6293,2.6143,2.5655,2.5362,2.529,2.5014,2.5063,2.5436,2.5772,2.6449,2.7396,2.7765,2.7812,2.7616,2.7263,2.6949,2.6724,2.7068,2.6963,2.6607,2.6896,2.6765,2.6428,2.6374,2.621,2.6004,2.5897,2.572,2.5398,2.4697,2.4352,2.4089,2.3653,2.3475,2.3382,2.309,2.3,2.2969,2.2787,2.2757,2.2787,2.3,2.2757,2.2402,2.2037,2.1293,2.0702,2.0643,1.9874,1.9172,1.9045,1.8735,1.8473,1.8377,1.8731,1.9231,1.9868,2.0093,2.0115,1.9907,1.9739,1.9381,1.8805,1.8549,1.8198,1.7767,1.7645,1.7562,1.7496,1.7545,1.7545,1.7545,1.734,1.7172,1.7015,1.6976,1.7151,1.754,1.7843,1.8209,2.4107,2.4343,2.4512,2.4836,2.5081,2.5517,2.6571,2.7287,2.8194,2.9935,3.031,3.0343,3.0263,3.0257,3.0206,3.0061,2.9363,2.904,2.9578,2.8385,2.7661,2.8189,2.7555,2.7026,2.6879,2.6802,2.6686,2.6559,2.6479,2.6318,2.6052,2.584,2.5594,2.5343,2.4484,2.3928,2.3746,2.3545,2.3434,2.3415,2.4585,2.5178,2.5296,2.6416,2.6839,2.6657,2.6264,2.5928,2.5668,2.5949,2.5783,2.5371,2.5611,2.5538,2.5299,2.4824,2.473,2.4771,2.4324,2.4186,2.4147,2.3771,2.3514,2.33,2.3053,2.2914,2.2787,2.2451,2.2389,2.2359,2.2216,2.2185,2.2278,2.2665,2.242,2.1987,2.1565,2.0698,1.9944,1.9605,1.8975,1.8448,1.8303,1.8303,1.8371,1.8583,1.9353,2.015,2.0803,2.0602,2.0495,2.0723,1.9917,1.9352,1.9277,1.8744,1.8313,1.8084,1.7822,1.7617,1.744,1.7351,1.7306,1.7278,1.6959,1.6733,1.6581,1.6552,1.6684,1.6955,1.7273,1.7717,2.3589,2.3509,2.3389,2.4174,2.4942,2.5742,2.6667,2.6947,2.7316,2.8382,2.859,2.8518,2.8397,2.8338,2.8244,2.8043,2.7866,2.7755,2.7773,2.7449,2.7187,2.7158,2.698,2.6772,2.6521,2.6454,2.6093,2.5336,2.5183,2.4787,2.4063,2.3724,2.353,2.3415,2.2903,2.2586,2.2491,2.2276,2.2353,2.2716,2.2932,2.3468,2.4269,2.5705,2.6159,2.5762,2.5351,2.495,2.4521,2.4343,2.3982,2.354,2.333,2.2991,2.2653,2.279,2.2886,2.2951,2.3196,2.3433,2.3509,2.2896,2.2787,2.2739,2.2173,2.2235,2.2451,2.2111,2.2204,2.2359,2.2216,2.2068,2.192,2.1765,2.1514,2.1167,2.0537,1.9922,1.9375,1.9042,1.864,1.8337,1.8303,1.8303,1.8573,1.9386,2.0172,2.0692,2.0804,2.1109,2.1026,2.0254,1.9992,1.9636,1.9123,1.8738,1.8371,1.7963,1.7689,1.7357,1.6976,1.7183,1.7239,1.7078,1.6797,1.6591,1.6431,1.6173,1.623,1.6545,1.6818,1.7145,2.4409,2.4366,2.4241,2.4707,2.5194,2.5658,2.609,2.6136,2.6176,2.6536,2.7272,2.7817,2.7636,2.7541,2.7417,2.7237,2.6895,2.6725,2.697,2.6291,2.5838,2.6064,2.569,2.5319,2.5078,2.4989,2.4703,2.4076,2.3945,2.3652,2.31,2.2782,2.2554,2.2422,2.2053,2.1822,2.172,2.1447,2.1439,2.1697,2.1818,2.2407,2.3413,2.4748,2.5125,2.4712,2.4405,2.4012,2.355,2.3179,2.2756,2.2291,2.2002,2.166,2.134,2.1377,2.1485,2.1686,2.2018,2.2317,2.2501,2.2347,2.2371,2.2383,2.1855,2.1906,2.2049,2.1569,2.16,2.1757,2.1423,2.1253,2.1083,2.0624,2.0688,2.0688,2.002,1.9452,1.8954,1.864,1.8337,1.8178,1.8178,1.8496,1.9088,1.9966,2.0784,2.1257,2.12,2.1328,2.1113,2.033,1.9863,1.9395,1.8851,1.8414,1.8007,1.7606,1.7245,1.6909,1.6581,1.6666,1.6684,1.656,1.6314,1.6134,1.6058,1.5788,1.5817,1.6173,1.6449,1.6779,2.5262,2.5329,2.5351,2.5297,2.5363,2.5446,2.5374,2.5293,2.5186,2.4999,2.6173,2.7166,2.6972,2.6811,2.6697,2.6562,2.5976,2.5735,2.6273,2.5152,2.444,2.4951,2.4317,2.3761,2.3549,2.3458,2.3307,2.3057,2.294,2.2799,2.2602,2.232,2.2079,2.1895,2.1553,2.1308,2.1183,2.0877,2.0712,2.0677,2.0967,2.1519,2.2283,2.3269,2.3715,2.3709,2.3486,2.3113,2.264,2.2258,2.1837,2.141,2.1155,2.0896,2.0635,2.0422,2.054,2.0822,2.0974,2.1285,2.1643,2.1909,2.2082,2.2123,2.1749,2.1749,2.1737,2.1094,2.1031,2.1031,2.0529,2.0367,2.0205,1.9671,1.9955,2.0183,1.9539,1.9042,1.8607,1.8303,1.811,1.8008,1.8076,1.8731,1.9507,2.0291,2.1071,2.1521,2.1397,2.1215,2.0869,2.0306,1.9546,1.8948,1.856,1.7968,1.7484,1.7134,1.674,1.641,1.621,1.6085,1.5999,1.597,1.5817,1.5701,1.5701,1.5507,1.5565,1.5924,1.6163,1.6513,2.4465,2.4416,2.4372,2.4381,2.4853,2.5313,2.5234,2.5132,2.4981,2.4785,2.5065,2.5282,2.5011,2.4914,2.4811,2.4672,2.457,2.4497,2.4532,2.4308,2.4072,2.394,2.3739,2.3538,2.3289,2.3126,2.2977,2.2777,2.2575,2.2395,2.2181,2.1822,2.1584,2.1478,2.1103,2.0828,2.0697,2.053,2.034,2.0111,2.0277,2.026,2.0131,2.0681,2.1686,2.3009,2.2649,2.2212,2.1746,2.1458,2.1104,2.0709,2.0573,2.0346,2.0105,2.0067,2.0227,2.0463,2.036,2.0893,2.1541,2.1326,2.1691,2.2092,2.1588,2.1557,2.162,2.1051,2.0935,2.0871,2.0496,2.0259,2.0009,1.9474,1.932,1.9175,1.8741,1.8516,1.8303,1.8076,1.8008,1.8076,1.8381,1.8808,1.9419,2.0269,2.0837,2.1008,2.0528,2.0598,2.0302,1.931,1.8902,1.8548,1.8213,1.7611,1.7106,1.6712,1.6371,1.6066,1.5788,1.5759,1.5662,1.5497,1.5643,1.5701,1.5701,1.5507,1.5565,1.5885,1.6066,1.6314,2.3625,2.3556,2.3566,2.3979,2.4303,2.4613,2.4948,2.4967,2.4825,2.4631,2.4631,2.4615,2.4462,2.4384,2.4302,2.4191,2.419,2.4162,2.4054,2.3937,2.3795,2.3602,2.3417,2.3223,2.3008,2.2829,2.2615,2.2378,2.2186,2.1957,2.1718,2.1354,2.1103,2.0958,2.0663,2.0443,2.0272,2.0083,1.9815,1.9446,1.9343,1.9276,1.9245,1.9349,2.0029,2.108,2.0834,2.0675,2.0574,2.0382,2.0286,2.0258,2.0207,2.0054,1.9875,1.9798,1.9792,1.9867,1.9946,2.037,2.0871,2.0973,2.1417,2.1843,2.1411,2.1273,2.1115,2.0518,2.0259,2.0064,1.9605,1.9429,1.9253,1.8854,1.8697,1.8573,1.8279,1.8269,1.8236,1.8042,1.8008,1.811,1.8448,1.8627,1.8974,1.9725,2.0036,2.0051,1.9673,1.9807,1.9551,1.8592,1.8333,1.7979,1.7429,1.6965,1.6513,1.6124,1.5855,1.5642,1.5546,1.5546,1.5478,1.541,1.5478,1.5546,1.5546,1.5449,1.5536,1.5798,1.5923,1.6114,2.2728,2.2635,2.2663,2.3202,2.344,2.3693,2.4388,2.4478,2.4403,2.4449,2.4364,2.4275,2.4182,2.4154,2.4134,2.4056,2.4016,2.3966,2.3834,2.3718,2.3558,2.3383,2.3151,2.2932,2.2725,2.2511,2.2274,2.2027,2.1796,2.154,2.1261,2.091,2.0647,2.0446,2.0202,1.999,1.9863,1.9563,1.9232,1.8827,1.8528,1.8416,1.8506,1.8288,1.8465,1.8953,1.9204,1.9364,1.9445,1.9492,1.9594,1.9775,1.9901,1.9875,1.9734,1.963,1.9486,1.9364,1.9498,1.9785,2.0126,2.0422,2.0868,2.1292,2.106,2.0828,2.0506,1.9966,1.9638,1.9374,1.8908,1.8808,1.8707,1.8371,1.8337,1.8279,1.8042,1.811,1.8202,1.811,1.8076,1.8138,1.8365,1.8359,1.851,1.8963,1.9089,1.9025,1.8731,1.8834,1.8611,1.786,1.765,1.7329,1.6722,1.6371,1.6066,1.5711,1.5507,1.541,1.541,1.541,1.541,1.541,1.541,1.541,1.541,1.541,1.5507,1.5701,1.5807,1.5973,2.1703,2.1625,2.1577,2.1546,2.2018,2.2666,2.3404,2.3412,2.3479,2.4164,2.4163,2.3978,2.3847,2.3927,2.3996,2.3917,2.3806,2.37,2.3627,2.351,2.3324,2.307,2.2855,2.2632,2.2432,2.2172,2.1926,2.1738,2.148,2.1183,2.0844,2.0446,2.0172,2.0025,1.965,1.9431,1.9431,1.8917,1.8553,1.8324,1.7942,1.7645,1.7465,1.7201,1.7003,1.6922,1.8261,1.8706,1.8503,1.9013,1.9156,1.9096,1.961,1.9734,1.9617,1.9617,1.9422,1.9172,1.8928,1.9112,1.9453,1.9475,1.9841,2.0299,2.0415,2.0172,1.9813,1.9671,1.9374,1.9075,1.8875,1.8808,1.8707,1.8371,1.8414,1.8414,1.8076,1.8008,1.8076,1.8236,1.8269,1.8231,1.8139,1.8155,1.8194,1.8101,1.8068,1.7949,1.7629,1.7595,1.7423,1.6917,1.6751,1.657,1.6353,1.6085,1.5855,1.5701,1.5507,1.541,1.541,1.541,1.541,1.541,1.541,1.541,1.541,1.541,1.5507,1.5701,1.5701,1.5988,2.0776,2.1066,2.1354,2.1284,2.177,2.232,2.2499,2.281,2.3113,2.3244,2.3515,2.3721,2.3613,2.3728,2.3764,2.3664,2.3609,2.3508,2.3307,2.3151,2.3008,2.2777,2.249,2.224,2.2087,2.1811,2.1555,2.1388,2.1039,2.0762,2.0545,2.0172,1.9909,1.9797,1.949,1.9176,1.8879,1.8442,1.8108,1.7908,1.7557,1.7261,1.7078,1.6888,1.6705,1.659,1.709,1.7505,1.7781,1.7983,1.8404,1.902,1.9208,1.9408,1.9591,1.9486,1.9303,1.9013,1.8679,1.8732,1.8902,1.8601,1.8855,1.9268,1.9095,1.8909,1.8785,1.8838,1.8575,1.8352,1.8435,1.8371,1.8279,1.8303,1.8337,1.8371,1.8347,1.8245,1.8236,1.8414,1.8108,1.7892,1.8058,1.7539,1.7165,1.7325,1.7045,1.6767,1.6717,1.6725,1.6759,1.6807,1.6758,1.6724,1.6749,1.6387,1.6098,1.5959,1.5606,1.541,1.541,1.541,1.541,1.541,1.541,1.541,1.541,1.541,1.5586,1.5959,1.5959,1.6205,2.0581,2.0947,2.1304,2.1486,2.1831,2.2163,2.2296,2.2581,2.2857,2.2984,2.3236,2.3411,2.3336,2.3365,2.3399,2.3377,2.3319,2.3199,2.2952,2.2829,2.2642,2.2385,2.2099,2.1836,2.1721,2.1402,2.1135,2.1006,2.0679,2.041,2.0206,1.9856,1.9533,1.924,1.9045,1.8702,1.8246,1.7942,1.7693,1.7455,1.7178,1.696,1.6825,1.6684,1.6577,1.65,1.65,1.6735,1.7099,1.7322,1.7928,1.8744,1.8933,1.9233,1.9512,1.942,1.921,1.8893,1.8572,1.8478,1.8453,1.8154,1.8254,1.8471,1.8382,1.8272,1.8193,1.826,1.8069,1.7831,1.7951,1.7942,1.7917,1.8118,1.8261,1.8438,1.864,1.8472,1.8371,1.8573,1.8121,1.777,1.794,1.7164,1.6567,1.6604,1.6191,1.5912,1.5999,1.6131,1.6314,1.6547,1.6688,1.6808,1.6888,1.661,1.6353,1.6105,1.5821,1.5566,1.542,1.5557,1.5625,1.5625,1.5781,1.5859,1.5859,1.5703,1.5811,1.6095,1.6251,1.6523,0.0,0.0,0.0,2.2028,2.2096,2.2189,2.2811,2.269,2.2666,2.3408,2.3283,2.3035,2.3008,2.2881,2.2855,2.3028,2.2902,2.2751,2.2592,2.2467,2.2257,2.1911,2.1645,2.1432,2.1293,2.0974,2.0745,2.0597,2.0409,2.015,1.9806,1.9527,1.9045,1.8324,1.8234,1.7969,1.7496,1.7432,1.7246,1.6981,1.6782,1.6697,1.6675,1.6543,1.65,1.65,1.65,1.65,1.6538,1.7124,1.7689,1.8242,1.877,1.9132,1.937,1.9394,1.9158,1.8798,1.864,1.8383,1.8109,1.8146,1.8042,1.7955,1.8261,1.826,1.8108,1.8088,1.7873,1.7595,1.744,1.7492,1.765,1.7845,1.8187,1.8576,1.8967,1.8633,1.8375,1.8741,1.8286,1.7841,1.7719,1.7053,1.6416,1.5945,1.5604,1.541,1.541,1.5821,1.6095,1.6114,1.6484,1.6726,1.6736,1.6726,1.6562,1.6163,1.6124,1.5919,1.5469,1.5889,1.6114,1.6114,1.6514,1.6697,1.6697,1.6299,1.6124,1.6144,1.6562,1.697,2.182,0.0,0.0,0.0,0.0,0.0,2.182,2.1504,2.1526,2.2177,2.2151,2.217,2.2621,2.2569,2.2429,2.2375,2.2477,2.2497,2.2215,2.2044,2.1855,2.157,2.1261,2.0991,2.0812,2.0578,2.0375,2.0256,2.001,1.9782,1.9588,1.9199,1.8741,1.8248,1.8115,1.7855,1.7432,1.7225,1.7015,1.6782,1.6641,1.6543,1.6543,1.6522,1.65,1.65,1.65,1.65,1.65,1.6685,1.7087,1.7664,1.8216,1.8634,1.8994,1.939,1.9356,1.9066,1.8813,1.8545,1.8177,1.7818,1.7723,1.7734,1.7577,1.7667,1.7864,1.8228,1.8075,1.7765,1.7585,1.7511,1.7446,1.7403,1.7471,1.7594,1.7775,1.7584,1.7646,1.8619,1.7958,1.7278,1.7314,1.6568,1.5899,1.5779,1.5546,1.541,1.541,1.5821,1.6212,1.6514,1.6943,1.7324,1.7637,1.7373,1.7148,1.7063,1.6719,1.6494,1.6346,1.6484,1.6512,1.6512,1.6638,1.6697,1.6697,1.658,1.6709,1.7063,1.7461,1.7725,0.0,0.0,2.2878,2.2639,0.0,0.0,2.2268,2.1914,2.1838,2.2148,2.2065,2.2064,2.2443,2.238,2.2209,2.2041,2.2041,2.2001,2.1779,2.1631,2.1433,2.1103,2.0845,2.0614,2.0412,2.022,2.0045,1.9942,1.9708,1.942,1.9109,1.8635,1.822,1.7882,1.7693,1.7427,1.7112,1.6952,1.6791,1.662,1.6543,1.65,1.65,1.65,1.65,1.65,1.65,1.65,1.65,1.65,1.6861,1.7461,1.799,1.8458,1.8859,1.9405,1.946,1.9251,1.9105,1.8893,1.8602,1.8263,1.8154,1.8116,1.7936,1.8018,1.8212,1.8483,1.8284,1.7898,1.7541,1.7485,1.748,1.7277,1.7338,1.7388,1.7378,1.7222,1.7319,1.8015,1.7391,1.6755,1.6919,1.6247,1.5701,1.5701,1.5546,1.541,1.541,1.5957,1.6445,1.6668,1.7285,1.7744,1.7988,1.7793,1.7568,1.7393,1.7148,1.6892,1.6707,1.6882,1.7002,1.7002,1.7145,1.7233,1.7233,1.7058,1.7227,1.7656,1.79,1.8042,0.0,0.0,0.0,2.3551,2.3573,0.0,2.333,2.3025,2.2738,2.276,2.2483,2.2275,2.236,2.2268,2.2109,2.1913,2.1645,2.1432,2.1371,2.123,2.099,2.0614,2.0444,2.0273,2.0098,1.9887,1.9744,1.9672,1.945,1.9045,1.8442,1.8008,1.7652,1.735,1.7107,1.6897,1.6697,1.6697,1.662,1.65,1.65,1.65,1.65,1.65,1.65,1.65,1.65,1.65,1.65,1.65,1.6823,1.7373,1.7965,1.842,1.8809,1.9393,1.9539,1.9447,1.942,1.933,1.9212,1.9066,1.8946,1.8851,1.8851,1.8851,1.8851,1.8851,1.8521,1.8077,1.7457,1.7534,1.7676,1.7366,1.7455,1.7574,1.741,1.7205,1.7081,1.7102,1.6667,1.6337,1.6507,1.6068,1.5672,1.5672,1.5556,1.5488,1.5488,1.6229,1.6775,1.6775,1.7496,1.8008,1.8008,1.8008,1.7852,1.7471,1.7484,1.7275,1.6853,1.7246,1.7484,1.7484,1.7822,1.8008,1.8008,1.7637,1.7646,1.8008,1.8008,1.8144,2.287,2.2894,2.291,2.311,2.3047,0.0,2.2838,2.2242,2.1841,2.2381,2.1929,2.161,2.2206,2.2178,2.1972,2.1768,2.1481,2.1214,2.1087,2.0877,2.0629,2.0392,2.02,2.0025,1.9869,1.9738,1.9593,1.9468,1.8974,1.8461,1.7948,1.77,1.7406,1.7086,1.7023,1.6897,1.6697,1.6697,1.662,1.65,1.65,1.65,1.65,1.65,1.65,1.65,1.65,1.65,1.65,1.65,1.6563,1.6763,1.7802,1.8243,1.8419,1.9396,1.9734,1.9708,1.9617,1.9539,1.9474,1.9239,1.9225,1.9263,1.9133,1.9198,1.9263,1.9133,1.8975,1.8709,1.8224,1.8036,1.7895,1.7348,1.717,1.7034,1.6612,1.6408,1.6262,1.6038,1.6078,1.6155,1.6186,1.5792,1.5449,1.5449,1.5743,1.5968,1.5968,1.6709,1.7256,1.7256,1.7705,1.8008,1.8008,1.8008,1.7978,1.7891,1.7891,1.7852,1.7764,1.7842,1.7891,1.7891,1.7969,1.8008,1.8008,1.793,1.793,1.8008,1.8178,1.8313,2.2525,2.2586,2.2616,2.263,2.2642,0.0,0.0,2.2048,2.1789,2.2093,2.1804,2.1597,2.1982,2.1945,2.1781,2.157,2.1277,2.0958,2.073,2.0562,2.0357,2.008,1.9955,1.9866,1.9762,1.965,1.9431,1.9026,1.8519,1.8062,1.7611,1.7344,1.7094,1.6867,1.6791,1.6693,1.6599,1.6599,1.6577,1.65,1.65,1.65,1.65,1.65,1.65,1.65,1.65,1.65,1.65,1.65,1.65,1.6588,1.7463,1.7965,1.8304,1.9083,1.9572,1.9798,1.9734,1.9708,1.9682,1.954,1.9552,1.9591,1.9526,1.9552,1.9552,1.9448,1.9344,1.9212,1.8842,1.8655,1.8402,1.787,1.7595,1.729,1.6758,1.6485,1.6228,1.5855,1.5841,1.5871,1.5772,1.5557,1.5488,1.5703,1.5948,1.6173,1.6367,1.6973,1.7383,1.7383,1.7764,1.8008,1.8008,1.8008,1.8008,1.8008,1.8008,1.8008,1.8008,1.8008,1.8008,1.8008,1.8008,1.8008,1.8008,1.811,1.8144,1.8144,1.8313,1.8573,2.1938,2.2022,2.2105,2.2133,2.2184,2.2203,0.0,0.0,0.0,2.1838,2.1781,2.1736,2.1736,2.1678,2.1556,2.1371,2.1039,2.0697,2.0393,2.0272,2.0113,1.9815,1.978,1.9762,1.9708,1.9578,1.9246,1.8592,1.8167,1.776,1.7363,1.7036,1.6791,1.6675,1.6543,1.65,1.65,1.65,1.65,1.65,1.65,1.65,1.65,1.65,1.65,1.65,1.65,1.65,1.65,1.65,1.65,1.655,1.7149,1.7714,1.8267,1.8795,1.9334,1.9798,1.9798,1.9798,1.9798,1.9798,1.9798,1.9798,1.9798,1.9798,1.9773,1.9656,1.963,1.9578,1.9344,1.9186,1.9013,1.8575,1.8278,1.7936,1.7335,1.6955,1.657,1.6075,1.5906,1.5771,1.5459,1.5478,1.5654,1.6036,1.6232,1.6476,1.6775,1.7236,1.75,1.75,1.7803,1.8008,1.8008,1.8008,1.8008,1.8076,1.8076,1.8076,1.8144,1.8178,1.8212,1.8212,1.8212,1.8212,1.8202,1.8371,1.8405,1.8337,1.8573,1.8931,2.1308,2.1402,2.1448,2.1553,2.16,2.16,2.1583,0.0,2.1553,2.1554,0.0,2.1539,2.1539,0.0,0.0,2.1071,2.0763,2.0444,2.017,1.9975,1.9815,1.9726,1.9708,1.9708,1.9708,1.938,1.8917,1.8383,1.7948,1.7537,1.7065,1.6846,1.6663,1.6522,1.65,1.65,1.65,1.65,1.65,1.65,1.65,1.65,1.65,1.65,1.65,1.65,1.65,1.65,1.65,1.65,1.65,1.655,1.7149,1.7714,1.8267,1.8795,1.9334,1.9798,1.9798,1.9798,1.9798,1.9798,1.9798,1.9798,1.9798,1.9798,1.9798,1.9773,1.9773,1.9734,1.9578,1.9539,1.9448,1.916,1.8881,1.8572,1.8077,1.754,1.6965,1.6381,1.6333,1.6178,1.5508,1.5762,1.6036,1.6085,1.676,1.7288,1.7305,1.7676,1.7939,1.7939,1.7978,1.8008,1.8008,1.8008,1.8076,1.8236,1.8269,1.8405,1.8707,1.8875,1.8975,1.8975,1.8975,1.8975,1.8975,1.8998,1.8841,1.8482,1.8988,1.9507,2.0745,2.0893,2.1023,2.1087,2.115,2.1182,2.1103,2.1087,2.1055,2.0942,0.0,0.0,0.0,0.0,0.0,0.0,2.0495,2.0289,2.0063,1.9887,1.978,1.9708,1.9708,1.969,1.965,1.9306,1.8898,1.8442,1.7888,1.7413,1.7023,1.6748,1.6543,1.65,1.65,1.65,1.65,1.65,1.65,1.65,1.65,1.65,1.65,1.65,1.65,1.65,1.65,1.65,1.65,1.65,1.65,1.6525,1.6785,1.7225,1.779,1.8342,1.887,1.9371,1.9698,1.9798,1.9798,1.9798,1.9798,1.9798,1.9798,1.9798,1.9798,1.9798,1.9734,1.9656,1.9617,1.9474,1.9317,1.9146,1.8881,1.856,1.8088,1.7567,1.7108,1.6753,1.6576,1.6437,1.6193,1.6328,1.6533,1.6819,1.7181,1.7471,1.7715,1.79,1.8008,1.8008,1.8008,1.8008,1.8008,1.8008,1.8076,1.8303,1.8607,1.8865,1.9088,1.9264,1.9374,1.9374,1.9374,1.9374,1.9374,1.9594,1.9649,1.9616,1.9704,2.0096,2.0308,2.0461,2.0628,2.0645,2.0745,2.0779,2.0695,2.0662,2.0611,2.0477,2.0443,0.0,0.0,0.0,2.0359,0.0,0.0,2.0113,1.997,1.9848,1.9744,1.9708,1.9708,1.9654,1.9556,1.9284,1.8912,1.8456,1.7861,1.7352,1.6981,1.6671,1.65,1.65,1.65,1.65,1.65,1.65,1.65,1.65,1.65,1.65,1.65,1.65,1.65,1.65,1.65,1.65,1.65,1.65,1.65,1.65,1.65,1.6773,1.7212,1.7777,1.8329,1.8832,1.9233,1.9459,1.9585,1.9585,1.9685,1.9798,1.9798,1.9798,1.9798,1.9798,1.9708,1.9617,1.9617,1.9396,1.9186,1.9093,1.8854,1.8533,1.8088,1.7695,1.737,1.7111,1.6971,1.6886,1.6887,1.6882,1.7021,1.7334,1.748,1.7666,1.7969,1.8008,1.8008,1.8008,1.8008,1.8008,1.8076,1.8076,1.8245,1.864,1.9231,1.9649,1.9792,2.0031,2.0139,2.0139,2.0139,2.0139,2.0139,2.0387,2.0613,2.0805,2.0581,2.0773,2.0063,2.0133,2.0135,2.0287,2.0321,2.0321,2.0321,2.0321,2.0304,2.0304,2.0304,2.0304,2.0304,0.0,0.0,0.0,0.0,0.0,0.0,1.9744,1.9708,1.9708,1.9708,1.9617,1.9431,1.9213,1.8855,1.8248,1.7774,1.7344,1.6918,1.665,1.65,1.65,1.65,1.65,1.65,1.65,1.65,1.65,1.65,1.65,1.65,1.65,1.65,1.65,1.65,1.65,1.65,1.65,1.65,1.65,1.65,1.65,1.6588,1.7187,1.7765,1.8229,1.8254,1.8581,1.9033,1.9033,1.9397,1.9798,1.9798,1.9798,1.9798,1.9798,1.9708,1.9617,1.9617,1.9396,1.9212,1.9186,1.8987,1.8706,1.8371,1.8188,1.7904,1.7301,1.7564,1.7735,1.7429,1.7396,1.7363,1.7383,1.7734,1.7998,1.8008,1.8008,1.8008,1.8008,1.8008,1.8076,1.8269,1.8303,1.864,1.9506,2.0388,2.0892,2.1028,2.1376,2.1522,2.1522,2.1522,2.1522,2.1522,2.1553,2.1659,2.1846,2.1514,2.1545,1.9815,1.9869,1.9904,1.9973,2.0043,2.0078,1.999,1.9973,1.9973,1.9904,1.9904,1.9904,1.9904,0.0,0.0,0.0,0.0,0.0,0.0,1.9708,1.969,1.9632,1.9632,1.956,1.9413,1.9101,1.8726,1.8299,1.776,1.7303,1.6981,1.6671,1.65,1.65,1.65,1.65,1.65,1.65,1.65,1.65,1.65,1.65,1.65,1.65,1.65,1.65,1.65,1.65,1.65,1.65,1.65,1.65,1.65,1.65,1.6563,1.7184,1.7524,1.7714,1.8078,1.8329,1.8456,1.8456,1.882,1.9259,1.9259,1.9522,1.9798,1.9798,1.963,1.9473,1.9473,1.9146,1.8789,1.8789,1.856,1.8259,1.7975,1.794,1.7878,1.753,1.7705,1.7865,1.7821,1.7803,1.7803,1.7803,1.792,1.8008,1.8008,1.8008,1.8008,1.8008,1.811,1.8269,1.8414,1.8965,1.9518,2.0074,2.0816,2.1305,2.1482,2.1819,2.2006,2.2006,2.2006,2.2006,2.2006,2.2099,2.2149,2.2223,2.2334,2.2408,1.9708,1.9726,1.9762,1.9762,1.983,1.9866,1.978,1.9762,1.9744,1.9708,1.9708,1.9708,1.9708,1.9708,0.0,0.0,0.0,0.0,0.0,1.9708,1.9687,1.9611,1.9556,1.9465,1.928,1.8912,1.8519,1.8108,1.7618,1.7199,1.6897,1.665,1.65,1.65,1.65,1.65,1.65,1.65,1.65,1.65,1.65,1.65,1.65,1.65,1.65,1.65,1.65,1.65,1.65,1.65,1.65,1.65,1.65,1.65,1.6538,1.6936,1.7074,1.7124,1.7488,1.7739,1.7915,1.7915,1.8417,1.9008,1.9008,1.9359,1.9798,1.9798,1.963,1.9473,1.9473,1.9146,1.8815,1.8815,1.8572,1.8275,1.7975,1.813,1.8227,1.7862,1.8057,1.8284,1.8128,1.811,1.8076,1.8008,1.8008,1.8008,1.8008,1.8076,1.811,1.811,1.8337,1.8607,1.8931,1.9781,2.042,2.0805,2.1482,2.1932,2.213,2.2389,2.2525,2.2525,2.2525,2.2525,2.2525,2.2604,2.2665,2.2653,2.2878,2.2909]}]]